<?xml version="1.0" encoding="UTF-8"?>
<gpx version="1.1" creator="https://www.youtrack.es" xsi:schemaLocation="http://www.topografix.com/GPX/1/1 http://www.topografix.com/GPX/1/1/gpx.xsd http://www.garmin.com/xmlschemas/GpxExtensions/v3 http://www.garmin.com/xmlschemas/GpxExtensionsv3.xsd http://www.garmin.com/xmlschemas/TrackPointExtension/v1 http://www.garmin.com/xmlschemas/TrackPointExtensionv1.xsd" xmlns:gpxtpx="http://www.garmin.com/xmlschemas/TrackPointExtension/v1" xmlns:gpxx="http://www.garmin.com/xmlschemas/GpxExtensions/v3" xmlns:xsi="http://www.w3.org/2001/XMLSchema-instance">
  <metadata>
    <link href="https://www.youtrack.es">
      <text>YouTrack.es</text>
    </link>
    <time>2026-05-10T12:11:39Z</time>
  </metadata>
  <trk>
    <src>https://www.youtrack.es</src>
    <link href="https://www.youtrack.es/ruta/16938-grau-escletxa-i-grau-barrots">
      <text>YouTrack.es</text>
    </link>
    <trkseg>
      <trkpt lat="41.265325946733356" lon="0.841521117836237">
        <ele>752.4</ele>
        <time>2020-10-29T08:33:19.000Z</time>
      </trkpt>
      <trkpt lat="41.26531085930765" lon="0.8415217883884907">
        <ele>752.2</ele>
        <time>2020-10-29T08:33:20.000Z</time>
      </trkpt>
      <trkpt lat="41.26526718959212" lon="0.841496055945754">
        <ele>752.4</ele>
        <time>2020-10-29T08:33:25.000Z</time>
      </trkpt>
      <trkpt lat="41.26511522568762" lon="0.8413326926529408">
        <ele>752.8</ele>
        <time>2020-10-29T08:33:39.000Z</time>
      </trkpt>
      <trkpt lat="41.265068957582116" lon="0.8413150906562805">
        <ele>752.2</ele>
        <time>2020-10-29T08:33:42.000Z</time>
      </trkpt>
      <trkpt lat="41.265060156583786" lon="0.8413183595985174">
        <ele>752.2</ele>
        <time>2020-10-29T08:33:43.000Z</time>
      </trkpt>
      <trkpt lat="41.26488145440817" lon="0.8412492927163839">
        <ele>750.2</ele>
        <time>2020-10-29T08:33:56.000Z</time>
      </trkpt>
      <trkpt lat="41.264843149110675" lon="0.8412380609661341">
        <ele>749.8</ele>
        <time>2020-10-29T08:33:59.000Z</time>
      </trkpt>
      <trkpt lat="41.26482772640884" lon="0.8412325289100409">
        <ele>749.6</ele>
        <time>2020-10-29T08:34:00.000Z</time>
      </trkpt>
      <trkpt lat="41.26465438865125" lon="0.8412972372025251">
        <ele>748</ele>
        <time>2020-10-29T08:34:12.000Z</time>
      </trkpt>
      <trkpt lat="41.264620274305344" lon="0.8413914497941732">
        <ele>747.6</ele>
        <time>2020-10-29T08:34:19.000Z</time>
      </trkpt>
      <trkpt lat="41.26461901701987" lon="0.8414305094629526">
        <ele>747</ele>
        <time>2020-10-29T08:34:21.000Z</time>
      </trkpt>
      <trkpt lat="41.26462211832404" lon="0.8415236324071884">
        <ele>745.2</ele>
        <time>2020-10-29T08:34:26.000Z</time>
      </trkpt>
      <trkpt lat="41.26462245360017" lon="0.8415435813367367">
        <ele>744.8</ele>
        <time>2020-10-29T08:34:27.000Z</time>
      </trkpt>
      <trkpt lat="41.26459286548197" lon="0.8417025860399008">
        <ele>741.4</ele>
        <time>2020-10-29T08:34:41.000Z</time>
      </trkpt>
      <trkpt lat="41.26445397734642" lon="0.8416745904833078">
        <ele>740</ele>
        <time>2020-10-29T08:34:52.000Z</time>
      </trkpt>
      <trkpt lat="41.26444023102522" lon="0.8416654542088509">
        <ele>740</ele>
        <time>2020-10-29T08:34:53.000Z</time>
      </trkpt>
      <trkpt lat="41.26436395570636" lon="0.8416405599564314">
        <ele>739.6</ele>
        <time>2020-10-29T08:34:59.000Z</time>
      </trkpt>
      <trkpt lat="41.264334451407194" lon="0.8416302502155304">
        <ele>739.4</ele>
        <time>2020-10-29T08:35:01.000Z</time>
      </trkpt>
      <trkpt lat="41.26426035538316" lon="0.8416180126369">
        <ele>738.6</ele>
        <time>2020-10-29T08:35:07.000Z</time>
      </trkpt>
      <trkpt lat="41.26424862071872" lon="0.8416169229894876">
        <ele>738.4</ele>
        <time>2020-10-29T08:35:08.000Z</time>
      </trkpt>
      <trkpt lat="41.26427016220987" lon="0.8413517195731401">
        <ele>743</ele>
        <time>2020-10-29T08:35:24.000Z</time>
      </trkpt>
      <trkpt lat="41.26427695155144" lon="0.8413057029247284">
        <ele>743</ele>
        <time>2020-10-29T08:35:27.000Z</time>
      </trkpt>
      <trkpt lat="41.26427854411304" lon="0.8412913698703051">
        <ele>743</ele>
        <time>2020-10-29T08:35:28.000Z</time>
      </trkpt>
      <trkpt lat="41.264285584911704" lon="0.8412138372659683">
        <ele>742.8</ele>
        <time>2020-10-29T08:35:33.000Z</time>
      </trkpt>
      <trkpt lat="41.26428457908332" lon="0.8411966543644667">
        <ele>742.8</ele>
        <time>2020-10-29T08:35:34.000Z</time>
      </trkpt>
      <trkpt lat="41.264286087825894" lon="0.8411648031324148">
        <ele>742.8</ele>
        <time>2020-10-29T08:35:36.000Z</time>
      </trkpt>
      <trkpt lat="41.264233868569136" lon="0.8409348037093878">
        <ele>741.6</ele>
        <time>2020-10-29T08:35:52.000Z</time>
      </trkpt>
      <trkpt lat="41.26423001289368" lon="0.8409205544739962">
        <ele>741.4</ele>
        <time>2020-10-29T08:35:53.000Z</time>
      </trkpt>
      <trkpt lat="41.26424149610102" lon="0.8406841848045588">
        <ele>740.6</ele>
        <time>2020-10-29T08:36:08.000Z</time>
      </trkpt>
      <trkpt lat="41.26428592018783" lon="0.8406160399317741">
        <ele>740.8</ele>
        <time>2020-10-29T08:36:13.000Z</time>
      </trkpt>
      <trkpt lat="41.264294972643256" lon="0.840603718534112">
        <ele>740.8</ele>
        <time>2020-10-29T08:36:14.000Z</time>
      </trkpt>
      <trkpt lat="41.2642979901284" lon="0.8404697757214308">
        <ele>739.6</ele>
        <time>2020-10-29T08:36:23.000Z</time>
      </trkpt>
      <trkpt lat="41.26429279334843" lon="0.8404551912099123">
        <ele>739.4</ele>
        <time>2020-10-29T08:36:24.000Z</time>
      </trkpt>
      <trkpt lat="41.26413085497916" lon="0.8403792511671782">
        <ele>737</ele>
        <time>2020-10-29T08:36:38.000Z</time>
      </trkpt>
      <trkpt lat="41.26403018832207" lon="0.8403612300753593">
        <ele>735.6</ele>
        <time>2020-10-29T08:36:46.000Z</time>
      </trkpt>
      <trkpt lat="41.264019794762135" lon="0.8403543569147587">
        <ele>735.4</ele>
        <time>2020-10-29T08:36:47.000Z</time>
      </trkpt>
      <trkpt lat="41.263945447281" lon="0.8401924185454845">
        <ele>733</ele>
        <time>2020-10-29T08:37:06.000Z</time>
      </trkpt>
      <trkpt lat="41.26385835930705" lon="0.8401021454483271">
        <ele>731.8</ele>
        <time>2020-10-29T08:37:20.000Z</time>
      </trkpt>
      <trkpt lat="41.26384218223393" lon="0.8400965295732021">
        <ele>731.6</ele>
        <time>2020-10-29T08:37:24.000Z</time>
      </trkpt>
      <trkpt lat="41.26377613283694" lon="0.840050932019949">
        <ele>730.8</ele>
        <time>2020-10-29T08:37:41.000Z</time>
      </trkpt>
      <trkpt lat="41.2637900467962" lon="0.8399763330817223">
        <ele>730.2</ele>
        <time>2020-10-29T08:37:49.000Z</time>
      </trkpt>
      <trkpt lat="41.26382818445563" lon="0.8399311546236277">
        <ele>729.8</ele>
        <time>2020-10-29T08:38:43.000Z</time>
      </trkpt>
      <trkpt lat="41.26388585194945" lon="0.8398796059191227">
        <ele>729.4</ele>
        <time>2020-10-29T08:38:51.000Z</time>
      </trkpt>
      <trkpt lat="41.2639353889972" lon="0.8398487605154514">
        <ele>729.2</ele>
        <time>2020-10-29T08:38:56.000Z</time>
      </trkpt>
      <trkpt lat="41.263965563848615" lon="0.839845659211278">
        <ele>729.4</ele>
        <time>2020-10-29T08:38:58.000Z</time>
      </trkpt>
      <trkpt lat="41.26406371593475" lon="0.8397931046783924">
        <ele>729.4</ele>
        <time>2020-10-29T08:39:06.000Z</time>
      </trkpt>
      <trkpt lat="41.26407830044627" lon="0.8397875726222992">
        <ele>729.4</ele>
        <time>2020-10-29T08:39:07.000Z</time>
      </trkpt>
      <trkpt lat="41.26420134678483" lon="0.8397062681615353">
        <ele>727.4</ele>
        <time>2020-10-29T08:39:17.000Z</time>
      </trkpt>
      <trkpt lat="41.264211824163795" lon="0.839696628972888">
        <ele>727.2</ele>
        <time>2020-10-29T08:39:18.000Z</time>
      </trkpt>
      <trkpt lat="41.26423227600753" lon="0.8396762609481812">
        <ele>726.6</ele>
        <time>2020-10-29T08:39:20.000Z</time>
      </trkpt>
      <trkpt lat="41.264412738382816" lon="0.839694868773222">
        <ele>726.8</ele>
        <time>2020-10-29T08:39:34.000Z</time>
      </trkpt>
      <trkpt lat="41.26444894820452" lon="0.8397241216152906">
        <ele>727.4</ele>
        <time>2020-10-29T08:39:37.000Z</time>
      </trkpt>
      <trkpt lat="41.264460599049926" lon="0.8397333417087793">
        <ele>727.6</ele>
        <time>2020-10-29T08:39:38.000Z</time>
      </trkpt>
      <trkpt lat="41.26448323018849" lon="0.8397500216960907">
        <ele>728</ele>
        <time>2020-10-29T08:39:40.000Z</time>
      </trkpt>
      <trkpt lat="41.264526983723044" lon="0.8397827949374914">
        <ele>728.6</ele>
        <time>2020-10-29T08:39:44.000Z</time>
      </trkpt>
      <trkpt lat="41.264670649543405" lon="0.8398611657321453">
        <ele>730.2</ele>
        <time>2020-10-29T08:39:55.000Z</time>
      </trkpt>
      <trkpt lat="41.264683390036225" lon="0.8398649375885725">
        <ele>730.4</ele>
        <time>2020-10-29T08:39:56.000Z</time>
      </trkpt>
      <trkpt lat="41.2647311668843" lon="0.8398694638162851">
        <ele>730.4</ele>
        <time>2020-10-29T08:40:00.000Z</time>
      </trkpt>
      <trkpt lat="41.264746421948075" lon="0.8398694638162851">
        <ele>730.4</ele>
        <time>2020-10-29T08:40:01.000Z</time>
      </trkpt>
      <trkpt lat="41.26489997841418" lon="0.8397545479238033">
        <ele>729</ele>
        <time>2020-10-29T08:40:14.000Z</time>
      </trkpt>
      <trkpt lat="41.264937948435545" lon="0.8396979700773954">
        <ele>728.4</ele>
        <time>2020-10-29T08:40:18.000Z</time>
      </trkpt>
      <trkpt lat="41.26496016047895" lon="0.8396733272820711">
        <ele>728.2</ele>
        <time>2020-10-29T08:40:20.000Z</time>
      </trkpt>
      <trkpt lat="41.26501045189798" lon="0.8396377041935921">
        <ele>728.4</ele>
        <time>2020-10-29T08:40:24.000Z</time>
      </trkpt>
      <trkpt lat="41.26502260565758" lon="0.8396294061094522">
        <ele>728.4</ele>
        <time>2020-10-29T08:40:25.000Z</time>
      </trkpt>
      <trkpt lat="41.265070801600814" lon="0.8395993988960981">
        <ele>728.4</ele>
        <time>2020-10-29T08:40:29.000Z</time>
      </trkpt>
      <trkpt lat="41.265211617574096" lon="0.8395375404506922">
        <ele>729.2</ele>
        <time>2020-10-29T08:40:40.000Z</time>
      </trkpt>
      <trkpt lat="41.26522469334304" lon="0.8395309187471867">
        <ele>729.2</ele>
        <time>2020-10-29T08:40:41.000Z</time>
      </trkpt>
      <trkpt lat="41.26539015211165" lon="0.8394284918904305">
        <ele>729.8</ele>
        <time>2020-10-29T08:40:54.000Z</time>
      </trkpt>
      <trkpt lat="41.265576146543026" lon="0.8393652085214853">
        <ele>732</ele>
        <time>2020-10-29T08:41:07.000Z</time>
      </trkpt>
      <trkpt lat="41.265616714954376" lon="0.8393425773829222">
        <ele>732.4</ele>
        <time>2020-10-29T08:41:10.000Z</time>
      </trkpt>
      <trkpt lat="41.26562627032399" lon="0.8393336087465286">
        <ele>732.4</ele>
        <time>2020-10-29T08:41:11.000Z</time>
      </trkpt>
      <trkpt lat="41.26568838022649" lon="0.8392093051224947">
        <ele>732.4</ele>
        <time>2020-10-29T08:41:19.000Z</time>
      </trkpt>
      <trkpt lat="41.26569248735905" lon="0.839190948754549">
        <ele>732.2</ele>
        <time>2020-10-29T08:41:20.000Z</time>
      </trkpt>
      <trkpt lat="41.26568879932165" lon="0.8390984125435352">
        <ele>730.8</ele>
        <time>2020-10-29T08:41:25.000Z</time>
      </trkpt>
      <trkpt lat="41.26568427309394" lon="0.8390786312520504">
        <ele>730.4</ele>
        <time>2020-10-29T08:41:26.000Z</time>
      </trkpt>
      <trkpt lat="41.26563213765621" lon="0.8388336282223463">
        <ele>725.4</ele>
        <time>2020-10-29T08:41:40.000Z</time>
      </trkpt>
      <trkpt lat="41.265610428527" lon="0.838720053434372">
        <ele>724</ele>
        <time>2020-10-29T08:41:47.000Z</time>
      </trkpt>
      <trkpt lat="41.265604980289936" lon="0.838704714551568">
        <ele>723.6</ele>
        <time>2020-10-29T08:41:48.000Z</time>
      </trkpt>
      <trkpt lat="41.265595592558384" lon="0.8386777248233557">
        <ele>723.2</ele>
        <time>2020-10-29T08:41:50.000Z</time>
      </trkpt>
      <trkpt lat="41.265554102137685" lon="0.8385278563946486">
        <ele>721</ele>
        <time>2020-10-29T08:41:59.000Z</time>
      </trkpt>
      <trkpt lat="41.26555158756673" lon="0.8384898863732815">
        <ele>720.6</ele>
        <time>2020-10-29T08:42:01.000Z</time>
      </trkpt>
      <trkpt lat="41.26557279378176" lon="0.8382437936961651">
        <ele>718.2</ele>
        <time>2020-10-29T08:42:15.000Z</time>
      </trkpt>
      <trkpt lat="41.26559198834002" lon="0.8380656782537699">
        <ele>716.6</ele>
        <time>2020-10-29T08:42:26.000Z</time>
      </trkpt>
      <trkpt lat="41.26558888703585" lon="0.8380324020981789">
        <ele>716.4</ele>
        <time>2020-10-29T08:42:28.000Z</time>
      </trkpt>
      <trkpt lat="41.26557254232466" lon="0.8379645925015211">
        <ele>716.2</ele>
        <time>2020-10-29T08:42:32.000Z</time>
      </trkpt>
      <trkpt lat="41.2654357496649" lon="0.8378139697015285">
        <ele>714.2</ele>
        <time>2020-10-29T08:42:45.000Z</time>
      </trkpt>
      <trkpt lat="41.26539928838611" lon="0.8377727307379246">
        <ele>713.8</ele>
        <time>2020-10-29T08:42:49.000Z</time>
      </trkpt>
      <trkpt lat="41.26539249904454" lon="0.8377599902451038">
        <ele>713.6</ele>
        <time>2020-10-29T08:42:50.000Z</time>
      </trkpt>
      <trkpt lat="41.26537539996207" lon="0.8376899175345898">
        <ele>713.6</ele>
        <time>2020-10-29T08:42:54.000Z</time>
      </trkpt>
      <trkpt lat="41.2653738912195" lon="0.837671896442771">
        <ele>713.4</ele>
        <time>2020-10-29T08:42:55.000Z</time>
      </trkpt>
      <trkpt lat="41.26534665003419" lon="0.8375248778611422">
        <ele>713.2</ele>
        <time>2020-10-29T08:43:04.000Z</time>
      </trkpt>
      <trkpt lat="41.26534170471132" lon="0.8375106286257505">
        <ele>713.2</ele>
        <time>2020-10-29T08:43:05.000Z</time>
      </trkpt>
      <trkpt lat="41.26531245186925" lon="0.8374728262424469">
        <ele>712.8</ele>
        <time>2020-10-29T08:43:08.000Z</time>
      </trkpt>
      <trkpt lat="41.265287389978766" lon="0.8373549766838551">
        <ele>712.6</ele>
        <time>2020-10-29T08:43:17.000Z</time>
      </trkpt>
      <trkpt lat="41.26518462784588" lon="0.8371362090110779">
        <ele>711.4</ele>
        <time>2020-10-29T08:43:29.000Z</time>
      </trkpt>
      <trkpt lat="41.26515026204288" lon="0.8370399009436369">
        <ele>711.2</ele>
        <time>2020-10-29T08:43:34.000Z</time>
      </trkpt>
      <trkpt lat="41.26514548435807" lon="0.8370223827660084">
        <ele>711.2</ele>
        <time>2020-10-29T08:43:35.000Z</time>
      </trkpt>
      <trkpt lat="41.26513953320682" lon="0.8369801379740238">
        <ele>711.2</ele>
        <time>2020-10-29T08:43:41.000Z</time>
      </trkpt>
      <trkpt lat="41.26513852737844" lon="0.836928253993392">
        <ele>711.4</ele>
        <time>2020-10-29T08:43:44.000Z</time>
      </trkpt>
      <trkpt lat="41.265104999765754" lon="0.8366836700588465">
        <ele>711.8</ele>
        <time>2020-10-29T08:43:56.000Z</time>
      </trkpt>
      <trkpt lat="41.265096701681614" lon="0.8366308640688658">
        <ele>711.8</ele>
        <time>2020-10-29T08:43:59.000Z</time>
      </trkpt>
      <trkpt lat="41.26509393565357" lon="0.8366133458912373">
        <ele>711.8</ele>
        <time>2020-10-29T08:44:00.000Z</time>
      </trkpt>
      <trkpt lat="41.265088906511664" lon="0.8365574385970831">
        <ele>712</ele>
        <time>2020-10-29T08:44:03.000Z</time>
      </trkpt>
      <trkpt lat="41.265083039179444" lon="0.8365172054618597">
        <ele>712</ele>
        <time>2020-10-29T08:44:05.000Z</time>
      </trkpt>
      <trkpt lat="41.26505487598479" lon="0.8363251760601997">
        <ele>711.6</ele>
        <time>2020-10-29T08:44:16.000Z</time>
      </trkpt>
      <trkpt lat="41.26505294814706" lon="0.8363058976829052">
        <ele>711.4</ele>
        <time>2020-10-29T08:44:17.000Z</time>
      </trkpt>
      <trkpt lat="41.26504414714873" lon="0.8361947536468506">
        <ele>710.4</ele>
        <time>2020-10-29T08:44:23.000Z</time>
      </trkpt>
      <trkpt lat="41.265045488253236" lon="0.8361769001930952">
        <ele>710.4</ele>
        <time>2020-10-29T08:44:24.000Z</time>
      </trkpt>
      <trkpt lat="41.26507306471467" lon="0.8360846992582083">
        <ele>710.2</ele>
        <time>2020-10-29T08:44:29.000Z</time>
      </trkpt>
      <trkpt lat="41.265082117170095" lon="0.8360681030899286">
        <ele>710.2</ele>
        <time>2020-10-29T08:44:30.000Z</time>
      </trkpt>
      <trkpt lat="41.26521580852568" lon="0.8359100203961134">
        <ele>711.4</ele>
        <time>2020-10-29T08:44:44.000Z</time>
      </trkpt>
      <trkpt lat="41.26528068445623" lon="0.835741963237524">
        <ele>712</ele>
        <time>2020-10-29T08:44:54.000Z</time>
      </trkpt>
      <trkpt lat="41.265285294502974" lon="0.8357228524982929">
        <ele>712</ele>
        <time>2020-10-29T08:44:55.000Z</time>
      </trkpt>
      <trkpt lat="41.26529208384454" lon="0.8356138877570629">
        <ele>711.8</ele>
        <time>2020-10-29T08:45:01.000Z</time>
      </trkpt>
      <trkpt lat="41.26528889872134" lon="0.8355958666652441">
        <ele>711.6</ele>
        <time>2020-10-29T08:45:02.000Z</time>
      </trkpt>
      <trkpt lat="41.265283450484276" lon="0.8355638477951288">
        <ele>711.4</ele>
        <time>2020-10-29T08:45:04.000Z</time>
      </trkpt>
      <trkpt lat="41.265216981992126" lon="0.8353300765156746">
        <ele>708</ele>
        <time>2020-10-29T08:45:18.000Z</time>
      </trkpt>
      <trkpt lat="41.26521388068795" lon="0.8352912683039904">
        <ele>707.6</ele>
        <time>2020-10-29T08:45:20.000Z</time>
      </trkpt>
      <trkpt lat="41.26521228812635" lon="0.8352719061076641">
        <ele>707.2</ele>
        <time>2020-10-29T08:45:21.000Z</time>
      </trkpt>
      <trkpt lat="41.265205247327685" lon="0.8350259810686111">
        <ele>704.8</ele>
        <time>2020-10-29T08:45:33.000Z</time>
      </trkpt>
      <trkpt lat="41.26522787846625" lon="0.8347874321043491">
        <ele>703</ele>
        <time>2020-10-29T08:45:46.000Z</time>
      </trkpt>
      <trkpt lat="41.26524019986391" lon="0.8347331173717976">
        <ele>702.6</ele>
        <time>2020-10-29T08:45:49.000Z</time>
      </trkpt>
      <trkpt lat="41.26524472609162" lon="0.8347153477370739">
        <ele>702.6</ele>
        <time>2020-10-29T08:45:50.000Z</time>
      </trkpt>
      <trkpt lat="41.26535628922284" lon="0.8345113322138786">
        <ele>702.2</ele>
        <time>2020-10-29T08:46:03.000Z</time>
      </trkpt>
      <trkpt lat="41.265369951725006" lon="0.8344204723834991">
        <ele>701.2</ele>
        <time>2020-10-29T08:46:08.000Z</time>
      </trkpt>
      <trkpt lat="41.26545108854771" lon="0.8342057280242443">
        <ele>698</ele>
        <time>2020-10-29T08:46:20.000Z</time>
      </trkpt>
      <trkpt lat="41.26551613211632" lon="0.8340580388903618">
        <ele>696</ele>
        <time>2020-10-29T08:46:28.000Z</time>
      </trkpt>
      <trkpt lat="41.26552644185722" lon="0.8340436220169067">
        <ele>695.8</ele>
        <time>2020-10-29T08:46:29.000Z</time>
      </trkpt>
      <trkpt lat="41.265547815710306" lon="0.8340141177177429">
        <ele>695.4</ele>
        <time>2020-10-29T08:46:31.000Z</time>
      </trkpt>
      <trkpt lat="41.26567614264786" lon="0.8338407799601555">
        <ele>694.4</ele>
        <time>2020-10-29T08:46:44.000Z</time>
      </trkpt>
      <trkpt lat="41.265685111284256" lon="0.8338255248963833">
        <ele>694.4</ele>
        <time>2020-10-29T08:46:45.000Z</time>
      </trkpt>
      <trkpt lat="41.26571075990796" lon="0.833780262619257">
        <ele>694.2</ele>
        <time>2020-10-29T08:46:48.000Z</time>
      </trkpt>
      <trkpt lat="41.26578535884619" lon="0.8335548732429743">
        <ele>693</ele>
        <time>2020-10-29T08:47:01.000Z</time>
      </trkpt>
      <trkpt lat="41.26584126614034" lon="0.8333797752857208">
        <ele>692</ele>
        <time>2020-10-29T08:47:11.000Z</time>
      </trkpt>
      <trkpt lat="41.2658485583961" lon="0.833361754193902">
        <ele>692</ele>
        <time>2020-10-29T08:47:12.000Z</time>
      </trkpt>
      <trkpt lat="41.265920642763376" lon="0.8331895899027586">
        <ele>689.8</ele>
        <time>2020-10-29T08:47:22.000Z</time>
      </trkpt>
      <trkpt lat="41.2659296952188" lon="0.8331760950386524">
        <ele>689.8</ele>
        <time>2020-10-29T08:47:23.000Z</time>
      </trkpt>
      <trkpt lat="41.2659659050405" lon="0.8330971375107765">
        <ele>688.4</ele>
        <time>2020-10-29T08:47:29.000Z</time>
      </trkpt>
      <trkpt lat="41.265966994687915" lon="0.8330837264657021">
        <ele>688.2</ele>
        <time>2020-10-29T08:47:30.000Z</time>
      </trkpt>
      <trkpt lat="41.26594486646354" lon="0.8330210298299789">
        <ele>687.6</ele>
        <time>2020-10-29T08:47:36.000Z</time>
      </trkpt>
      <trkpt lat="41.26593514345586" lon="0.8330080378800631">
        <ele>687.4</ele>
        <time>2020-10-29T08:47:37.000Z</time>
      </trkpt>
      <trkpt lat="41.26579432748258" lon="0.8328414894640446">
        <ele>686.6</ele>
        <time>2020-10-29T08:47:51.000Z</time>
      </trkpt>
      <trkpt lat="41.26574403606355" lon="0.8327851630747318">
        <ele>686.2</ele>
        <time>2020-10-29T08:47:56.000Z</time>
      </trkpt>
      <trkpt lat="41.2657312117517" lon="0.832769488915801">
        <ele>686.2</ele>
        <time>2020-10-29T08:47:57.000Z</time>
      </trkpt>
      <trkpt lat="41.26570640131831" lon="0.8327434211969376">
        <ele>686</ele>
        <time>2020-10-29T08:47:59.000Z</time>
      </trkpt>
      <trkpt lat="41.26554111018777" lon="0.8326217159628868">
        <ele>684.2</ele>
        <time>2020-10-29T08:48:13.000Z</time>
      </trkpt>
      <trkpt lat="41.265468103811145" lon="0.8325556665658951">
        <ele>683.2</ele>
        <time>2020-10-29T08:48:20.000Z</time>
      </trkpt>
      <trkpt lat="41.2654584646225" lon="0.8325430098921061">
        <ele>683</ele>
        <time>2020-10-29T08:48:21.000Z</time>
      </trkpt>
      <trkpt lat="41.2653168104589" lon="0.8323837537318468">
        <ele>681.2</ele>
        <time>2020-10-29T08:48:34.000Z</time>
      </trkpt>
      <trkpt lat="41.26529451459646" lon="0.832358356565237">
        <ele>681</ele>
        <time>2020-10-29T08:48:36.000Z</time>
      </trkpt>
      <trkpt lat="41.265282863751054" lon="0.8323459513485432">
        <ele>680.8</ele>
        <time>2020-10-29T08:48:37.000Z</time>
      </trkpt>
      <trkpt lat="41.265229135751724" lon="0.8322854340076447">
        <ele>680</ele>
        <time>2020-10-29T08:48:42.000Z</time>
      </trkpt>
      <trkpt lat="41.26518504694104" lon="0.8322574384510517">
        <ele>679.4</ele>
        <time>2020-10-29T08:48:46.000Z</time>
      </trkpt>
      <trkpt lat="41.265171719715" lon="0.8322529122233391">
        <ele>679.2</ele>
        <time>2020-10-29T08:48:47.000Z</time>
      </trkpt>
      <trkpt lat="41.26514255069196" lon="0.8322439435869455">
        <ele>678.8</ele>
        <time>2020-10-29T08:48:49.000Z</time>
      </trkpt>
      <trkpt lat="41.26506267115474" lon="0.8322060573846102">
        <ele>677.6</ele>
        <time>2020-10-29T08:48:55.000Z</time>
      </trkpt>
      <trkpt lat="41.26491313800216" lon="0.8320627268403769">
        <ele>676.2</ele>
        <time>2020-10-29T08:49:10.000Z</time>
      </trkpt>
      <trkpt lat="41.264894530177116" lon="0.8320186380296946">
        <ele>676.2</ele>
        <time>2020-10-29T08:49:13.000Z</time>
      </trkpt>
      <trkpt lat="41.26488899812102" lon="0.831999946385622">
        <ele>676.2</ele>
        <time>2020-10-29T08:49:14.000Z</time>
      </trkpt>
      <trkpt lat="41.26486301422119" lon="0.8319369982928038">
        <ele>676.2</ele>
        <time>2020-10-29T08:49:18.000Z</time>
      </trkpt>
      <trkpt lat="41.264804005622864" lon="0.8318301290273666">
        <ele>676</ele>
        <time>2020-10-29T08:49:25.000Z</time>
      </trkpt>
      <trkpt lat="41.26479562371969" lon="0.8318152092397213">
        <ele>676</ele>
        <time>2020-10-29T08:49:26.000Z</time>
      </trkpt>
      <trkpt lat="41.2647433206439" lon="0.8317238464951515">
        <ele>675.2</ele>
        <time>2020-10-29T08:49:33.000Z</time>
      </trkpt>
      <trkpt lat="41.264733262360096" lon="0.831713117659092">
        <ele>675</ele>
        <time>2020-10-29T08:49:34.000Z</time>
      </trkpt>
      <trkpt lat="41.26458825543523" lon="0.8315707091242075">
        <ele>672.2</ele>
        <time>2020-10-29T08:49:48.000Z</time>
      </trkpt>
      <trkpt lat="41.26456478610635" lon="0.8315500896424055">
        <ele>671.8</ele>
        <time>2020-10-29T08:49:50.000Z</time>
      </trkpt>
      <trkpt lat="41.26455313526094" lon="0.8315389417111874">
        <ele>671.6</ele>
        <time>2020-10-29T08:49:51.000Z</time>
      </trkpt>
      <trkpt lat="41.264411145821214" lon="0.8313892409205437">
        <ele>668.8</ele>
        <time>2020-10-29T08:50:03.000Z</time>
      </trkpt>
      <trkpt lat="41.264399997889996" lon="0.8313812781125307">
        <ele>668.6</ele>
        <time>2020-10-29T08:50:04.000Z</time>
      </trkpt>
      <trkpt lat="41.26438750885427" lon="0.8313742373138666">
        <ele>668.4</ele>
        <time>2020-10-29T08:50:05.000Z</time>
      </trkpt>
      <trkpt lat="41.26436152495444" lon="0.8313609100878239">
        <ele>668</ele>
        <time>2020-10-29T08:50:07.000Z</time>
      </trkpt>
      <trkpt lat="41.264273431152105" lon="0.8312914241105318">
        <ele>666.6</ele>
        <time>2020-10-29T08:50:14.000Z</time>
      </trkpt>
      <trkpt lat="41.264260690659285" lon="0.8312818687409163">
        <ele>666.4</ele>
        <time>2020-10-29T08:50:15.000Z</time>
      </trkpt>
      <trkpt lat="41.26421065069735" lon="0.8312348462641239">
        <ele>665.8</ele>
        <time>2020-10-29T08:50:19.000Z</time>
      </trkpt>
      <trkpt lat="41.26419975422323" lon="0.8312207646667957">
        <ele>665.8</ele>
        <time>2020-10-29T08:50:20.000Z</time>
      </trkpt>
      <trkpt lat="41.26413722522557" lon="0.8311083633452654">
        <ele>665.6</ele>
        <time>2020-10-29T08:50:27.000Z</time>
      </trkpt>
      <trkpt lat="41.26412867568433" lon="0.8310918509960175">
        <ele>665.8</ele>
        <time>2020-10-29T08:50:28.000Z</time>
      </trkpt>
      <trkpt lat="41.264081820845604" lon="0.8309897594153881">
        <ele>666</ele>
        <time>2020-10-29T08:50:34.000Z</time>
      </trkpt>
      <trkpt lat="41.264073606580496" lon="0.8309728279709816">
        <ele>666</ele>
        <time>2020-10-29T08:50:35.000Z</time>
      </trkpt>
      <trkpt lat="41.26404116861522" lon="0.8309047669172287">
        <ele>666</ele>
        <time>2020-10-29T08:50:39.000Z</time>
      </trkpt>
      <trkpt lat="41.26403328962624" lon="0.8308895118534565">
        <ele>666</ele>
        <time>2020-10-29T08:50:40.000Z</time>
      </trkpt>
      <trkpt lat="41.264004707336426" lon="0.830821618437767">
        <ele>666.4</ele>
        <time>2020-10-29T08:50:44.000Z</time>
      </trkpt>
      <trkpt lat="41.2639438547194" lon="0.8306841552257538">
        <ele>666.8</ele>
        <time>2020-10-29T08:50:53.000Z</time>
      </trkpt>
      <trkpt lat="41.26393689773977" lon="0.8306663855910301">
        <ele>667</ele>
        <time>2020-10-29T08:50:54.000Z</time>
      </trkpt>
      <trkpt lat="41.263870261609554" lon="0.8304352127015591">
        <ele>668</ele>
        <time>2020-10-29T08:51:08.000Z</time>
      </trkpt>
      <trkpt lat="41.26385643146932" lon="0.8302945643663406">
        <ele>668.4</ele>
        <time>2020-10-29T08:51:15.000Z</time>
      </trkpt>
      <trkpt lat="41.26385391689837" lon="0.8302731066942215">
        <ele>668.4</ele>
        <time>2020-10-29T08:51:16.000Z</time>
      </trkpt>
      <trkpt lat="41.26383832655847" lon="0.8300269301980734">
        <ele>669</ele>
        <time>2020-10-29T08:51:28.000Z</time>
      </trkpt>
      <trkpt lat="41.2638420984149" lon="0.8299870323389769">
        <ele>669.2</ele>
        <time>2020-10-29T08:51:30.000Z</time>
      </trkpt>
      <trkpt lat="41.26382022164762" lon="0.829741945490241">
        <ele>669.8</ele>
        <time>2020-10-29T08:51:43.000Z</time>
      </trkpt>
      <trkpt lat="41.26381577923894" lon="0.8297041431069374">
        <ele>669.6</ele>
        <time>2020-10-29T08:51:45.000Z</time>
      </trkpt>
      <trkpt lat="41.26379926688969" lon="0.8296267781406641">
        <ele>668.6</ele>
        <time>2020-10-29T08:51:49.000Z</time>
      </trkpt>
      <trkpt lat="41.26379390247166" lon="0.8296077512204647">
        <ele>668.4</ele>
        <time>2020-10-29T08:51:50.000Z</time>
      </trkpt>
      <trkpt lat="41.26377328298986" lon="0.8295114431530237">
        <ele>667</ele>
        <time>2020-10-29T08:51:55.000Z</time>
      </trkpt>
      <trkpt lat="41.263771019876" lon="0.8294955175369978">
        <ele>667</ele>
        <time>2020-10-29T08:51:56.000Z</time>
      </trkpt>
      <trkpt lat="41.263756938278675" lon="0.8294283784925938">
        <ele>666.2</ele>
        <time>2020-10-29T08:52:00.000Z</time>
      </trkpt>
      <trkpt lat="41.26375283114612" lon="0.8294096868485212">
        <ele>665.8</ele>
        <time>2020-10-29T08:52:01.000Z</time>
      </trkpt>
      <trkpt lat="41.2637469638139" lon="0.8293746504932642">
        <ele>665.4</ele>
        <time>2020-10-29T08:52:03.000Z</time>
      </trkpt>
      <trkpt lat="41.263734977692366" lon="0.8293040748685598">
        <ele>664.6</ele>
        <time>2020-10-29T08:52:07.000Z</time>
      </trkpt>
      <trkpt lat="41.263719303533435" lon="0.8292351756244898">
        <ele>663.8</ele>
        <time>2020-10-29T08:52:11.000Z</time>
      </trkpt>
      <trkpt lat="41.2637157831341" lon="0.8292180765420198">
        <ele>663.6</ele>
        <time>2020-10-29T08:52:12.000Z</time>
      </trkpt>
      <trkpt lat="41.263660211116076" lon="0.8290105406194925">
        <ele>661</ele>
        <time>2020-10-29T08:52:24.000Z</time>
      </trkpt>
      <trkpt lat="41.2636504881084" lon="0.8289733249694109">
        <ele>660.4</ele>
        <time>2020-10-29T08:52:26.000Z</time>
      </trkpt>
      <trkpt lat="41.26364185474813" lon="0.8288994804024696">
        <ele>659.8</ele>
        <time>2020-10-29T08:52:30.000Z</time>
      </trkpt>
      <trkpt lat="41.263687536120415" lon="0.8287649508565664">
        <ele>659.2</ele>
        <time>2020-10-29T08:52:39.000Z</time>
      </trkpt>
      <trkpt lat="41.26369692385197" lon="0.828752126544714">
        <ele>659.2</ele>
        <time>2020-10-29T08:52:40.000Z</time>
      </trkpt>
      <trkpt lat="41.26381536014378" lon="0.8286639489233494">
        <ele>660.8</ele>
        <time>2020-10-29T08:52:55.000Z</time>
      </trkpt>
      <trkpt lat="41.263865400105715" lon="0.8286287449300289">
        <ele>661.8</ele>
        <time>2020-10-29T08:53:03.000Z</time>
      </trkpt>
      <trkpt lat="41.26387679949403" lon="0.8286221232265234">
        <ele>662.2</ele>
        <time>2020-10-29T08:53:04.000Z</time>
      </trkpt>
      <trkpt lat="41.26391502097249" lon="0.8286087960004807">
        <ele>663</ele>
        <time>2020-10-29T08:53:07.000Z</time>
      </trkpt>
      <trkpt lat="41.264060363173485" lon="0.8285290841013193">
        <ele>665.8</ele>
        <time>2020-10-29T08:53:19.000Z</time>
      </trkpt>
      <trkpt lat="41.26406614668667" lon="0.8285125717520714">
        <ele>665.8</ele>
        <time>2020-10-29T08:53:20.000Z</time>
      </trkpt>
      <trkpt lat="41.264034463092685" lon="0.828314172104001">
        <ele>664.4</ele>
        <time>2020-10-29T08:53:34.000Z</time>
      </trkpt>
      <trkpt lat="41.26402884721756" lon="0.8283037785440683">
        <ele>664.2</ele>
        <time>2020-10-29T08:53:35.000Z</time>
      </trkpt>
      <trkpt lat="41.26388090662658" lon="0.8281667344272137">
        <ele>660.6</ele>
        <time>2020-10-29T08:53:50.000Z</time>
      </trkpt>
      <trkpt lat="41.2637192197144" lon="0.8280821610242128">
        <ele>656.6</ele>
        <time>2020-10-29T08:54:03.000Z</time>
      </trkpt>
      <trkpt lat="41.26369893550873" lon="0.828058272600174">
        <ele>656</ele>
        <time>2020-10-29T08:54:05.000Z</time>
      </trkpt>
      <trkpt lat="41.263592317700386" lon="0.8278543408960104">
        <ele>653.6</ele>
        <time>2020-10-29T08:54:18.000Z</time>
      </trkpt>
      <trkpt lat="41.2635017093271" lon="0.8277411852031946">
        <ele>651.6</ele>
        <time>2020-10-29T08:54:28.000Z</time>
      </trkpt>
      <trkpt lat="41.26349433325231" lon="0.8277302887290716">
        <ele>651.4</ele>
        <time>2020-10-29T08:54:29.000Z</time>
      </trkpt>
      <trkpt lat="41.26345812343061" lon="0.8276178035885096">
        <ele>650.6</ele>
        <time>2020-10-29T08:54:36.000Z</time>
      </trkpt>
      <trkpt lat="41.26345661468804" lon="0.8276010397821665">
        <ele>650.6</ele>
        <time>2020-10-29T08:54:37.000Z</time>
      </trkpt>
      <trkpt lat="41.263466253876686" lon="0.8274903148412704">
        <ele>651</ele>
        <time>2020-10-29T08:54:47.000Z</time>
      </trkpt>
      <trkpt lat="41.26340540125966" lon="0.8274249359965324">
        <ele>649.6</ele>
        <time>2020-10-29T08:54:54.000Z</time>
      </trkpt>
      <trkpt lat="41.263213036581874" lon="0.8273904863744974">
        <ele>645</ele>
        <time>2020-10-29T08:55:08.000Z</time>
      </trkpt>
      <trkpt lat="41.26308395527303" lon="0.8272697031497955">
        <ele>642.2</ele>
        <time>2020-10-29T08:55:22.000Z</time>
      </trkpt>
      <trkpt lat="41.26305059529841" lon="0.827123774215579">
        <ele>642</ele>
        <time>2020-10-29T08:55:35.000Z</time>
      </trkpt>
      <trkpt lat="41.26300767995417" lon="0.8270966168493032">
        <ele>641.2</ele>
        <time>2020-10-29T08:55:40.000Z</time>
      </trkpt>
      <trkpt lat="41.26296794973314" lon="0.8270553778856993">
        <ele>640.8</ele>
        <time>2020-10-29T08:55:44.000Z</time>
      </trkpt>
      <trkpt lat="41.26296300441027" lon="0.8270187489688396">
        <ele>640.8</ele>
        <time>2020-10-29T08:55:53.000Z</time>
      </trkpt>
      <trkpt lat="41.26303802244365" lon="0.8269722294062376">
        <ele>642.2</ele>
        <time>2020-10-29T08:56:07.000Z</time>
      </trkpt>
      <trkpt lat="41.263024024665356" lon="0.8269234467297792">
        <ele>642.2</ele>
        <time>2020-10-29T08:56:10.000Z</time>
      </trkpt>
      <trkpt lat="41.26302033662796" lon="0.8269133046269417">
        <ele>642.2</ele>
        <time>2020-10-29T08:56:11.000Z</time>
      </trkpt>
      <trkpt lat="41.26302653923631" lon="0.8269299007952213">
        <ele>642.2</ele>
        <time>2020-10-29T08:56:13.000Z</time>
      </trkpt>
      <trkpt lat="41.26304271630943" lon="0.826963260769844">
        <ele>642.4</ele>
        <time>2020-10-29T08:56:15.000Z</time>
      </trkpt>
      <trkpt lat="41.263053780421615" lon="0.827013049274683">
        <ele>642.4</ele>
        <time>2020-10-29T08:56:27.000Z</time>
      </trkpt>
      <trkpt lat="41.26298177987337" lon="0.8267931919544935">
        <ele>642</ele>
        <time>2020-10-29T08:56:40.000Z</time>
      </trkpt>
      <trkpt lat="41.26297482289374" lon="0.8267752546817064">
        <ele>641.8</ele>
        <time>2020-10-29T08:56:41.000Z</time>
      </trkpt>
      <trkpt lat="41.262968787923455" lon="0.8267576526850462">
        <ele>641.8</ele>
        <time>2020-10-29T08:56:42.000Z</time>
      </trkpt>
      <trkpt lat="41.26294800080359" lon="0.8266864903271198">
        <ele>641.6</ele>
        <time>2020-10-29T08:56:46.000Z</time>
      </trkpt>
      <trkpt lat="41.262946743518114" lon="0.8266785275191069">
        <ele>641.8</ele>
        <time>2020-10-29T08:56:52.000Z</time>
      </trkpt>
      <trkpt lat="41.26303693279624" lon="0.8268895000219345">
        <ele>642.6</ele>
        <time>2020-10-29T08:57:07.000Z</time>
      </trkpt>
      <trkpt lat="41.26309309154749" lon="0.8271068427711725">
        <ele>642.8</ele>
        <time>2020-10-29T08:57:25.000Z</time>
      </trkpt>
      <trkpt lat="41.263146568089724" lon="0.8271213434636593">
        <ele>643.8</ele>
        <time>2020-10-29T08:57:34.000Z</time>
      </trkpt>
      <trkpt lat="41.26326475292444" lon="0.8270905818790197">
        <ele>647</ele>
        <time>2020-10-29T08:57:42.000Z</time>
      </trkpt>
      <trkpt lat="41.263275649398565" lon="0.827077841386199">
        <ele>647.4</ele>
        <time>2020-10-29T08:57:43.000Z</time>
      </trkpt>
      <trkpt lat="41.26335209235549" lon="0.8268941100686789">
        <ele>650.2</ele>
        <time>2020-10-29T08:57:57.000Z</time>
      </trkpt>
      <trkpt lat="41.263333316892385" lon="0.8268294855952263">
        <ele>649.8</ele>
        <time>2020-10-29T08:58:01.000Z</time>
      </trkpt>
      <trkpt lat="41.26332677900791" lon="0.8268143143504858">
        <ele>649.8</ele>
        <time>2020-10-29T08:58:02.000Z</time>
      </trkpt>
      <trkpt lat="41.26332677900791" lon="0.8268143143504858">
        <ele>649.8</ele>
        <time>2020-10-29T08:58:02.000Z</time>
      </trkpt>
      <trkpt lat="41.26331588253379" lon="0.8267773501574993">
        <ele>649.6</ele>
        <time>2020-10-29T08:58:04.000Z</time>
      </trkpt>
      <trkpt lat="41.263267267495394" lon="0.8266222011297941">
        <ele>648.8</ele>
        <time>2020-10-29T08:58:14.000Z</time>
      </trkpt>
      <trkpt lat="41.26326056197286" lon="0.8266056887805462">
        <ele>648.8</ele>
        <time>2020-10-29T08:58:15.000Z</time>
      </trkpt>
      <trkpt lat="41.26324664801359" lon="0.8263720013201237">
        <ele>648</ele>
        <time>2020-10-29T08:58:29.000Z</time>
      </trkpt>
      <trkpt lat="41.26325092278421" lon="0.8263525553047657">
        <ele>648.2</ele>
        <time>2020-10-29T08:58:30.000Z</time>
      </trkpt>
      <trkpt lat="41.263250755146146" lon="0.826244680210948">
        <ele>648.4</ele>
        <time>2020-10-29T08:58:36.000Z</time>
      </trkpt>
      <trkpt lat="41.26325092278421" lon="0.8262257371097803">
        <ele>648.4</ele>
        <time>2020-10-29T08:58:37.000Z</time>
      </trkpt>
      <trkpt lat="41.26325628720224" lon="0.8261635433882475">
        <ele>648.8</ele>
        <time>2020-10-29T08:58:40.000Z</time>
      </trkpt>
      <trkpt lat="41.263258466497064" lon="0.8261241484433413">
        <ele>648.8</ele>
        <time>2020-10-29T08:58:42.000Z</time>
      </trkpt>
      <trkpt lat="41.26325134187937" lon="0.8258764632046223">
        <ele>649.4</ele>
        <time>2020-10-29T08:58:55.000Z</time>
      </trkpt>
      <trkpt lat="41.26324891112745" lon="0.8257795684039593">
        <ele>649.4</ele>
        <time>2020-10-29T08:59:00.000Z</time>
      </trkpt>
      <trkpt lat="41.263245809823275" lon="0.8257608767598867">
        <ele>649.4</ele>
        <time>2020-10-29T08:59:01.000Z</time>
      </trkpt>
      <trkpt lat="41.26324052922428" lon="0.8255168795585632">
        <ele>649.6</ele>
        <time>2020-10-29T08:59:15.000Z</time>
      </trkpt>
      <trkpt lat="41.263249749317765" lon="0.8252744749188423">
        <ele>647.6</ele>
        <time>2020-10-29T08:59:30.000Z</time>
      </trkpt>
      <trkpt lat="41.26326282508671" lon="0.8251981995999813">
        <ele>647</ele>
        <time>2020-10-29T08:59:34.000Z</time>
      </trkpt>
      <trkpt lat="41.26326668076217" lon="0.8251780830323696">
        <ele>646.8</ele>
        <time>2020-10-29T08:59:35.000Z</time>
      </trkpt>
      <trkpt lat="41.26337698660791" lon="0.8249754086136818">
        <ele>647</ele>
        <time>2020-10-29T08:59:48.000Z</time>
      </trkpt>
      <trkpt lat="41.26338729634881" lon="0.8249641768634319">
        <ele>647</ele>
        <time>2020-10-29T08:59:49.000Z</time>
      </trkpt>
      <trkpt lat="41.263538505882025" lon="0.8248344250023365">
        <ele>650</ele>
        <time>2020-10-29T09:00:02.000Z</time>
      </trkpt>
      <trkpt lat="41.26369608566165" lon="0.8247191738337278">
        <ele>653</ele>
        <time>2020-10-29T09:00:16.000Z</time>
      </trkpt>
      <trkpt lat="41.26383597962558" lon="0.8245625160634518">
        <ele>653.8</ele>
        <time>2020-10-29T09:00:30.000Z</time>
      </trkpt>
      <trkpt lat="41.26390806399286" lon="0.8243388030678034">
        <ele>653.8</ele>
        <time>2020-10-29T09:00:44.000Z</time>
      </trkpt>
      <trkpt lat="41.263970928266644" lon="0.8241080492734909">
        <ele>653.6</ele>
        <time>2020-10-29T09:01:00.000Z</time>
      </trkpt>
      <trkpt lat="41.26400001347065" lon="0.8239626232534647">
        <ele>653.4</ele>
        <time>2020-10-29T09:01:08.000Z</time>
      </trkpt>
      <trkpt lat="41.26400638371706" lon="0.8239463623613119">
        <ele>653.6</ele>
        <time>2020-10-29T09:01:09.000Z</time>
      </trkpt>
      <trkpt lat="41.264039408415556" lon="0.8238700870424509">
        <ele>653.8</ele>
        <time>2020-10-29T09:01:14.000Z</time>
      </trkpt>
      <trkpt lat="41.264046700671315" lon="0.823855334892869">
        <ele>654.2</ele>
        <time>2020-10-29T09:01:15.000Z</time>
      </trkpt>
      <trkpt lat="41.26413596794009" lon="0.8236335497349501">
        <ele>657.2</ele>
        <time>2020-10-29T09:01:30.000Z</time>
      </trkpt>
      <trkpt lat="41.26413051970303" lon="0.8235019538551569">
        <ele>656.8</ele>
        <time>2020-10-29T09:01:45.000Z</time>
      </trkpt>
      <trkpt lat="41.264128843322396" lon="0.8235430251806974">
        <ele>656.8</ele>
        <time>2020-10-29T09:01:50.000Z</time>
      </trkpt>
      <trkpt lat="41.26401602290571" lon="0.8235565200448036">
        <ele>652.6</ele>
        <time>2020-10-29T09:02:22.000Z</time>
      </trkpt>
      <trkpt lat="41.263974364846945" lon="0.823540510609746">
        <ele>651</ele>
        <time>2020-10-29T09:02:25.000Z</time>
      </trkpt>
      <trkpt lat="41.263945112004876" lon="0.8235383313149214">
        <ele>650.2</ele>
        <time>2020-10-29T09:02:27.000Z</time>
      </trkpt>
      <trkpt lat="41.26377722248435" lon="0.8234504051506519">
        <ele>645.2</ele>
        <time>2020-10-29T09:02:41.000Z</time>
      </trkpt>
      <trkpt lat="41.26370480284095" lon="0.8234119322150946">
        <ele>643</ele>
        <time>2020-10-29T09:02:47.000Z</time>
      </trkpt>
      <trkpt lat="41.26369382254779" lon="0.8233959227800369">
        <ele>642.8</ele>
        <time>2020-10-29T09:02:48.000Z</time>
      </trkpt>
      <trkpt lat="41.26352660357952" lon="0.8233224134892225">
        <ele>637.8</ele>
        <time>2020-10-29T09:03:02.000Z</time>
      </trkpt>
      <trkpt lat="41.26351579092443" lon="0.8233208209276199">
        <ele>637.6</ele>
        <time>2020-10-29T09:03:03.000Z</time>
      </trkpt>
      <trkpt lat="41.26350162550807" lon="0.8233142830431461">
        <ele>637</ele>
        <time>2020-10-29T09:03:04.000Z</time>
      </trkpt>
      <trkpt lat="41.26345803961158" lon="0.8232775703072548">
        <ele>635.8</ele>
        <time>2020-10-29T09:03:08.000Z</time>
      </trkpt>
      <trkpt lat="41.26344974152744" lon="0.8232689369469881">
        <ele>635.6</ele>
        <time>2020-10-29T09:03:09.000Z</time>
      </trkpt>
      <trkpt lat="41.26335561275482" lon="0.8231641631573439">
        <ele>632.8</ele>
        <time>2020-10-29T09:03:19.000Z</time>
      </trkpt>
      <trkpt lat="41.26334513537586" lon="0.8231576252728701">
        <ele>632.4</ele>
        <time>2020-10-29T09:03:20.000Z</time>
      </trkpt>
      <trkpt lat="41.263295682147145" lon="0.8231315575540066">
        <ele>631</ele>
        <time>2020-10-29T09:03:25.000Z</time>
      </trkpt>
      <trkpt lat="41.263286378234625" lon="0.823117308318615">
        <ele>630.6</ele>
        <time>2020-10-29T09:03:26.000Z</time>
      </trkpt>
      <trkpt lat="41.26324673183262" lon="0.8230942580848932">
        <ele>629.4</ele>
        <time>2020-10-29T09:03:30.000Z</time>
      </trkpt>
      <trkpt lat="41.26321203075349" lon="0.8230746444314718">
        <ele>628.4</ele>
        <time>2020-10-29T09:03:34.000Z</time>
      </trkpt>
      <trkpt lat="41.26316735520959" lon="0.8230384346097708">
        <ele>627.4</ele>
        <time>2020-10-29T09:03:39.000Z</time>
      </trkpt>
      <trkpt lat="41.263152519240975" lon="0.8230317290872335">
        <ele>627</ele>
        <time>2020-10-29T09:03:41.000Z</time>
      </trkpt>
      <trkpt lat="41.26305713318288" lon="0.8229090180248022">
        <ele>627</ele>
        <time>2020-10-29T09:03:55.000Z</time>
      </trkpt>
      <trkpt lat="41.26306333579123" lon="0.8228552900254726">
        <ele>627.6</ele>
        <time>2020-10-29T09:03:59.000Z</time>
      </trkpt>
      <trkpt lat="41.26298848539591" lon="0.8227327466011047">
        <ele>628.4</ele>
        <time>2020-10-29T09:04:09.000Z</time>
      </trkpt>
      <trkpt lat="41.262978091835976" lon="0.8227246999740601">
        <ele>628.4</ele>
        <time>2020-10-29T09:04:10.000Z</time>
      </trkpt>
      <trkpt lat="41.26279762946069" lon="0.822720592841506">
        <ele>627.2</ele>
        <time>2020-10-29T09:04:24.000Z</time>
      </trkpt>
      <trkpt lat="41.26267190091312" lon="0.8227810263633728">
        <ele>623</ele>
        <time>2020-10-29T09:04:36.000Z</time>
      </trkpt>
      <trkpt lat="41.26265077851713" lon="0.8227879833430052">
        <ele>622.4</ele>
        <time>2020-10-29T09:04:38.000Z</time>
      </trkpt>
      <trkpt lat="41.26247115433216" lon="0.8228781726211309">
        <ele>616.2</ele>
        <time>2020-10-29T09:04:52.000Z</time>
      </trkpt>
      <trkpt lat="41.262282729148865" lon="0.8228640910238028">
        <ele>612.6</ele>
        <time>2020-10-29T09:05:05.000Z</time>
      </trkpt>
      <trkpt lat="41.26219077967107" lon="0.8228479977697134">
        <ele>611.8</ele>
        <time>2020-10-29T09:05:12.000Z</time>
      </trkpt>
      <trkpt lat="41.26217636279762" lon="0.8228476624935865">
        <ele>611.6</ele>
        <time>2020-10-29T09:05:13.000Z</time>
      </trkpt>
      <trkpt lat="41.26208374276757" lon="0.8228188287466764">
        <ele>610.8</ele>
        <time>2020-10-29T09:05:20.000Z</time>
      </trkpt>
      <trkpt lat="41.26205591484904" lon="0.8228112850338221">
        <ele>610.6</ele>
        <time>2020-10-29T09:05:22.000Z</time>
      </trkpt>
      <trkpt lat="41.26193471252918" lon="0.8227873127907515">
        <ele>609.4</ele>
        <time>2020-10-29T09:05:33.000Z</time>
      </trkpt>
      <trkpt lat="41.26192096620798" lon="0.8227833732962608">
        <ele>609.4</ele>
        <time>2020-10-29T09:05:34.000Z</time>
      </trkpt>
      <trkpt lat="41.26172902062535" lon="0.8227449003607035">
        <ele>607.4</ele>
        <time>2020-10-29T09:05:48.000Z</time>
      </trkpt>
      <trkpt lat="41.26165794208646" lon="0.8227277174592018">
        <ele>606.6</ele>
        <time>2020-10-29T09:05:53.000Z</time>
      </trkpt>
      <trkpt lat="41.261644531041384" lon="0.8227226044982672">
        <ele>606.6</ele>
        <time>2020-10-29T09:05:54.000Z</time>
      </trkpt>
      <trkpt lat="41.26150178723037" lon="0.8226129692047834">
        <ele>607.2</ele>
        <time>2020-10-29T09:06:09.000Z</time>
      </trkpt>
      <trkpt lat="41.261495081707835" lon="0.8225851412862539">
        <ele>608</ele>
        <time>2020-10-29T09:06:11.000Z</time>
      </trkpt>
      <trkpt lat="41.26146499067545" lon="0.822353633120656">
        <ele>613.6</ele>
        <time>2020-10-29T09:06:29.000Z</time>
      </trkpt>
      <trkpt lat="41.26141604036093" lon="0.8221183530986309">
        <ele>615</ele>
        <time>2020-10-29T09:06:45.000Z</time>
      </trkpt>
      <trkpt lat="41.261390056461096" lon="0.8218987472355366">
        <ele>614.6</ele>
        <time>2020-10-29T09:07:00.000Z</time>
      </trkpt>
      <trkpt lat="41.26138963736594" lon="0.821884498000145">
        <ele>614.6</ele>
        <time>2020-10-29T09:07:01.000Z</time>
      </trkpt>
      <trkpt lat="41.26138259656727" lon="0.821814090013504">
        <ele>614.6</ele>
        <time>2020-10-29T09:07:05.000Z</time>
      </trkpt>
      <trkpt lat="41.261370023712516" lon="0.8217626251280308">
        <ele>614</ele>
        <time>2020-10-29T09:07:08.000Z</time>
      </trkpt>
      <trkpt lat="41.261367006227374" lon="0.8217106573283672">
        <ele>614.2</ele>
        <time>2020-10-29T09:07:11.000Z</time>
      </trkpt>
      <trkpt lat="41.26135057769716" lon="0.821587024256587">
        <ele>613.8</ele>
        <time>2020-10-29T09:07:18.000Z</time>
      </trkpt>
      <trkpt lat="41.26134563237429" lon="0.8215713500976562">
        <ele>613.6</ele>
        <time>2020-10-29T09:07:19.000Z</time>
      </trkpt>
      <trkpt lat="41.261395085603" lon="0.8213363215327263">
        <ele>617.6</ele>
        <time>2020-10-29T09:07:33.000Z</time>
      </trkpt>
      <trkpt lat="41.26141897402704" lon="0.8210872951894999">
        <ele>618.6</ele>
        <time>2020-10-29T09:07:46.000Z</time>
      </trkpt>
      <trkpt lat="41.261414950713515" lon="0.8210038114339113">
        <ele>618.4</ele>
        <time>2020-10-29T09:07:51.000Z</time>
      </trkpt>
      <trkpt lat="41.261421320959926" lon="0.8209650870412588">
        <ele>618.6</ele>
        <time>2020-10-29T09:07:53.000Z</time>
      </trkpt>
      <trkpt lat="41.2614434491843" lon="0.820723520591855">
        <ele>619.4</ele>
        <time>2020-10-29T09:08:07.000Z</time>
      </trkpt>
      <trkpt lat="41.261401288211346" lon="0.8205982111394405">
        <ele>617.2</ele>
        <time>2020-10-29T09:08:16.000Z</time>
      </trkpt>
      <trkpt lat="41.26138083636761" lon="0.8205790165811777">
        <ele>616.2</ele>
        <time>2020-10-29T09:08:18.000Z</time>
      </trkpt>
      <trkpt lat="41.26126265153289" lon="0.8203987218439579">
        <ele>614</ele>
        <time>2020-10-29T09:08:32.000Z</time>
      </trkpt>
      <trkpt lat="41.261155446991324" lon="0.8202942833304405">
        <ele>611.2</ele>
        <time>2020-10-29T09:08:41.000Z</time>
      </trkpt>
      <trkpt lat="41.261143712326884" lon="0.8202813751995564">
        <ele>611</ele>
        <time>2020-10-29T09:08:42.000Z</time>
      </trkpt>
      <trkpt lat="41.26103097572923" lon="0.820090938359499">
        <ele>609.6</ele>
        <time>2020-10-29T09:08:55.000Z</time>
      </trkpt>
      <trkpt lat="41.26095939427614" lon="0.8199330233037472">
        <ele>609</ele>
        <time>2020-10-29T09:09:05.000Z</time>
      </trkpt>
      <trkpt lat="41.26095277257264" lon="0.8199196960777044">
        <ele>608.8</ele>
        <time>2020-10-29T09:09:06.000Z</time>
      </trkpt>
      <trkpt lat="41.26092712394893" lon="0.819858843460679">
        <ele>608.6</ele>
        <time>2020-10-29T09:09:10.000Z</time>
      </trkpt>
      <trkpt lat="41.26080835238099" lon="0.819679219275713">
        <ele>606.8</ele>
        <time>2020-10-29T09:09:23.000Z</time>
      </trkpt>
      <trkpt lat="41.260652700439095" lon="0.8195374812930822">
        <ele>604.2</ele>
        <time>2020-10-29T09:09:36.000Z</time>
      </trkpt>
      <trkpt lat="41.260607773438096" lon="0.8193288557231426">
        <ele>607</ele>
        <time>2020-10-29T09:09:49.000Z</time>
      </trkpt>
      <trkpt lat="41.260608276352286" lon="0.819314019754529">
        <ele>607.4</ele>
        <time>2020-10-29T09:09:50.000Z</time>
      </trkpt>
      <trkpt lat="41.26057801768184" lon="0.8191923145204782">
        <ele>608.8</ele>
        <time>2020-10-29T09:10:01.000Z</time>
      </trkpt>
      <trkpt lat="41.260567707940936" lon="0.8191182184964418">
        <ele>610</ele>
        <time>2020-10-29T09:10:07.000Z</time>
      </trkpt>
      <trkpt lat="41.26055656000972" lon="0.8190898038446903">
        <ele>610</ele>
        <time>2020-10-29T09:10:10.000Z</time>
      </trkpt>
      <trkpt lat="41.26053552143276" lon="0.8190655801445246">
        <ele>609.6</ele>
        <time>2020-10-29T09:10:14.000Z</time>
      </trkpt>
      <trkpt lat="41.26049377955496" lon="0.8189850300550461">
        <ele>609.6</ele>
        <time>2020-10-29T09:10:21.000Z</time>
      </trkpt>
      <trkpt lat="41.26048640348017" lon="0.818975642323494">
        <ele>609.4</ele>
        <time>2020-10-29T09:10:22.000Z</time>
      </trkpt>
      <trkpt lat="41.26044474542141" lon="0.8189457189291716">
        <ele>608.2</ele>
        <time>2020-10-29T09:10:26.000Z</time>
      </trkpt>
      <trkpt lat="41.26037919893861" lon="0.8188698627054691">
        <ele>606.6</ele>
        <time>2020-10-29T09:10:35.000Z</time>
      </trkpt>
      <trkpt lat="41.260285656899214" lon="0.8186642546206713">
        <ele>604.4</ele>
        <time>2020-10-29T09:10:52.000Z</time>
      </trkpt>
      <trkpt lat="41.260226145386696" lon="0.8185842912644148">
        <ele>602.6</ele>
        <time>2020-10-29T09:10:59.000Z</time>
      </trkpt>
      <trkpt lat="41.260223714634776" lon="0.8185695391148329">
        <ele>602.6</ele>
        <time>2020-10-29T09:11:00.000Z</time>
      </trkpt>
      <trkpt lat="41.260125478729606" lon="0.8183636795729399">
        <ele>600.2</ele>
        <time>2020-10-29T09:11:15.000Z</time>
      </trkpt>
      <trkpt lat="41.26007258892059" lon="0.8181335963308811">
        <ele>601.2</ele>
        <time>2020-10-29T09:11:29.000Z</time>
      </trkpt>
      <trkpt lat="41.25999128445983" lon="0.8179226238280535">
        <ele>599</ele>
        <time>2020-10-29T09:11:44.000Z</time>
      </trkpt>
      <trkpt lat="41.25998122617602" lon="0.8177921175956726">
        <ele>599.2</ele>
        <time>2020-10-29T09:11:51.000Z</time>
      </trkpt>
      <trkpt lat="41.259978376328945" lon="0.8177740126848221">
        <ele>599.2</ele>
        <time>2020-10-29T09:11:52.000Z</time>
      </trkpt>
      <trkpt lat="41.259893383830786" lon="0.8175626210868359">
        <ele>596</ele>
        <time>2020-10-29T09:12:05.000Z</time>
      </trkpt>
      <trkpt lat="41.25988475047052" lon="0.817321389913559">
        <ele>597</ele>
        <time>2020-10-29T09:12:20.000Z</time>
      </trkpt>
      <trkpt lat="41.25986664555967" lon="0.8172776363790035">
        <ele>596.4</ele>
        <time>2020-10-29T09:12:23.000Z</time>
      </trkpt>
      <trkpt lat="41.2598598562181" lon="0.8172631356865168">
        <ele>596.2</ele>
        <time>2020-10-29T09:12:24.000Z</time>
      </trkpt>
      <trkpt lat="41.259747203439474" lon="0.8170638978481293">
        <ele>592.2</ele>
        <time>2020-10-29T09:12:38.000Z</time>
      </trkpt>
      <trkpt lat="41.259654834866524" lon="0.8168619778007269">
        <ele>589.8</ele>
        <time>2020-10-29T09:12:53.000Z</time>
      </trkpt>
      <trkpt lat="41.25962440855801" lon="0.8167631551623344">
        <ele>589.4</ele>
        <time>2020-10-29T09:12:59.000Z</time>
      </trkpt>
      <trkpt lat="41.259616361930966" lon="0.8167415298521519">
        <ele>589.2</ele>
        <time>2020-10-29T09:13:00.000Z</time>
      </trkpt>
      <trkpt lat="41.2595403380692" lon="0.8165240194648504">
        <ele>587.6</ele>
        <time>2020-10-29T09:13:14.000Z</time>
      </trkpt>
      <trkpt lat="41.259536650031805" lon="0.8165146317332983">
        <ele>587.4</ele>
        <time>2020-10-29T09:13:15.000Z</time>
      </trkpt>
      <trkpt lat="41.25953120179474" lon="0.8165079262107611">
        <ele>587.2</ele>
        <time>2020-10-29T09:13:16.000Z</time>
      </trkpt>
      <trkpt lat="41.25951552763581" lon="0.8164913300424814">
        <ele>586.8</ele>
        <time>2020-10-29T09:13:21.000Z</time>
      </trkpt>
      <trkpt lat="41.25945291481912" lon="0.8166027255356312">
        <ele>584.2</ele>
        <time>2020-10-29T09:13:50.000Z</time>
      </trkpt>
      <trkpt lat="41.25944503583014" lon="0.8166202437132597">
        <ele>583.8</ele>
        <time>2020-10-29T09:13:51.000Z</time>
      </trkpt>
      <trkpt lat="41.25935166142881" lon="0.8167440444231033">
        <ele>580</ele>
        <time>2020-10-29T09:14:03.000Z</time>
      </trkpt>
      <trkpt lat="41.25932685099542" lon="0.8167425356805325">
        <ele>579</ele>
        <time>2020-10-29T09:14:05.000Z</time>
      </trkpt>
      <trkpt lat="41.259192656725645" lon="0.8166974410414696">
        <ele>574.4</ele>
        <time>2020-10-29T09:14:16.000Z</time>
      </trkpt>
      <trkpt lat="41.259180000051856" lon="0.8166950102895498">
        <ele>574</ele>
        <time>2020-10-29T09:14:17.000Z</time>
      </trkpt>
      <trkpt lat="41.25901412218809" lon="0.8166038151830435">
        <ele>568.4</ele>
        <time>2020-10-29T09:14:28.000Z</time>
      </trkpt>
      <trkpt lat="41.25892225652933" lon="0.8164415415376425">
        <ele>567.6</ele>
        <time>2020-10-29T09:14:35.000Z</time>
      </trkpt>
      <trkpt lat="41.25891094096005" lon="0.8164196647703648">
        <ele>567.6</ele>
        <time>2020-10-29T09:14:36.000Z</time>
      </trkpt>
      <trkpt lat="41.2587995454669" lon="0.8162061776965857">
        <ele>565</ele>
        <time>2020-10-29T09:14:46.000Z</time>
      </trkpt>
      <trkpt lat="41.258723102509975" lon="0.8160324208438396">
        <ele>562.8</ele>
        <time>2020-10-29T09:14:54.000Z</time>
      </trkpt>
      <trkpt lat="41.258713295683265" lon="0.8160076104104519">
        <ele>562.4</ele>
        <time>2020-10-29T09:14:55.000Z</time>
      </trkpt>
      <trkpt lat="41.258683037012815" lon="0.8159378729760647">
        <ele>561.6</ele>
        <time>2020-10-29T09:14:58.000Z</time>
      </trkpt>
      <trkpt lat="41.25865881331265" lon="0.8157830592244864">
        <ele>560</ele>
        <time>2020-10-29T09:15:05.000Z</time>
      </trkpt>
      <trkpt lat="41.25865822657943" lon="0.8157391380518675">
        <ele>559.6</ele>
        <time>2020-10-29T09:15:07.000Z</time>
      </trkpt>
      <trkpt lat="41.25863919965923" lon="0.8155931252986193">
        <ele>558.2</ele>
        <time>2020-10-29T09:15:13.000Z</time>
      </trkpt>
      <trkpt lat="41.25862771645188" lon="0.8155435882508755">
        <ele>557.6</ele>
        <time>2020-10-29T09:15:15.000Z</time>
      </trkpt>
      <trkpt lat="41.25858454965055" lon="0.8153837453573942">
        <ele>555.2</ele>
        <time>2020-10-29T09:15:22.000Z</time>
      </trkpt>
      <trkpt lat="41.258580861613154" lon="0.8153604436665773">
        <ele>554.8</ele>
        <time>2020-10-29T09:15:23.000Z</time>
      </trkpt>
      <trkpt lat="41.25852428376675" lon="0.8151257503777742">
        <ele>551.2</ele>
        <time>2020-10-29T09:15:32.000Z</time>
      </trkpt>
      <trkpt lat="41.25858320854604" lon="0.8148786518722773">
        <ele>549.6</ele>
        <time>2020-10-29T09:15:42.000Z</time>
      </trkpt>
      <trkpt lat="41.25859276391566" lon="0.8146285358816385">
        <ele>547</ele>
        <time>2020-10-29T09:15:50.000Z</time>
      </trkpt>
      <trkpt lat="41.25858656130731" lon="0.8144334889948368">
        <ele>544.6</ele>
        <time>2020-10-29T09:15:56.000Z</time>
      </trkpt>
      <trkpt lat="41.258589662611485" lon="0.814397782087326">
        <ele>544.2</ele>
        <time>2020-10-29T09:15:57.000Z</time>
      </trkpt>
      <trkpt lat="41.258583376184106" lon="0.814267611131072">
        <ele>543.4</ele>
        <time>2020-10-29T09:16:01.000Z</time>
      </trkpt>
      <trkpt lat="41.25856493599713" lon="0.8140192553400993">
        <ele>542.6</ele>
        <time>2020-10-29T09:16:08.000Z</time>
      </trkpt>
      <trkpt lat="41.25846577808261" lon="0.813799062743783">
        <ele>539.4</ele>
        <time>2020-10-29T09:16:16.000Z</time>
      </trkpt>
      <trkpt lat="41.258406518027186" lon="0.8135707397013903">
        <ele>536</ele>
        <time>2020-10-29T09:16:26.000Z</time>
      </trkpt>
      <trkpt lat="41.25846871174872" lon="0.8133342862129211">
        <ele>535.6</ele>
        <time>2020-10-29T09:16:37.000Z</time>
      </trkpt>
      <trkpt lat="41.25849042087793" lon="0.8132321946322918">
        <ele>535</ele>
        <time>2020-10-29T09:16:43.000Z</time>
      </trkpt>
      <trkpt lat="41.25850534066558" lon="0.8132179453969002">
        <ele>535.2</ele>
        <time>2020-10-29T09:16:45.000Z</time>
      </trkpt>
      <trkpt lat="41.25852453522384" lon="0.8131180331110954">
        <ele>534.8</ele>
        <time>2020-10-29T09:16:52.000Z</time>
      </trkpt>
      <trkpt lat="41.25852872617543" lon="0.8131051249802113">
        <ele>534.6</ele>
        <time>2020-10-29T09:16:53.000Z</time>
      </trkpt>
      <trkpt lat="41.25859033316374" lon="0.8128851838409901">
        <ele>533.6</ele>
        <time>2020-10-29T09:17:10.000Z</time>
      </trkpt>
      <trkpt lat="41.25859779305756" lon="0.8128846809267998">
        <ele>533.8</ele>
        <time>2020-10-29T09:17:14.000Z</time>
      </trkpt>
      <trkpt lat="41.25860030762851" lon="0.8127912227064371">
        <ele>532.6</ele>
        <time>2020-10-29T09:17:32.000Z</time>
      </trkpt>
      <trkpt lat="41.258588153868914" lon="0.8125441242009401">
        <ele>527</ele>
        <time>2020-10-29T09:17:46.000Z</time>
      </trkpt>
      <trkpt lat="41.25854440033436" lon="0.8123943395912647">
        <ele>522.2</ele>
        <time>2020-10-29T09:17:54.000Z</time>
      </trkpt>
      <trkpt lat="41.25853677280247" lon="0.8123813476413488">
        <ele>521.8</ele>
        <time>2020-10-29T09:17:55.000Z</time>
      </trkpt>
      <trkpt lat="41.258490923792124" lon="0.8123339060693979">
        <ele>520.2</ele>
        <time>2020-10-29T09:17:59.000Z</time>
      </trkpt>
      <trkpt lat="41.25838036648929" lon="0.8121433854103088">
        <ele>514.4</ele>
        <time>2020-10-29T09:18:11.000Z</time>
      </trkpt>
      <trkpt lat="41.25835253857076" lon="0.8120940160006285">
        <ele>513</ele>
        <time>2020-10-29T09:18:14.000Z</time>
      </trkpt>
      <trkpt lat="41.2583418097347" lon="0.8120774198323488">
        <ele>512.6</ele>
        <time>2020-10-29T09:18:15.000Z</time>
      </trkpt>
      <trkpt lat="41.258312137797475" lon="0.812006089836359">
        <ele>510.8</ele>
        <time>2020-10-29T09:18:19.000Z</time>
      </trkpt>
      <trkpt lat="41.258301828056574" lon="0.8119885716587305">
        <ele>510.4</ele>
        <time>2020-10-29T09:18:20.000Z</time>
      </trkpt>
      <trkpt lat="41.25823812559247" lon="0.8118628431111574">
        <ele>507</ele>
        <time>2020-10-29T09:18:28.000Z</time>
      </trkpt>
      <trkpt lat="41.25822085887194" lon="0.8118113782256842">
        <ele>505.6</ele>
        <time>2020-10-29T09:18:31.000Z</time>
      </trkpt>
      <trkpt lat="41.25820049084723" lon="0.8117317501455545">
        <ele>503.6</ele>
        <time>2020-10-29T09:18:35.000Z</time>
      </trkpt>
      <trkpt lat="41.25817811116576" lon="0.8116306643933058">
        <ele>501.2</ele>
        <time>2020-10-29T09:18:40.000Z</time>
      </trkpt>
      <trkpt lat="41.25817216001451" lon="0.8116169180721045">
        <ele>500.8</ele>
        <time>2020-10-29T09:18:41.000Z</time>
      </trkpt>
      <trkpt lat="41.25815195962787" lon="0.811421787366271">
        <ele>496</ele>
        <time>2020-10-29T09:18:52.000Z</time>
      </trkpt>
      <trkpt lat="41.258173417299986" lon="0.811395300552249">
        <ele>495.2</ele>
        <time>2020-10-29T09:18:54.000Z</time>
      </trkpt>
      <trkpt lat="41.25834273174405" lon="0.811381135135889">
        <ele>493.8</ele>
        <time>2020-10-29T09:19:06.000Z</time>
      </trkpt>
      <trkpt lat="41.25846385024488" lon="0.8115527965128422">
        <ele>499</ele>
        <time>2020-10-29T09:19:20.000Z</time>
      </trkpt>
      <trkpt lat="41.25846938230097" lon="0.8115585800260305">
        <ele>499.2</ele>
        <time>2020-10-29T09:19:21.000Z</time>
      </trkpt>
      <trkpt lat="41.258468544110656" lon="0.8115542214363813">
        <ele>499</ele>
        <time>2020-10-29T09:19:25.000Z</time>
      </trkpt>
      <trkpt lat="41.258493941277266" lon="0.8116336818784475">
        <ele>501.6</ele>
        <time>2020-10-29T09:19:33.000Z</time>
      </trkpt>
      <trkpt lat="41.25861774198711" lon="0.8117742463946342">
        <ele>505.8</ele>
        <time>2020-10-29T09:19:45.000Z</time>
      </trkpt>
      <trkpt lat="41.258630733937025" lon="0.8117844723165035">
        <ele>506</ele>
        <time>2020-10-29T09:19:46.000Z</time>
      </trkpt>
      <trkpt lat="41.258657053112984" lon="0.811799056828022">
        <ele>506.4</ele>
        <time>2020-10-29T09:19:48.000Z</time>
      </trkpt>
      <trkpt lat="41.25879761762917" lon="0.8118444867432117">
        <ele>507.2</ele>
        <time>2020-10-29T09:19:59.000Z</time>
      </trkpt>
      <trkpt lat="41.25881178304553" lon="0.8118520304560661">
        <ele>507.4</ele>
        <time>2020-10-29T09:20:00.000Z</time>
      </trkpt>
      <trkpt lat="41.25884564593434" lon="0.8118760026991367">
        <ele>508</ele>
        <time>2020-10-29T09:20:02.000Z</time>
      </trkpt>
      <trkpt lat="41.25889987684786" lon="0.8119469974189997">
        <ele>510.2</ele>
        <time>2020-10-29T09:20:07.000Z</time>
      </trkpt>
      <trkpt lat="41.258910270407796" lon="0.8119598217308521">
        <ele>510.6</ele>
        <time>2020-10-29T09:20:08.000Z</time>
      </trkpt>
      <trkpt lat="41.25906500034034" lon="0.8119005616754293">
        <ele>512.4</ele>
        <time>2020-10-29T09:20:23.000Z</time>
      </trkpt>
      <trkpt lat="41.25909081660211" lon="0.8118108753114939">
        <ele>510.4</ele>
        <time>2020-10-29T09:20:28.000Z</time>
      </trkpt>
      <trkpt lat="41.25909416936338" lon="0.8117905911058187">
        <ele>509.8</ele>
        <time>2020-10-29T09:20:29.000Z</time>
      </trkpt>
      <trkpt lat="41.25909626483917" lon="0.8115444146096706">
        <ele>501.6</ele>
        <time>2020-10-29T09:20:43.000Z</time>
      </trkpt>
      <trkpt lat="41.25909911468625" lon="0.8115302491933107">
        <ele>501.2</ele>
        <time>2020-10-29T09:20:44.000Z</time>
      </trkpt>
      <trkpt lat="41.259116884320974" lon="0.8114467654377222">
        <ele>498.6</ele>
        <time>2020-10-29T09:20:49.000Z</time>
      </trkpt>
      <trkpt lat="41.25912493094802" lon="0.811386164277792">
        <ele>496.4</ele>
        <time>2020-10-29T09:20:52.000Z</time>
      </trkpt>
      <trkpt lat="41.25916759483516" lon="0.8112620282918215">
        <ele>496</ele>
        <time>2020-10-29T09:21:00.000Z</time>
      </trkpt>
      <trkpt lat="41.259177569299936" lon="0.8112455159425735">
        <ele>496.2</ele>
        <time>2020-10-29T09:21:01.000Z</time>
      </trkpt>
      <trkpt lat="41.25924713909626" lon="0.8110257424414158">
        <ele>495.6</ele>
        <time>2020-10-29T09:21:14.000Z</time>
      </trkpt>
      <trkpt lat="41.25927018932998" lon="0.8109014388173819">
        <ele>494.6</ele>
        <time>2020-10-29T09:21:21.000Z</time>
      </trkpt>
      <trkpt lat="41.25927555374801" lon="0.8108862675726414">
        <ele>494.6</ele>
        <time>2020-10-29T09:21:22.000Z</time>
      </trkpt>
      <trkpt lat="41.25922123901546" lon="0.8107294421643019">
        <ele>489.2</ele>
        <time>2020-10-29T09:21:34.000Z</time>
      </trkpt>
      <trkpt lat="41.25921545550227" lon="0.8107216469943523">
        <ele>488.8</ele>
        <time>2020-10-29T09:21:35.000Z</time>
      </trkpt>
      <trkpt lat="41.259205313399434" lon="0.8107086550444365">
        <ele>488.4</ele>
        <time>2020-10-29T09:21:38.000Z</time>
      </trkpt>
      <trkpt lat="41.2591758929193" lon="0.8106490597128868">
        <ele>486</ele>
        <time>2020-10-29T09:21:42.000Z</time>
      </trkpt>
      <trkpt lat="41.25911872833967" lon="0.810513524338603">
        <ele>482.6</ele>
        <time>2020-10-29T09:21:50.000Z</time>
      </trkpt>
      <trkpt lat="41.259105736389756" lon="0.8104998618364334">
        <ele>482.6</ele>
        <time>2020-10-29T09:21:51.000Z</time>
      </trkpt>
      <trkpt lat="41.25897003337741" lon="0.8103402704000473">
        <ele>483.2</ele>
        <time>2020-10-29T09:22:05.000Z</time>
      </trkpt>
      <trkpt lat="41.25896240584552" lon="0.810324177145958">
        <ele>483.4</ele>
        <time>2020-10-29T09:22:06.000Z</time>
      </trkpt>
      <trkpt lat="41.25891488045454" lon="0.8101885579526424">
        <ele>484.2</ele>
        <time>2020-10-29T09:22:14.000Z</time>
      </trkpt>
      <trkpt lat="41.258907252922654" lon="0.810175146907568">
        <ele>484.2</ele>
        <time>2020-10-29T09:22:15.000Z</time>
      </trkpt>
      <trkpt lat="41.25888898037374" lon="0.8101310580968857">
        <ele>484.6</ele>
        <time>2020-10-29T09:22:18.000Z</time>
      </trkpt>
      <trkpt lat="41.25876098871231" lon="0.8099449798464775">
        <ele>484.4</ele>
        <time>2020-10-29T09:22:32.000Z</time>
      </trkpt>
      <trkpt lat="41.258747577667236" lon="0.8099340833723545">
        <ele>484.4</ele>
        <time>2020-10-29T09:22:33.000Z</time>
      </trkpt>
      <trkpt lat="41.25873458571732" lon="0.8099244441837072">
        <ele>484.2</ele>
        <time>2020-10-29T09:22:34.000Z</time>
      </trkpt>
      <trkpt lat="41.25867825932801" lon="0.8098676986992359">
        <ele>483.8</ele>
        <time>2020-10-29T09:22:39.000Z</time>
      </trkpt>
      <trkpt lat="41.25863936729729" lon="0.8098329976201057">
        <ele>483.4</ele>
        <time>2020-10-29T09:22:42.000Z</time>
      </trkpt>
      <trkpt lat="41.25861086882651" lon="0.8098129648715258">
        <ele>483</ele>
        <time>2020-10-29T09:22:44.000Z</time>
      </trkpt>
      <trkpt lat="41.25850835815072" lon="0.8097158186137676">
        <ele>482.2</ele>
        <time>2020-10-29T09:22:52.000Z</time>
      </trkpt>
      <trkpt lat="41.258495450019836" lon="0.8097055926918983">
        <ele>482.2</ele>
        <time>2020-10-29T09:22:53.000Z</time>
      </trkpt>
      <trkpt lat="41.258456725627184" lon="0.8096760883927345">
        <ele>482</ele>
        <time>2020-10-29T09:22:56.000Z</time>
      </trkpt>
      <trkpt lat="41.25827433541417" lon="0.8096045907586813">
        <ele>479.6</ele>
        <time>2020-10-29T09:23:08.000Z</time>
      </trkpt>
      <trkpt lat="41.25817350111902" lon="0.8095879945904016">
        <ele>477.6</ele>
        <time>2020-10-29T09:23:15.000Z</time>
      </trkpt>
      <trkpt lat="41.258158665150404" lon="0.809581708163023">
        <ele>477.4</ele>
        <time>2020-10-29T09:23:16.000Z</time>
      </trkpt>
      <trkpt lat="41.25801860354841" lon="0.8094403892755508">
        <ele>477.4</ele>
        <time>2020-10-29T09:23:30.000Z</time>
      </trkpt>
      <trkpt lat="41.25801868736744" lon="0.8094392996281385">
        <ele>477.4</ele>
        <time>2020-10-29T09:23:32.000Z</time>
      </trkpt>
      <trkpt lat="41.25800812616944" lon="0.8093708194792271">
        <ele>478.6</ele>
        <time>2020-10-29T09:23:40.000Z</time>
      </trkpt>
      <trkpt lat="41.25796160660684" lon="0.8092655427753925">
        <ele>479.8</ele>
        <time>2020-10-29T09:23:47.000Z</time>
      </trkpt>
      <trkpt lat="41.25795230269432" lon="0.809250958263874">
        <ele>480</ele>
        <time>2020-10-29T09:23:48.000Z</time>
      </trkpt>
      <trkpt lat="41.25790636986494" lon="0.8091409038752317">
        <ele>481.2</ele>
        <time>2020-10-29T09:23:55.000Z</time>
      </trkpt>
      <trkpt lat="41.257901759818196" lon="0.8091231342405081">
        <ele>481.6</ele>
        <time>2020-10-29T09:23:56.000Z</time>
      </trkpt>
      <trkpt lat="41.257873345166445" lon="0.8089418336749077">
        <ele>484.6</ele>
        <time>2020-10-29T09:24:08.000Z</time>
      </trkpt>
      <trkpt lat="41.257734037935734" lon="0.8088001795113087">
        <ele>484.6</ele>
        <time>2020-10-29T09:24:21.000Z</time>
      </trkpt>
      <trkpt lat="41.257631527259946" lon="0.8087923843413591">
        <ele>482.6</ele>
        <time>2020-10-29T09:24:28.000Z</time>
      </trkpt>
      <trkpt lat="41.25761669129133" lon="0.8087943959981203">
        <ele>482.2</ele>
        <time>2020-10-29T09:24:29.000Z</time>
      </trkpt>
      <trkpt lat="41.25756120309234" lon="0.8087917137891054">
        <ele>481.2</ele>
        <time>2020-10-29T09:24:33.000Z</time>
      </trkpt>
      <trkpt lat="41.257396917790174" lon="0.8088032808154821">
        <ele>477.6</ele>
        <time>2020-10-29T09:24:46.000Z</time>
      </trkpt>
      <trkpt lat="41.25737487338483" lon="0.808804789558053">
        <ele>477.2</ele>
        <time>2020-10-29T09:24:48.000Z</time>
      </trkpt>
      <trkpt lat="41.25722726806998" lon="0.8087862655520439">
        <ele>475.8</ele>
        <time>2020-10-29T09:24:59.000Z</time>
      </trkpt>
      <trkpt lat="41.25718946568668" lon="0.8087741956114769">
        <ele>476</ele>
        <time>2020-10-29T09:25:02.000Z</time>
      </trkpt>
      <trkpt lat="41.257141353562474" lon="0.8087457809597254">
        <ele>476.6</ele>
        <time>2020-10-29T09:25:06.000Z</time>
      </trkpt>
      <trkpt lat="41.25701302662492" lon="0.8086379058659077">
        <ele>478.8</ele>
        <time>2020-10-29T09:25:19.000Z</time>
      </trkpt>
      <trkpt lat="41.257004057988524" lon="0.8086222317069769">
        <ele>479</ele>
        <time>2020-10-29T09:25:20.000Z</time>
      </trkpt>
      <trkpt lat="41.25700036995113" lon="0.8084208145737648">
        <ele>482.4</ele>
        <time>2020-10-29T09:25:34.000Z</time>
      </trkpt>
      <trkpt lat="41.25700917094946" lon="0.8084058947861195">
        <ele>482.6</ele>
        <time>2020-10-29T09:25:35.000Z</time>
      </trkpt>
      <trkpt lat="41.25705091282725" lon="0.8083541784435511">
        <ele>483.6</ele>
        <time>2020-10-29T09:25:42.000Z</time>
      </trkpt>
      <trkpt lat="41.25708888284862" lon="0.8082913979887962">
        <ele>484.6</ele>
        <time>2020-10-29T09:25:47.000Z</time>
      </trkpt>
      <trkpt lat="41.25717437826097" lon="0.808227863162756">
        <ele>485.8</ele>
        <time>2020-10-29T09:25:54.000Z</time>
      </trkpt>
      <trkpt lat="41.25718745402992" lon="0.8082193974405527">
        <ele>486</ele>
        <time>2020-10-29T09:25:55.000Z</time>
      </trkpt>
      <trkpt lat="41.257232213392854" lon="0.8081881329417229">
        <ele>486.6</ele>
        <time>2020-10-29T09:25:59.000Z</time>
      </trkpt>
      <trkpt lat="41.25724411569536" lon="0.8081815112382174">
        <ele>486.6</ele>
        <time>2020-10-29T09:26:00.000Z</time>
      </trkpt>
      <trkpt lat="41.25730010680854" lon="0.80816600471735">
        <ele>487</ele>
        <time>2020-10-29T09:26:04.000Z</time>
      </trkpt>
      <trkpt lat="41.257373532280326" lon="0.808141278102994">
        <ele>489</ele>
        <time>2020-10-29T09:26:10.000Z</time>
      </trkpt>
      <trkpt lat="41.25738551840186" lon="0.8081385120749474">
        <ele>489.2</ele>
        <time>2020-10-29T09:26:11.000Z</time>
      </trkpt>
      <trkpt lat="41.257551815360785" lon="0.8081478998064995">
        <ele>492</ele>
        <time>2020-10-29T09:26:23.000Z</time>
      </trkpt>
      <trkpt lat="41.257566567510366" lon="0.8081485703587532">
        <ele>492.2</ele>
        <time>2020-10-29T09:26:24.000Z</time>
      </trkpt>
      <trkpt lat="41.25759406015277" lon="0.8081473968923092">
        <ele>492.6</ele>
        <time>2020-10-29T09:26:26.000Z</time>
      </trkpt>
      <trkpt lat="41.257641753181815" lon="0.8081499952822924">
        <ele>493.4</ele>
        <time>2020-10-29T09:26:30.000Z</time>
      </trkpt>
      <trkpt lat="41.25781953334808" lon="0.8081442955881357">
        <ele>496.6</ele>
        <time>2020-10-29T09:26:43.000Z</time>
      </trkpt>
      <trkpt lat="41.257992032915354" lon="0.8080801740288734">
        <ele>500.4</ele>
        <time>2020-10-29T09:26:57.000Z</time>
      </trkpt>
      <trkpt lat="41.258185654878616" lon="0.8080816827714443">
        <ele>504.6</ele>
        <time>2020-10-29T09:27:11.000Z</time>
      </trkpt>
      <trkpt lat="41.258375169709325" lon="0.8080997038632631">
        <ele>511.2</ele>
        <time>2020-10-29T09:27:25.000Z</time>
      </trkpt>
      <trkpt lat="41.25843828544021" lon="0.8081285376101732">
        <ele>513</ele>
        <time>2020-10-29T09:27:30.000Z</time>
      </trkpt>
      <trkpt lat="41.258450858294964" lon="0.8081357460469007">
        <ele>513.4</ele>
        <time>2020-10-29T09:27:31.000Z</time>
      </trkpt>
      <trkpt lat="41.25855538062751" lon="0.8083359897136688">
        <ele>513.2</ele>
        <time>2020-10-29T09:27:45.000Z</time>
      </trkpt>
      <trkpt lat="41.258554961532354" lon="0.8083858620375395">
        <ele>512.2</ele>
        <time>2020-10-29T09:27:48.000Z</time>
      </trkpt>
      <trkpt lat="41.2585524469614" lon="0.8084021229296923">
        <ele>511.6</ele>
        <time>2020-10-29T09:27:49.000Z</time>
      </trkpt>
      <trkpt lat="41.25855538062751" lon="0.8086507301777601">
        <ele>507.8</ele>
        <time>2020-10-29T09:28:03.000Z</time>
      </trkpt>
      <trkpt lat="41.25855630263686" lon="0.8088063821196556">
        <ele>505.6</ele>
        <time>2020-10-29T09:28:16.000Z</time>
      </trkpt>
      <trkpt lat="41.258595529943705" lon="0.8088715095072985">
        <ele>505.8</ele>
        <time>2020-10-29T09:28:25.000Z</time>
      </trkpt>
      <trkpt lat="41.258749505504966" lon="0.8089943882077932">
        <ele>507.2</ele>
        <time>2020-10-29T09:28:40.000Z</time>
      </trkpt>
      <trkpt lat="41.25892988406122" lon="0.8090578392148018">
        <ele>510.8</ele>
        <time>2020-10-29T09:28:55.000Z</time>
      </trkpt>
      <trkpt lat="41.25901311635971" lon="0.8091031014919281">
        <ele>511.2</ele>
        <time>2020-10-29T09:29:01.000Z</time>
      </trkpt>
      <trkpt lat="41.25903474166989" lon="0.809117266908288">
        <ele>511.2</ele>
        <time>2020-10-29T09:29:03.000Z</time>
      </trkpt>
      <trkpt lat="41.25917379744351" lon="0.8090650476515293">
        <ele>515.2</ele>
        <time>2020-10-29T09:29:19.000Z</time>
      </trkpt>
      <trkpt lat="41.259352499619126" lon="0.8090586774051189">
        <ele>520</ele>
        <time>2020-10-29T09:29:35.000Z</time>
      </trkpt>
      <trkpt lat="41.25943346880376" lon="0.809086924418807">
        <ele>521</ele>
        <time>2020-10-29T09:29:44.000Z</time>
      </trkpt>
      <trkpt lat="41.25957269221544" lon="0.8092617709189653">
        <ele>517.6</ele>
        <time>2020-10-29T09:30:00.000Z</time>
      </trkpt>
      <trkpt lat="41.259694900363684" lon="0.8094089571386576">
        <ele>514.8</ele>
        <time>2020-10-29T09:30:13.000Z</time>
      </trkpt>
      <trkpt lat="41.25971962697804" lon="0.8094258885830641">
        <ele>514.8</ele>
        <time>2020-10-29T09:30:15.000Z</time>
      </trkpt>
      <trkpt lat="41.259898245334625" lon="0.8094843942672014">
        <ele>516.6</ele>
        <time>2020-10-29T09:30:29.000Z</time>
      </trkpt>
      <trkpt lat="41.25991459004581" lon="0.8094677980989218">
        <ele>517.6</ele>
        <time>2020-10-29T09:30:34.000Z</time>
      </trkpt>
      <trkpt lat="41.260112235322595" lon="0.8094631880521774">
        <ele>522</ele>
        <time>2020-10-29T09:32:43.000Z</time>
      </trkpt>
      <trkpt lat="41.26017258502543" lon="0.8094312530010939">
        <ele>524.6</ele>
        <time>2020-10-29T09:32:47.000Z</time>
      </trkpt>
      <trkpt lat="41.26018490642309" lon="0.8094219490885735">
        <ele>525.2</ele>
        <time>2020-10-29T09:32:48.000Z</time>
      </trkpt>
      <trkpt lat="41.26023327000439" lon="0.8093823865056038">
        <ele>527.8</ele>
        <time>2020-10-29T09:32:52.000Z</time>
      </trkpt>
      <trkpt lat="41.26024533994496" lon="0.8093759324401617">
        <ele>528.4</ele>
        <time>2020-10-29T09:32:53.000Z</time>
      </trkpt>
      <trkpt lat="41.26028758473694" lon="0.8093496970832348">
        <ele>529.8</ele>
        <time>2020-10-29T09:32:56.000Z</time>
      </trkpt>
      <trkpt lat="41.260332092642784" lon="0.8093017525970936">
        <ele>531</ele>
        <time>2020-10-29T09:33:00.000Z</time>
      </trkpt>
      <trkpt lat="41.26050442457199" lon="0.8092381339520216">
        <ele>533</ele>
        <time>2020-10-29T09:33:14.000Z</time>
      </trkpt>
      <trkpt lat="41.26058413647115" lon="0.8091813046485186">
        <ele>534.4</ele>
        <time>2020-10-29T09:33:24.000Z</time>
      </trkpt>
      <trkpt lat="41.260634595528245" lon="0.8091799635440111">
        <ele>535</ele>
        <time>2020-10-29T09:34:20.000Z</time>
      </trkpt>
      <trkpt lat="41.260670721530914" lon="0.8091652113944292">
        <ele>537.4</ele>
        <time>2020-10-29T09:34:23.000Z</time>
      </trkpt>
      <trkpt lat="41.26071514561772" lon="0.8091598469763994">
        <ele>540.2</ele>
        <time>2020-10-29T09:34:26.000Z</time>
      </trkpt>
      <trkpt lat="41.26076971180737" lon="0.8091475255787373">
        <ele>543.6</ele>
        <time>2020-10-29T09:34:30.000Z</time>
      </trkpt>
      <trkpt lat="41.26081941649318" lon="0.8091271575540304">
        <ele>546.8</ele>
        <time>2020-10-29T09:34:34.000Z</time>
      </trkpt>
      <trkpt lat="41.260830480605364" lon="0.8091210387647152">
        <ele>547.6</ele>
        <time>2020-10-29T09:34:35.000Z</time>
      </trkpt>
      <trkpt lat="41.26085671596229" lon="0.8091013412922621">
        <ele>549.2</ele>
        <time>2020-10-29T09:34:42.000Z</time>
      </trkpt>
      <trkpt lat="41.26089761964977" lon="0.8090366329997778">
        <ele>550.2</ele>
        <time>2020-10-29T09:35:02.000Z</time>
      </trkpt>
      <trkpt lat="41.26108520664275" lon="0.8090576715767384">
        <ele>556.2</ele>
        <time>2020-10-29T09:35:14.000Z</time>
      </trkpt>
      <trkpt lat="41.26125309616327" lon="0.8091769460588694">
        <ele>562</ele>
        <time>2020-10-29T09:35:26.000Z</time>
      </trkpt>
      <trkpt lat="41.261344626545906" lon="0.8093629404902458">
        <ele>565.6</ele>
        <time>2020-10-29T09:35:41.000Z</time>
      </trkpt>
      <trkpt lat="41.26134580001235" lon="0.8096106257289648">
        <ele>566.8</ele>
        <time>2020-10-29T09:35:56.000Z</time>
      </trkpt>
      <trkpt lat="41.26134387217462" lon="0.8096252102404833">
        <ele>566.2</ele>
        <time>2020-10-29T09:35:57.000Z</time>
      </trkpt>
      <trkpt lat="41.26133834011853" lon="0.8096576482057571">
        <ele>565.2</ele>
        <time>2020-10-29T09:35:59.000Z</time>
      </trkpt>
      <trkpt lat="41.26132040284574" lon="0.8097139745950699">
        <ele>563</ele>
        <time>2020-10-29T09:36:02.000Z</time>
      </trkpt>
      <trkpt lat="41.261284947395325" lon="0.8099490031599998">
        <ele>559</ele>
        <time>2020-10-29T09:36:16.000Z</time>
      </trkpt>
      <trkpt lat="41.261235075071454" lon="0.8101439662277699">
        <ele>554.4</ele>
        <time>2020-10-29T09:36:27.000Z</time>
      </trkpt>
      <trkpt lat="41.261231219395995" lon="0.8101572934538126">
        <ele>554.2</ele>
        <time>2020-10-29T09:36:28.000Z</time>
      </trkpt>
      <trkpt lat="41.26121546141803" lon="0.810230216011405">
        <ele>552.6</ele>
        <time>2020-10-29T09:36:32.000Z</time>
      </trkpt>
      <trkpt lat="41.26121286302805" lon="0.8102474827319384">
        <ele>552.2</ele>
        <time>2020-10-29T09:36:33.000Z</time>
      </trkpt>
      <trkpt lat="41.261187717318535" lon="0.8104782365262508">
        <ele>551.2</ele>
        <time>2020-10-29T09:36:47.000Z</time>
      </trkpt>
      <trkpt lat="41.261204397305846" lon="0.8105067349970341">
        <ele>552.2</ele>
        <time>2020-10-29T09:36:49.000Z</time>
      </trkpt>
      <trkpt lat="41.26121202483773" lon="0.8105215709656477">
        <ele>552.6</ele>
        <time>2020-10-29T09:36:50.000Z</time>
      </trkpt>
      <trkpt lat="41.26124647445977" lon="0.8106149453669786">
        <ele>554.8</ele>
        <time>2020-10-29T09:37:00.000Z</time>
      </trkpt>
      <trkpt lat="41.26126625575125" lon="0.8106680866330862">
        <ele>556.2</ele>
        <time>2020-10-29T09:37:09.000Z</time>
      </trkpt>
      <trkpt lat="41.261368095874786" lon="0.8108306955546141">
        <ele>562.2</ele>
        <time>2020-10-29T09:39:17.000Z</time>
      </trkpt>
      <trkpt lat="41.261345548555255" lon="0.8108269236981869">
        <ele>561</ele>
        <time>2020-10-29T09:39:22.000Z</time>
      </trkpt>
      <trkpt lat="41.2613102607429" lon="0.8107546716928482">
        <ele>558.8</ele>
        <time>2020-10-29T09:39:35.000Z</time>
      </trkpt>
      <trkpt lat="41.26131344586611" lon="0.8107186295092106">
        <ele>558.6</ele>
        <time>2020-10-29T09:39:37.000Z</time>
      </trkpt>
      <trkpt lat="41.261322079226375" lon="0.8106410130858421">
        <ele>558.4</ele>
        <time>2020-10-29T09:39:42.000Z</time>
      </trkpt>
      <trkpt lat="41.26132383942604" lon="0.8106307033449411">
        <ele>558.4</ele>
        <time>2020-10-29T09:39:43.000Z</time>
      </trkpt>
      <trkpt lat="41.261311769485474" lon="0.8105605468153954">
        <ele>557.2</ele>
        <time>2020-10-29T09:39:50.000Z</time>
      </trkpt>
      <trkpt lat="41.26135367900133" lon="0.8104934077709913">
        <ele>559</ele>
        <time>2020-10-29T09:39:58.000Z</time>
      </trkpt>
      <trkpt lat="41.26142978668213" lon="0.8104426972568035">
        <ele>563.2</ele>
        <time>2020-10-29T09:40:14.000Z</time>
      </trkpt>
      <trkpt lat="41.26140430569649" lon="0.8104095049202442">
        <ele>562</ele>
        <time>2020-10-29T09:40:19.000Z</time>
      </trkpt>
      <trkpt lat="41.26143959350884" lon="0.8103339001536369">
        <ele>564.6</ele>
        <time>2020-10-29T09:40:26.000Z</time>
      </trkpt>
      <trkpt lat="41.261460883542895" lon="0.8103354088962078">
        <ele>565.8</ele>
        <time>2020-10-29T09:40:28.000Z</time>
      </trkpt>
      <trkpt lat="41.26149139367044" lon="0.8103080000728369">
        <ele>567.6</ele>
        <time>2020-10-29T09:40:34.000Z</time>
      </trkpt>
      <trkpt lat="41.261464823037386" lon="0.8102245163172483">
        <ele>567</ele>
        <time>2020-10-29T09:40:40.000Z</time>
      </trkpt>
      <trkpt lat="41.261460799723864" lon="0.8102075010538101">
        <ele>567</ele>
        <time>2020-10-29T09:40:41.000Z</time>
      </trkpt>
      <trkpt lat="41.26147136092186" lon="0.80996367149055">
        <ele>569.4</ele>
        <time>2020-10-29T09:40:56.000Z</time>
      </trkpt>
      <trkpt lat="41.26152081415057" lon="0.8098474144935608">
        <ele>573</ele>
        <time>2020-10-29T09:41:03.000Z</time>
      </trkpt>
      <trkpt lat="41.26153280027211" lon="0.8098308183252811">
        <ele>573.6</ele>
        <time>2020-10-29T09:41:04.000Z</time>
      </trkpt>
      <trkpt lat="41.26161561347544" lon="0.8096134755760431">
        <ele>578.4</ele>
        <time>2020-10-29T09:41:21.000Z</time>
      </trkpt>
      <trkpt lat="41.26162919215858" lon="0.8095458336174488">
        <ele>578.8</ele>
        <time>2020-10-29T09:41:28.000Z</time>
      </trkpt>
      <trkpt lat="41.261634388938546" lon="0.8094881661236286">
        <ele>578.8</ele>
        <time>2020-10-29T09:41:32.000Z</time>
      </trkpt>
      <trkpt lat="41.26170144416392" lon="0.8093164209276438">
        <ele>581.6</ele>
        <time>2020-10-29T09:41:45.000Z</time>
      </trkpt>
      <trkpt lat="41.26171912997961" lon="0.8092774450778961">
        <ele>582.2</ele>
        <time>2020-10-29T09:41:48.000Z</time>
      </trkpt>
      <trkpt lat="41.26174611970782" lon="0.8091532252728939">
        <ele>583</ele>
        <time>2020-10-29T09:41:58.000Z</time>
      </trkpt>
      <trkpt lat="41.261751148849726" lon="0.8091420773416758">
        <ele>583.4</ele>
        <time>2020-10-29T09:41:59.000Z</time>
      </trkpt>
      <trkpt lat="41.26180361956358" lon="0.8090285863727331">
        <ele>586.2</ele>
        <time>2020-10-29T09:42:11.000Z</time>
      </trkpt>
      <trkpt lat="41.261832285672426" lon="0.8089553285390139">
        <ele>587.6</ele>
        <time>2020-10-29T09:42:18.000Z</time>
      </trkpt>
      <trkpt lat="41.26183387823403" lon="0.8089430071413517">
        <ele>587.6</ele>
        <time>2020-10-29T09:42:19.000Z</time>
      </trkpt>
      <trkpt lat="41.26190470531583" lon="0.8087165281176567">
        <ele>594</ele>
        <time>2020-10-29T09:42:35.000Z</time>
      </trkpt>
      <trkpt lat="41.26193253323436" lon="0.8086382411420345">
        <ele>596.6</ele>
        <time>2020-10-29T09:42:42.000Z</time>
      </trkpt>
      <trkpt lat="41.261933874338865" lon="0.8086270093917847">
        <ele>596.8</ele>
        <time>2020-10-29T09:42:43.000Z</time>
      </trkpt>
      <trkpt lat="41.261882577091455" lon="0.8085173740983009">
        <ele>595.6</ele>
        <time>2020-10-29T09:42:52.000Z</time>
      </trkpt>
      <trkpt lat="41.26186774112284" lon="0.8084944915026426">
        <ele>595</ele>
        <time>2020-10-29T09:42:54.000Z</time>
      </trkpt>
      <trkpt lat="41.26187612302601" lon="0.8084486424922943">
        <ele>595.8</ele>
        <time>2020-10-29T09:43:01.000Z</time>
      </trkpt>
      <trkpt lat="41.262099500745535" lon="0.8083390910178423">
        <ele>601.6</ele>
        <time>2020-10-29T09:43:33.000Z</time>
      </trkpt>
      <trkpt lat="41.262102434411645" lon="0.80832090228796">
        <ele>601.6</ele>
        <time>2020-10-29T09:43:34.000Z</time>
      </trkpt>
      <trkpt lat="41.26215683296323" lon="0.8081943355500698">
        <ele>602</ele>
        <time>2020-10-29T09:43:43.000Z</time>
      </trkpt>
      <trkpt lat="41.26216035336256" lon="0.8081823494285345">
        <ele>602</ele>
        <time>2020-10-29T09:43:44.000Z</time>
      </trkpt>
      <trkpt lat="41.262257751077414" lon="0.8080531004816294">
        <ele>603.8</ele>
        <time>2020-10-29T09:43:59.000Z</time>
      </trkpt>
      <trkpt lat="41.26230904832482" lon="0.8079197444021702">
        <ele>605.8</ele>
        <time>2020-10-29T09:44:13.000Z</time>
      </trkpt>
      <trkpt lat="41.262335451319814" lon="0.8078615739941597">
        <ele>606.4</ele>
        <time>2020-10-29T09:44:18.000Z</time>
      </trkpt>
      <trkpt lat="41.26233880408108" lon="0.8078512642532587">
        <ele>606.6</ele>
        <time>2020-10-29T09:44:19.000Z</time>
      </trkpt>
      <trkpt lat="41.26235397532582" lon="0.8078263700008392">
        <ele>606.8</ele>
        <time>2020-10-29T09:44:22.000Z</time>
      </trkpt>
      <trkpt lat="41.26240409910679" lon="0.8077744022011757">
        <ele>608</ele>
        <time>2020-10-29T09:44:29.000Z</time>
      </trkpt>
      <trkpt lat="41.26254650764167" lon="0.8078201673924923">
        <ele>610.4</ele>
        <time>2020-10-29T09:44:42.000Z</time>
      </trkpt>
      <trkpt lat="41.26255866140127" lon="0.8078158926218748">
        <ele>610.6</ele>
        <time>2020-10-29T09:44:43.000Z</time>
      </trkpt>
      <trkpt lat="41.26263904385269" lon="0.8077505137771368">
        <ele>612.2</ele>
        <time>2020-10-29T09:44:57.000Z</time>
      </trkpt>
      <trkpt lat="41.262677516788244" lon="0.8077084366232157">
        <ele>613.2</ele>
        <time>2020-10-29T09:45:01.000Z</time>
      </trkpt>
      <trkpt lat="41.2627212703228" lon="0.8076836261898279">
        <ele>614</ele>
        <time>2020-10-29T09:45:07.000Z</time>
      </trkpt>
      <trkpt lat="41.26274918206036" lon="0.807679770514369">
        <ele>614.6</ele>
        <time>2020-10-29T09:45:10.000Z</time>
      </trkpt>
      <trkpt lat="41.262820763513446" lon="0.8077252842485905">
        <ele>615.6</ele>
        <time>2020-10-29T09:45:19.000Z</time>
      </trkpt>
      <trkpt lat="41.26290827058256" lon="0.8077573031187057">
        <ele>617</ele>
        <time>2020-10-29T09:45:29.000Z</time>
      </trkpt>
      <trkpt lat="41.26296057365835" lon="0.8077694568783045">
        <ele>617.8</ele>
        <time>2020-10-29T09:45:34.000Z</time>
      </trkpt>
      <trkpt lat="41.26308923587203" lon="0.8077456522732973">
        <ele>620</ele>
        <time>2020-10-29T09:45:48.000Z</time>
      </trkpt>
      <trkpt lat="41.26311186701059" lon="0.8077125437557697">
        <ele>620.6</ele>
        <time>2020-10-29T09:45:53.000Z</time>
      </trkpt>
      <trkpt lat="41.26312645152211" lon="0.8077006414532661">
        <ele>620.8</ele>
        <time>2020-10-29T09:45:55.000Z</time>
      </trkpt>
      <trkpt lat="41.26323675736785" lon="0.8076172415167093">
        <ele>621.4</ele>
        <time>2020-10-29T09:46:09.000Z</time>
      </trkpt>
      <trkpt lat="41.26327489502728" lon="0.8075748290866613">
        <ele>621.6</ele>
        <time>2020-10-29T09:46:16.000Z</time>
      </trkpt>
      <trkpt lat="41.263288306072354" lon="0.8075580652803183">
        <ele>621.8</ele>
        <time>2020-10-29T09:46:18.000Z</time>
      </trkpt>
      <trkpt lat="41.26336483284831" lon="0.8074565604329109">
        <ele>622.2</ele>
        <time>2020-10-29T09:46:30.000Z</time>
      </trkpt>
      <trkpt lat="41.263374891132116" lon="0.8074551355093718">
        <ele>622.4</ele>
        <time>2020-10-29T09:46:31.000Z</time>
      </trkpt>
      <trkpt lat="41.26340053975582" lon="0.8074432332068682">
        <ele>622.6</ele>
        <time>2020-10-29T09:46:35.000Z</time>
      </trkpt>
      <trkpt lat="41.263413950800896" lon="0.807426804676652">
        <ele>622.8</ele>
        <time>2020-10-29T09:46:39.000Z</time>
      </trkpt>
      <trkpt lat="41.26359072513878" lon="0.8043442759662867">
        <ele>661.4</ele>
        <time>2020-10-29T09:51:57.000Z</time>
      </trkpt>
      <trkpt lat="41.26363221555948" lon="0.8042353112250566">
        <ele>663.4</ele>
        <time>2020-10-29T09:52:08.000Z</time>
      </trkpt>
      <trkpt lat="41.26370253972709" lon="0.8041593711823225">
        <ele>664.8</ele>
        <time>2020-10-29T09:52:57.000Z</time>
      </trkpt>
      <trkpt lat="41.263855090364814" lon="0.8040165435522795">
        <ele>667.6</ele>
        <time>2020-10-29T09:53:13.000Z</time>
      </trkpt>
      <trkpt lat="41.264021806418896" lon="0.8038998674601316">
        <ele>670.8</ele>
        <time>2020-10-29T09:53:31.000Z</time>
      </trkpt>
      <trkpt lat="41.26415558159351" lon="0.8038049843162298">
        <ele>672.8</ele>
        <time>2020-10-29T09:53:45.000Z</time>
      </trkpt>
      <trkpt lat="41.26416647806764" lon="0.8037928305566311">
        <ele>673</ele>
        <time>2020-10-29T09:53:46.000Z</time>
      </trkpt>
      <trkpt lat="41.26431467011571" lon="0.8037170581519604">
        <ele>675.2</ele>
        <time>2020-10-29T09:54:01.000Z</time>
      </trkpt>
      <trkpt lat="41.264343839138746" lon="0.8037096820771694">
        <ele>675.6</ele>
        <time>2020-10-29T09:54:03.000Z</time>
      </trkpt>
      <trkpt lat="41.26437870785594" lon="0.8036919124424458">
        <ele>676</ele>
        <time>2020-10-29T09:54:06.000Z</time>
      </trkpt>
      <trkpt lat="41.264520110562444" lon="0.8036304730921984">
        <ele>678.2</ele>
        <time>2020-10-29T09:54:17.000Z</time>
      </trkpt>
      <trkpt lat="41.264532431960106" lon="0.8036293834447861">
        <ele>678.4</ele>
        <time>2020-10-29T09:54:18.000Z</time>
      </trkpt>
      <trkpt lat="41.26456964761019" lon="0.8036230970174074">
        <ele>679.4</ele>
        <time>2020-10-29T09:54:21.000Z</time>
      </trkpt>
      <trkpt lat="41.26466360874474" lon="0.8035365957766771">
        <ele>683.8</ele>
        <time>2020-10-29T09:54:31.000Z</time>
      </trkpt>
      <trkpt lat="41.264669224619865" lon="0.8035241905599833">
        <ele>684.2</ele>
        <time>2020-10-29T09:54:32.000Z</time>
      </trkpt>
      <trkpt lat="41.26473770476878" lon="0.8033008966594934">
        <ele>689.6</ele>
        <time>2020-10-29T09:54:49.000Z</time>
      </trkpt>
      <trkpt lat="41.26475069671869" lon="0.8032357692718506">
        <ele>691</ele>
        <time>2020-10-29T09:54:55.000Z</time>
      </trkpt>
      <trkpt lat="41.26475187018514" lon="0.803225040435791">
        <ele>691.2</ele>
        <time>2020-10-29T09:54:56.000Z</time>
      </trkpt>
      <trkpt lat="41.264753211289644" lon="0.803157901391387">
        <ele>692.2</ele>
        <time>2020-10-29T09:55:02.000Z</time>
      </trkpt>
      <trkpt lat="41.264753211289644" lon="0.803144657984376">
        <ele>692.4</ele>
        <time>2020-10-29T09:55:03.000Z</time>
      </trkpt>
      <trkpt lat="41.264769388362765" lon="0.802972661331296">
        <ele>695</ele>
        <time>2020-10-29T09:55:17.000Z</time>
      </trkpt>
      <trkpt lat="41.26477047801018" lon="0.8029619324952364">
        <ele>695.4</ele>
        <time>2020-10-29T09:55:18.000Z</time>
      </trkpt>
      <trkpt lat="41.26478196121752" lon="0.8029087912291288">
        <ele>696.8</ele>
        <time>2020-10-29T09:55:22.000Z</time>
      </trkpt>
      <trkpt lat="41.26478606835008" lon="0.8028946258127689">
        <ele>697.4</ele>
        <time>2020-10-29T09:55:23.000Z</time>
      </trkpt>
      <trkpt lat="41.2648278940469" lon="0.8028258103877306">
        <ele>701.2</ele>
        <time>2020-10-29T09:55:32.000Z</time>
      </trkpt>
      <trkpt lat="41.26483183354139" lon="0.802816255018115">
        <ele>701.6</ele>
        <time>2020-10-29T09:55:35.000Z</time>
      </trkpt>
      <trkpt lat="41.265874626114964" lon="0.801208857446909">
        <ele>785</ele>
        <time>2020-10-29T10:19:16.000Z</time>
      </trkpt>
      <trkpt lat="41.26579189673066" lon="0.8011559676378965">
        <ele>777.4</ele>
        <time>2020-10-29T10:19:36.000Z</time>
      </trkpt>
      <trkpt lat="41.26589792780578" lon="0.8010054286569357">
        <ele>786.8</ele>
        <time>2020-10-29T10:19:56.000Z</time>
      </trkpt>
      <trkpt lat="41.26591200940311" lon="0.8009810373187065">
        <ele>788</ele>
        <time>2020-10-29T10:19:59.000Z</time>
      </trkpt>
      <trkpt lat="41.26592726446688" lon="0.8009700570255518">
        <ele>789.4</ele>
        <time>2020-10-29T10:20:01.000Z</time>
      </trkpt>
      <trkpt lat="41.26595827750862" lon="0.8009373676031828">
        <ele>792.2</ele>
        <time>2020-10-29T10:20:06.000Z</time>
      </trkpt>
      <trkpt lat="41.26603849232197" lon="0.8008600864559412">
        <ele>802.4</ele>
        <time>2020-10-29T10:20:17.000Z</time>
      </trkpt>
      <trkpt lat="41.26609004102647" lon="0.8008226193487644">
        <ele>809.8</ele>
        <time>2020-10-29T10:20:25.000Z</time>
      </trkpt>
      <trkpt lat="41.26610470935702" lon="0.8007978089153767">
        <ele>812.4</ele>
        <time>2020-10-29T10:20:28.000Z</time>
      </trkpt>
      <trkpt lat="41.26612029969692" lon="0.8007634431123734">
        <ele>815.2</ele>
        <time>2020-10-29T10:20:32.000Z</time>
      </trkpt>
      <trkpt lat="41.26613195054233" lon="0.8007215335965157">
        <ele>818</ele>
        <time>2020-10-29T10:20:36.000Z</time>
      </trkpt>
      <trkpt lat="41.26614963635802" lon="0.8006919454783201">
        <ele>821</ele>
        <time>2020-10-29T10:20:39.000Z</time>
      </trkpt>
      <trkpt lat="41.26616078428924" lon="0.800672248005867">
        <ele>823</ele>
        <time>2020-10-29T10:20:41.000Z</time>
      </trkpt>
      <trkpt lat="41.2661852594465" lon="0.80061424523592">
        <ele>827.6</ele>
        <time>2020-10-29T10:20:47.000Z</time>
      </trkpt>
      <trkpt lat="41.266198586672544" lon="0.8005864173173904">
        <ele>830</ele>
        <time>2020-10-29T10:20:50.000Z</time>
      </trkpt>
      <trkpt lat="41.26621250063181" lon="0.8005492016673088">
        <ele>832.8</ele>
        <time>2020-10-29T10:20:54.000Z</time>
      </trkpt>
      <trkpt lat="41.26622264273465" lon="0.800532940775156">
        <ele>834.6</ele>
        <time>2020-10-29T10:20:56.000Z</time>
      </trkpt>
      <trkpt lat="41.26625156030059" lon="0.8005001675337553">
        <ele>839</ele>
        <time>2020-10-29T10:21:02.000Z</time>
      </trkpt>
      <trkpt lat="41.26631425693631" lon="0.8004283346235752">
        <ele>848.6</ele>
        <time>2020-10-29T10:21:16.000Z</time>
      </trkpt>
      <trkpt lat="41.26633521169424" lon="0.8003950584679842">
        <ele>851.8</ele>
        <time>2020-10-29T10:21:20.000Z</time>
      </trkpt>
      <trkpt lat="41.26634510233998" lon="0.8003704994916916">
        <ele>853.4</ele>
        <time>2020-10-29T10:21:23.000Z</time>
      </trkpt>
      <trkpt lat="41.26637460663915" lon="0.800303528085351">
        <ele>857.6</ele>
        <time>2020-10-29T10:21:30.000Z</time>
      </trkpt>
      <trkpt lat="41.26640067435801" lon="0.8002835791558027">
        <ele>860.8</ele>
        <time>2020-10-29T10:21:35.000Z</time>
      </trkpt>
      <trkpt lat="41.26641450449824" lon="0.8002706710249186">
        <ele>862.6</ele>
        <time>2020-10-29T10:21:37.000Z</time>
      </trkpt>
      <trkpt lat="41.2664286699146" lon="0.8002679888159037">
        <ele>864.2</ele>
        <time>2020-10-29T10:21:39.000Z</time>
      </trkpt>
      <trkpt lat="41.2664545699954" lon="0.8002604451030493">
        <ele>867.2</ele>
        <time>2020-10-29T10:21:42.000Z</time>
      </trkpt>
      <trkpt lat="41.266496144235134" lon="0.8002477046102285">
        <ele>870.2</ele>
        <time>2020-10-29T10:21:47.000Z</time>
      </trkpt>
      <trkpt lat="41.266505951061845" lon="0.800242256373167">
        <ele>871</ele>
        <time>2020-10-29T10:21:50.000Z</time>
      </trkpt>
      <trkpt lat="41.26651223748922" lon="0.7996079139411449">
        <ele>883</ele>
        <time>2020-10-29T10:24:20.000Z</time>
      </trkpt>
      <trkpt lat="41.26651366241276" lon="0.7995938323438168">
        <ele>883.6</ele>
        <time>2020-10-29T10:24:24.000Z</time>
      </trkpt>
      <trkpt lat="41.266364799812436" lon="0.799210024997592">
        <ele>888.2</ele>
        <time>2020-10-29T10:26:37.000Z</time>
      </trkpt>
      <trkpt lat="41.26638206653297" lon="0.7992234360426664">
        <ele>889</ele>
        <time>2020-10-29T10:26:43.000Z</time>
      </trkpt>
      <trkpt lat="41.266439063474536" lon="0.7989287283271551">
        <ele>905.4</ele>
        <time>2020-10-29T10:31:47.000Z</time>
      </trkpt>
      <trkpt lat="41.26639287918806" lon="0.7990097813308239">
        <ele>898.2</ele>
        <time>2020-10-29T10:31:51.000Z</time>
      </trkpt>
      <trkpt lat="41.26638500019908" lon="0.799010619521141">
        <ele>897.6</ele>
        <time>2020-10-29T10:31:52.000Z</time>
      </trkpt>
      <trkpt lat="41.26636069267988" lon="0.7989808637648821">
        <ele>896.6</ele>
        <time>2020-10-29T10:31:59.000Z</time>
      </trkpt>
      <trkpt lat="41.26631911844015" lon="0.7989848032593727">
        <ele>892.8</ele>
        <time>2020-10-29T10:32:05.000Z</time>
      </trkpt>
      <trkpt lat="41.266304701566696" lon="0.7989522814750671">
        <ele>892.8</ele>
        <time>2020-10-29T10:32:08.000Z</time>
      </trkpt>
      <trkpt lat="41.26628584228456" lon="0.7989242859184742">
        <ele>892.2</ele>
        <time>2020-10-29T10:32:12.000Z</time>
      </trkpt>
      <trkpt lat="41.26626228913665" lon="0.7988819573074579">
        <ele>891.8</ele>
        <time>2020-10-29T10:32:16.000Z</time>
      </trkpt>
      <trkpt lat="41.2662301864475" lon="0.7988367788493633">
        <ele>892.4</ele>
        <time>2020-10-29T10:32:21.000Z</time>
      </trkpt>
      <trkpt lat="41.26621635630727" lon="0.7987643592059612">
        <ele>896.6</ele>
        <time>2020-10-29T10:32:28.000Z</time>
      </trkpt>
      <trkpt lat="41.26620671711862" lon="0.7987586595118046">
        <ele>896.2</ele>
        <time>2020-10-29T10:32:30.000Z</time>
      </trkpt>
      <trkpt lat="41.26620713621378" lon="0.7987517863512039">
        <ele>896.6</ele>
        <time>2020-10-29T10:32:32.000Z</time>
      </trkpt>
      <trkpt lat="41.26607621088624" lon="0.7986659556627274">
        <ele>891.6</ele>
        <time>2020-10-29T10:33:19.000Z</time>
      </trkpt>
      <trkpt lat="41.266072103753686" lon="0.7986602559685707">
        <ele>891.6</ele>
        <time>2020-10-29T10:33:22.000Z</time>
      </trkpt>
      <trkpt lat="41.26604938879609" lon="0.798706104978919">
        <ele>886.4</ele>
        <time>2020-10-29T10:33:25.000Z</time>
      </trkpt>
      <trkpt lat="41.26605014316738" lon="0.7987246289849281">
        <ele>885</ele>
        <time>2020-10-29T10:33:29.000Z</time>
      </trkpt>
      <trkpt lat="41.265543373301625" lon="0.7986459229141474">
        <ele>847</ele>
        <time>2020-10-29T10:36:35.000Z</time>
      </trkpt>
      <trkpt lat="41.26545988954604" lon="0.7985449209809303">
        <ele>847</ele>
        <time>2020-10-29T10:36:49.000Z</time>
      </trkpt>
      <trkpt lat="41.26536316238344" lon="0.7983882632106543">
        <ele>850</ele>
        <time>2020-10-29T10:37:06.000Z</time>
      </trkpt>
      <trkpt lat="41.265362575650215" lon="0.7983759418129921">
        <ele>850.8</ele>
        <time>2020-10-29T10:37:07.000Z</time>
      </trkpt>
      <trkpt lat="41.26535100862384" lon="0.7983021810650826">
        <ele>855.2</ele>
        <time>2020-10-29T10:37:12.000Z</time>
      </trkpt>
      <trkpt lat="41.26532359980047" lon="0.7982124947011471">
        <ele>859.4</ele>
        <time>2020-10-29T10:37:21.000Z</time>
      </trkpt>
      <trkpt lat="41.26533307135105" lon="0.79813445918262">
        <ele>866</ele>
        <time>2020-10-29T10:37:27.000Z</time>
      </trkpt>
      <trkpt lat="41.26533608883619" lon="0.7981134206056595">
        <ele>867.8</ele>
        <time>2020-10-29T10:37:29.000Z</time>
      </trkpt>
      <trkpt lat="41.26534195616841" lon="0.7980745285749435">
        <ele>871.2</ele>
        <time>2020-10-29T10:37:35.000Z</time>
      </trkpt>
      <trkpt lat="41.26535536721349" lon="0.7979684136807919">
        <ele>878</ele>
        <time>2020-10-29T10:37:49.000Z</time>
      </trkpt>
      <trkpt lat="41.26535855233669" lon="0.7979244086891413">
        <ele>880.4</ele>
        <time>2020-10-29T10:37:53.000Z</time>
      </trkpt>
      <trkpt lat="41.26529577188194" lon="0.7977123465389013">
        <ele>885</ele>
        <time>2020-10-29T10:38:08.000Z</time>
      </trkpt>
      <trkpt lat="41.26525025814772" lon="0.7976467162370682">
        <ele>884</ele>
        <time>2020-10-29T10:38:17.000Z</time>
      </trkpt>
      <trkpt lat="41.265182783827186" lon="0.7974596321582794">
        <ele>886.2</ele>
        <time>2020-10-29T10:42:16.000Z</time>
      </trkpt>
      <trkpt lat="41.26519971527159" lon="0.7974366657435894">
        <ele>888.4</ele>
        <time>2020-10-29T10:42:20.000Z</time>
      </trkpt>
      <trkpt lat="41.26521279104054" lon="0.7974250987172127">
        <ele>889.8</ele>
        <time>2020-10-29T10:42:22.000Z</time>
      </trkpt>
      <trkpt lat="41.265218909829855" lon="0.7974143698811531">
        <ele>890.8</ele>
        <time>2020-10-29T10:42:27.000Z</time>
      </trkpt>
      <trkpt lat="41.26527129672468" lon="0.7971087656915188">
        <ele>909.2</ele>
        <time>2020-10-29T10:45:06.000Z</time>
      </trkpt>
      <trkpt lat="41.26525369472802" lon="0.7971135433763266">
        <ele>907.6</ele>
        <time>2020-10-29T10:45:10.000Z</time>
      </trkpt>
      <trkpt lat="41.264759581536055" lon="0.7962750177830458">
        <ele>917</ele>
        <time>2020-10-29T10:47:11.000Z</time>
      </trkpt>
      <trkpt lat="41.264752792194486" lon="0.7962695695459843">
        <ele>917</ele>
        <time>2020-10-29T10:47:12.000Z</time>
      </trkpt>
      <trkpt lat="41.264735609292984" lon="0.796235203742981">
        <ele>917.4</ele>
        <time>2020-10-29T10:47:15.000Z</time>
      </trkpt>
      <trkpt lat="41.264719096943736" lon="0.7962047774344683">
        <ele>917.6</ele>
        <time>2020-10-29T10:47:18.000Z</time>
      </trkpt>
      <trkpt lat="41.264697555452585" lon="0.796181308105588">
        <ele>917.4</ele>
        <time>2020-10-29T10:47:21.000Z</time>
      </trkpt>
      <trkpt lat="41.26460208557546" lon="0.7959930505603552">
        <ele>919.6</ele>
        <time>2020-10-29T10:47:37.000Z</time>
      </trkpt>
      <trkpt lat="41.26459722407162" lon="0.7959819864481688">
        <ele>919.8</ele>
        <time>2020-10-29T10:47:38.000Z</time>
      </trkpt>
      <trkpt lat="41.26452966593206" lon="0.7958903722465038">
        <ele>919.8</ele>
        <time>2020-10-29T10:47:50.000Z</time>
      </trkpt>
      <trkpt lat="41.26444458961487" lon="0.7958014402538538">
        <ele>919.2</ele>
        <time>2020-10-29T10:48:02.000Z</time>
      </trkpt>
      <trkpt lat="41.2644066195935" lon="0.7957493048161268">
        <ele>919.2</ele>
        <time>2020-10-29T10:48:09.000Z</time>
      </trkpt>
      <trkpt lat="41.26435247249901" lon="0.7957017794251442">
        <ele>918.6</ele>
        <time>2020-10-29T10:48:18.000Z</time>
      </trkpt>
      <trkpt lat="41.26433562487364" lon="0.7956755440682173">
        <ele>918.6</ele>
        <time>2020-10-29T10:48:21.000Z</time>
      </trkpt>
      <trkpt lat="41.26417242921889" lon="0.7955826725810766">
        <ele>914.8</ele>
        <time>2020-10-29T10:48:39.000Z</time>
      </trkpt>
      <trkpt lat="41.26416371203959" lon="0.7955796550959349">
        <ele>914.6</ele>
        <time>2020-10-29T10:48:40.000Z</time>
      </trkpt>
      <trkpt lat="41.26415063627064" lon="0.7955694291740656">
        <ele>914.4</ele>
        <time>2020-10-29T10:48:42.000Z</time>
      </trkpt>
      <trkpt lat="41.26413747668266" lon="0.7955644838511944">
        <ele>914</ele>
        <time>2020-10-29T10:48:46.000Z</time>
      </trkpt>
      <trkpt lat="41.26398383639753" lon="0.7953909784555435">
        <ele>911.2</ele>
        <time>2020-10-29T10:49:12.000Z</time>
      </trkpt>
      <trkpt lat="41.26397461630404" lon="0.7953573670238256">
        <ele>911.4</ele>
        <time>2020-10-29T10:49:14.000Z</time>
      </trkpt>
      <trkpt lat="41.26390228047967" lon="0.7951520942151546">
        <ele>912.2</ele>
        <time>2020-10-29T10:49:33.000Z</time>
      </trkpt>
      <trkpt lat="41.263902531936765" lon="0.7951510045677423">
        <ele>912.4</ele>
        <time>2020-10-29T10:49:37.000Z</time>
      </trkpt>
      <trkpt lat="41.26397646032274" lon="0.7951701153069735">
        <ele>915.4</ele>
        <time>2020-10-29T10:49:46.000Z</time>
      </trkpt>
      <trkpt lat="41.26402046531439" lon="0.7952534314244986">
        <ele>915.6</ele>
        <time>2020-10-29T10:49:54.000Z</time>
      </trkpt>
      <trkpt lat="41.26402985304594" lon="0.7952843606472015">
        <ele>915.2</ele>
        <time>2020-10-29T10:49:56.000Z</time>
      </trkpt>
      <trkpt lat="41.26417108811438" lon="0.7954031322151423">
        <ele>918.8</ele>
        <time>2020-10-29T10:50:12.000Z</time>
      </trkpt>
      <trkpt lat="41.26417502760887" lon="0.7954426947981119">
        <ele>918.2</ele>
        <time>2020-10-29T10:50:16.000Z</time>
      </trkpt>
      <trkpt lat="41.264179134741426" lon="0.7954494003206491">
        <ele>918.2</ele>
        <time>2020-10-29T10:50:22.000Z</time>
      </trkpt>
      <trkpt lat="41.264225067570806" lon="0.7954492326825857">
        <ele>920.2</ele>
        <time>2020-10-29T10:51:36.000Z</time>
      </trkpt>
      <trkpt lat="41.2642356287688" lon="0.7954299543052912">
        <ele>921</ele>
        <time>2020-10-29T10:51:41.000Z</time>
      </trkpt>
      <trkpt lat="41.26445104368031" lon="0.7955035474151373">
        <ele>928.6</ele>
        <time>2020-10-29T10:52:49.000Z</time>
      </trkpt>
      <trkpt lat="41.26448222436011" lon="0.7955704350024462">
        <ele>928.2</ele>
        <time>2020-10-29T10:52:53.000Z</time>
      </trkpt>
      <trkpt lat="41.26449538394809" lon="0.7955959159880877">
        <ele>928</ele>
        <time>2020-10-29T10:52:55.000Z</time>
      </trkpt>
      <trkpt lat="41.26452145166695" lon="0.7956344727426767">
        <ele>927.8</ele>
        <time>2020-10-29T10:52:59.000Z</time>
      </trkpt>
      <trkpt lat="41.264528911560774" lon="0.7956409268081188">
        <ele>927.8</ele>
        <time>2020-10-29T10:53:00.000Z</time>
      </trkpt>
      <trkpt lat="41.26457895152271" lon="0.7956930622458458">
        <ele>928.2</ele>
        <time>2020-10-29T10:53:13.000Z</time>
      </trkpt>
      <trkpt lat="41.264607114717364" lon="0.7956972531974316">
        <ele>929.4</ele>
        <time>2020-10-29T10:53:16.000Z</time>
      </trkpt>
      <trkpt lat="41.26469587907195" lon="0.7958104088902473">
        <ele>929.4</ele>
        <time>2020-10-29T10:53:28.000Z</time>
      </trkpt>
      <trkpt lat="41.264766957610846" lon="0.7958847563713789">
        <ele>930</ele>
        <time>2020-10-29T10:53:38.000Z</time>
      </trkpt>
      <trkpt lat="41.26494850963354" lon="0.7958560902625322">
        <ele>939</ele>
        <time>2020-10-29T10:53:56.000Z</time>
      </trkpt>
      <trkpt lat="41.26496326178312" lon="0.7958549167960882">
        <ele>939.8</ele>
        <time>2020-10-29T10:53:58.000Z</time>
      </trkpt>
      <trkpt lat="41.265048338100314" lon="0.7958993408828974">
        <ele>942.2</ele>
        <time>2020-10-29T10:54:08.000Z</time>
      </trkpt>
      <trkpt lat="41.26507876440883" lon="0.7958885282278061">
        <ele>944</ele>
        <time>2020-10-29T10:54:11.000Z</time>
      </trkpt>
      <trkpt lat="41.265118746086955" lon="0.7958745304495096">
        <ele>946.2</ele>
        <time>2020-10-29T10:54:18.000Z</time>
      </trkpt>
      <trkpt lat="41.26522460952401" lon="0.7958896178752184">
        <ele>946.6</ele>
        <time>2020-10-29T10:55:01.000Z</time>
      </trkpt>
      <trkpt lat="41.265280013903975" lon="0.7959241513162851">
        <ele>947</ele>
        <time>2020-10-29T10:55:07.000Z</time>
      </trkpt>
      <trkpt lat="41.265288731083274" lon="0.7959327846765518">
        <ele>947.2</ele>
        <time>2020-10-29T10:55:08.000Z</time>
      </trkpt>
      <trkpt lat="41.26545385457575" lon="0.7960510533303022">
        <ele>948.8</ele>
        <time>2020-10-29T10:55:25.000Z</time>
      </trkpt>
      <trkpt lat="41.265584947541356" lon="0.796134453266859">
        <ele>950</ele>
        <time>2020-10-29T10:55:39.000Z</time>
      </trkpt>
      <trkpt lat="41.265593245625496" lon="0.7961437571793795">
        <ele>950</ele>
        <time>2020-10-29T10:55:40.000Z</time>
      </trkpt>
      <trkpt lat="41.26565309241414" lon="0.7962543144822121">
        <ele>951.6</ele>
        <time>2020-10-29T10:55:49.000Z</time>
      </trkpt>
      <trkpt lat="41.26566080376506" lon="0.7962641213089228">
        <ele>951.8</ele>
        <time>2020-10-29T10:55:50.000Z</time>
      </trkpt>
      <trkpt lat="41.26570153981447" lon="0.7963791210204363">
        <ele>953.6</ele>
        <time>2020-10-29T10:56:07.000Z</time>
      </trkpt>
      <trkpt lat="41.265755435451865" lon="0.7962906919419765">
        <ele>953</ele>
        <time>2020-10-29T10:56:15.000Z</time>
      </trkpt>
      <trkpt lat="41.26576976850629" lon="0.796295553445816">
        <ele>953.2</ele>
        <time>2020-10-29T10:56:16.000Z</time>
      </trkpt>
      <trkpt lat="41.265905471518636" lon="0.7964362856000662">
        <ele>955.8</ele>
        <time>2020-10-29T10:56:34.000Z</time>
      </trkpt>
      <trkpt lat="41.26596741378307" lon="0.796566791832447">
        <ele>957.2</ele>
        <time>2020-10-29T10:56:46.000Z</time>
      </trkpt>
      <trkpt lat="41.26597420312464" lon="0.7965765986591578">
        <ele>957.4</ele>
        <time>2020-10-29T10:56:47.000Z</time>
      </trkpt>
      <trkpt lat="41.26607830636203" lon="0.796778853982687">
        <ele>959.6</ele>
        <time>2020-10-29T10:57:09.000Z</time>
      </trkpt>
      <trkpt lat="41.26613773405552" lon="0.7968236971646547">
        <ele>960.4</ele>
        <time>2020-10-29T10:57:20.000Z</time>
      </trkpt>
      <trkpt lat="41.266172770410776" lon="0.7968603260815144">
        <ele>961</ele>
        <time>2020-10-29T10:57:25.000Z</time>
      </trkpt>
      <trkpt lat="41.26632330939174" lon="0.7969992980360985">
        <ele>963.2</ele>
        <time>2020-10-29T10:57:41.000Z</time>
      </trkpt>
      <trkpt lat="41.26636806875467" lon="0.797225022688508">
        <ele>961.8</ele>
        <time>2020-10-29T10:57:56.000Z</time>
      </trkpt>
      <trkpt lat="41.26636949367821" lon="0.7972998730838299">
        <ele>960</ele>
        <time>2020-10-29T10:58:08.000Z</time>
      </trkpt>
      <trkpt lat="41.26640587113798" lon="0.797069538384676">
        <ele>964.4</ele>
        <time>2020-10-29T10:58:22.000Z</time>
      </trkpt>
      <trkpt lat="41.26649547368288" lon="0.7970664370805025">
        <ele>965.6</ele>
        <time>2020-10-29T10:58:30.000Z</time>
      </trkpt>
      <trkpt lat="41.26650762744248" lon="0.7970758248120546">
        <ele>965.8</ele>
        <time>2020-10-29T10:58:31.000Z</time>
      </trkpt>
      <trkpt lat="41.266626147553325" lon="0.7971466518938541">
        <ele>968.4</ele>
        <time>2020-10-29T10:58:42.000Z</time>
      </trkpt>
      <trkpt lat="41.26663830131292" lon="0.7971491664648056">
        <ele>968.8</ele>
        <time>2020-10-29T10:58:43.000Z</time>
      </trkpt>
      <trkpt lat="41.26675673760474" lon="0.7971467357128859">
        <ele>970.8</ele>
        <time>2020-10-29T10:58:56.000Z</time>
      </trkpt>
      <trkpt lat="41.266875425353646" lon="0.79715671017766">
        <ele>973</ele>
        <time>2020-10-29T10:59:10.000Z</time>
      </trkpt>
      <trkpt lat="41.26760121434927" lon="0.797042129561305">
        <ele>982.8</ele>
        <time>2020-10-29T11:00:48.000Z</time>
      </trkpt>
      <trkpt lat="41.26763692125678" lon="0.7970496732741594">
        <ele>983.2</ele>
        <time>2020-10-29T11:00:51.000Z</time>
      </trkpt>
      <trkpt lat="41.26780204474926" lon="0.7971663493663073">
        <ele>985.6</ele>
        <time>2020-10-29T11:01:07.000Z</time>
      </trkpt>
      <trkpt lat="41.26787438057363" lon="0.7971835322678089">
        <ele>986.4</ele>
        <time>2020-10-29T11:01:14.000Z</time>
      </trkpt>
      <trkpt lat="41.267883349210024" lon="0.7971938420087099">
        <ele>986.6</ele>
        <time>2020-10-29T11:01:15.000Z</time>
      </trkpt>
      <trkpt lat="41.268039755523205" lon="0.797309847548604">
        <ele>987.6</ele>
        <time>2020-10-29T11:01:32.000Z</time>
      </trkpt>
      <trkpt lat="41.26816070638597" lon="0.797490980476141">
        <ele>987.6</ele>
        <time>2020-10-29T11:01:48.000Z</time>
      </trkpt>
      <trkpt lat="41.2683336250484" lon="0.79759256914258">
        <ele>988.2</ele>
        <time>2020-10-29T11:02:04.000Z</time>
      </trkpt>
      <trkpt lat="41.268443930894136" lon="0.797718046233058">
        <ele>988.2</ele>
        <time>2020-10-29T11:02:16.000Z</time>
      </trkpt>
      <trkpt lat="41.268450636416674" lon="0.7977284397929907">
        <ele>988.2</ele>
        <time>2020-10-29T11:02:17.000Z</time>
      </trkpt>
      <trkpt lat="41.268471255898476" lon="0.7977545913308859">
        <ele>988.2</ele>
        <time>2020-10-29T11:02:20.000Z</time>
      </trkpt>
      <trkpt lat="41.2684906180948" lon="0.7977644819766283">
        <ele>988.4</ele>
        <time>2020-10-29T11:02:22.000Z</time>
      </trkpt>
      <trkpt lat="41.26852422952652" lon="0.797774288803339">
        <ele>988.6</ele>
        <time>2020-10-29T11:02:25.000Z</time>
      </trkpt>
      <trkpt lat="41.26856002025306" lon="0.7977877836674452">
        <ele>988.6</ele>
        <time>2020-10-29T11:02:29.000Z</time>
      </trkpt>
      <trkpt lat="41.26856865361333" lon="0.7977967523038387">
        <ele>988.6</ele>
        <time>2020-10-29T11:02:30.000Z</time>
      </trkpt>
      <trkpt lat="41.26860042102635" lon="0.7978583592921495">
        <ele>988.6</ele>
        <time>2020-10-29T11:02:38.000Z</time>
      </trkpt>
      <trkpt lat="41.2686478625983" lon="0.7978455349802971">
        <ele>989</ele>
        <time>2020-10-29T11:02:43.000Z</time>
      </trkpt>
      <trkpt lat="41.26871726475656" lon="0.7978297770023346">
        <ele>989.6</ele>
        <time>2020-10-29T11:02:49.000Z</time>
      </trkpt>
      <trkpt lat="41.26872799359262" lon="0.7978180423378944">
        <ele>989.8</ele>
        <time>2020-10-29T11:02:50.000Z</time>
      </trkpt>
      <trkpt lat="41.268798653036356" lon="0.7978062238544226">
        <ele>989.2</ele>
        <time>2020-10-29T11:02:55.000Z</time>
      </trkpt>
      <trkpt lat="41.26881206408143" lon="0.7978098280727863">
        <ele>989.2</ele>
        <time>2020-10-29T11:02:56.000Z</time>
      </trkpt>
      <trkpt lat="41.2689914368093" lon="0.7978827506303787">
        <ele>988.4</ele>
        <time>2020-10-29T11:03:11.000Z</time>
      </trkpt>
      <trkpt lat="41.26912361942232" lon="0.7979945652186871">
        <ele>987.6</ele>
        <time>2020-10-29T11:03:24.000Z</time>
      </trkpt>
      <trkpt lat="41.269280444830656" lon="0.7981158513575792">
        <ele>987.4</ele>
        <time>2020-10-29T11:03:38.000Z</time>
      </trkpt>
      <trkpt lat="41.26932377927005" lon="0.7981984969228506">
        <ele>988.4</ele>
        <time>2020-10-29T11:03:43.000Z</time>
      </trkpt>
      <trkpt lat="41.269331239163876" lon="0.798216350376606">
        <ele>988.6</ele>
        <time>2020-10-29T11:03:44.000Z</time>
      </trkpt>
      <trkpt lat="41.269366946071386" lon="0.798274353146553">
        <ele>989.2</ele>
        <time>2020-10-29T11:03:48.000Z</time>
      </trkpt>
      <trkpt lat="41.26937499269843" lon="0.7982867583632469">
        <ele>989.4</ele>
        <time>2020-10-29T11:03:49.000Z</time>
      </trkpt>
      <trkpt lat="41.26939167268574" lon="0.7983111497014761">
        <ele>989.6</ele>
        <time>2020-10-29T11:03:51.000Z</time>
      </trkpt>
      <trkpt lat="41.26949996687472" lon="0.7985180150717497">
        <ele>992</ele>
        <time>2020-10-29T11:04:06.000Z</time>
      </trkpt>
      <trkpt lat="41.269592083990574" lon="0.798659585416317">
        <ele>993.4</ele>
        <time>2020-10-29T11:04:17.000Z</time>
      </trkpt>
      <trkpt lat="41.26960172317922" lon="0.7986688893288374">
        <ele>993.4</ele>
        <time>2020-10-29T11:04:18.000Z</time>
      </trkpt>
      <trkpt lat="41.2696199119091" lon="0.7986871618777514">
        <ele>993.6</ele>
        <time>2020-10-29T11:04:20.000Z</time>
      </trkpt>
      <trkpt lat="41.26966022886336" lon="0.7987336814403534">
        <ele>994</ele>
        <time>2020-10-29T11:04:24.000Z</time>
      </trkpt>
      <trkpt lat="41.269706999883056" lon="0.798798305913806">
        <ele>994.4</ele>
        <time>2020-10-29T11:04:29.000Z</time>
      </trkpt>
      <trkpt lat="41.26971655525267" lon="0.7988106273114681">
        <ele>994.4</ele>
        <time>2020-10-29T11:04:30.000Z</time>
      </trkpt>
      <trkpt lat="41.26984630711377" lon="0.7989917602390051">
        <ele>994.6</ele>
        <time>2020-10-29T11:04:47.000Z</time>
      </trkpt>
      <trkpt lat="41.26995359547436" lon="0.7991977874189615">
        <ele>993.8</ele>
        <time>2020-10-29T11:05:02.000Z</time>
      </trkpt>
      <trkpt lat="41.270036241039634" lon="0.7994077540934086">
        <ele>992.6</ele>
        <time>2020-10-29T11:05:18.000Z</time>
      </trkpt>
      <trkpt lat="41.270066164433956" lon="0.7994263619184494">
        <ele>993</ele>
        <time>2020-10-29T11:05:21.000Z</time>
      </trkpt>
      <trkpt lat="41.27007546834648" lon="0.7994287926703691">
        <ele>993.2</ele>
        <time>2020-10-29T11:05:22.000Z</time>
      </trkpt>
      <trkpt lat="41.27026188187301" lon="0.7994237635284662">
        <ele>997.2</ele>
        <time>2020-10-29T11:05:39.000Z</time>
      </trkpt>
      <trkpt lat="41.27032566815615" lon="0.7994077540934086">
        <ele>998.8</ele>
        <time>2020-10-29T11:05:45.000Z</time>
      </trkpt>
      <trkpt lat="41.27033354714513" lon="0.7994056586176157">
        <ele>998.8</ele>
        <time>2020-10-29T11:05:46.000Z</time>
      </trkpt>
      <trkpt lat="41.27036053687334" lon="0.7994044851511717">
        <ele>998.8</ele>
        <time>2020-10-29T11:05:49.000Z</time>
      </trkpt>
      <trkpt lat="41.27045718021691" lon="0.7994062453508377">
        <ele>998.8</ele>
        <time>2020-10-29T11:06:01.000Z</time>
      </trkpt>
      <trkpt lat="41.270472686737776" lon="0.7994077540934086">
        <ele>998.8</ele>
        <time>2020-10-29T11:06:03.000Z</time>
      </trkpt>
      <trkpt lat="41.270487857982516" lon="0.79940733499825">
        <ele>998.8</ele>
        <time>2020-10-29T11:06:05.000Z</time>
      </trkpt>
      <trkpt lat="41.27064501866698" lon="0.7995002903044224">
        <ele>999.2</ele>
        <time>2020-10-29T11:06:22.000Z</time>
      </trkpt>
      <trkpt lat="41.27071475610137" lon="0.799586707726121">
        <ele>999</ele>
        <time>2020-10-29T11:06:32.000Z</time>
      </trkpt>
      <trkpt lat="41.27088172361255" lon="0.7997043896466494">
        <ele>997.6</ele>
        <time>2020-10-29T11:06:49.000Z</time>
      </trkpt>
      <trkpt lat="41.27095305360854" lon="0.7997721154242754">
        <ele>997.6</ele>
        <time>2020-10-29T11:06:56.000Z</time>
      </trkpt>
      <trkpt lat="41.27096185460687" lon="0.7997835986316204">
        <ele>997.6</ele>
        <time>2020-10-29T11:06:57.000Z</time>
      </trkpt>
      <trkpt lat="41.27101566642523" lon="0.7999102491885424">
        <ele>998.6</ele>
        <time>2020-10-29T11:07:06.000Z</time>
      </trkpt>
      <trkpt lat="41.2710224557668" lon="0.7999240793287754">
        <ele>998.8</ele>
        <time>2020-10-29T11:07:07.000Z</time>
      </trkpt>
      <trkpt lat="41.27107484266162" lon="0.8000223152339458">
        <ele>999.6</ele>
        <time>2020-10-29T11:07:15.000Z</time>
      </trkpt>
      <trkpt lat="41.27107836306095" lon="0.800034049898386">
        <ele>999.6</ele>
        <time>2020-10-29T11:07:16.000Z</time>
      </trkpt>
      <trkpt lat="41.271104430779815" lon="0.8000892028212547">
        <ele>1000</ele>
        <time>2020-10-29T11:07:20.000Z</time>
      </trkpt>
      <trkpt lat="41.27111038193107" lon="0.8001051284372807">
        <ele>1000.2</ele>
        <time>2020-10-29T11:07:21.000Z</time>
      </trkpt>
      <trkpt lat="41.271131839603186" lon="0.8002315275371075">
        <ele>1001.4</ele>
        <time>2020-10-29T11:07:30.000Z</time>
      </trkpt>
      <trkpt lat="41.271135779097676" lon="0.8002424240112305">
        <ele>1001.2</ele>
        <time>2020-10-29T11:07:31.000Z</time>
      </trkpt>
      <trkpt lat="41.27114625647664" lon="0.8002821542322636">
        <ele>1000.8</ele>
        <time>2020-10-29T11:07:34.000Z</time>
      </trkpt>
      <trkpt lat="41.27116377465427" lon="0.8004077151417732">
        <ele>999</ele>
        <time>2020-10-29T11:07:42.000Z</time>
      </trkpt>
      <trkpt lat="41.271172324195504" lon="0.8004396501928568">
        <ele>998.6</ele>
        <time>2020-10-29T11:07:44.000Z</time>
      </trkpt>
      <trkpt lat="41.271260334178805" lon="0.8006382174789906">
        <ele>997.8</ele>
        <time>2020-10-29T11:08:01.000Z</time>
      </trkpt>
      <trkpt lat="41.271301321685314" lon="0.8006543945521116">
        <ele>998.4</ele>
        <time>2020-10-29T11:08:06.000Z</time>
      </trkpt>
      <trkpt lat="41.271336022764444" lon="0.8006753493100405">
        <ele>999</ele>
        <time>2020-10-29T11:08:09.000Z</time>
      </trkpt>
      <trkpt lat="41.27148974686861" lon="0.8007771894335747">
        <ele>1001.2</ele>
        <time>2020-10-29T11:08:27.000Z</time>
      </trkpt>
      <trkpt lat="41.27164816483855" lon="0.8008978050202131">
        <ele>1004.2</ele>
        <time>2020-10-29T11:08:43.000Z</time>
      </trkpt>
      <trkpt lat="41.27165797166526" lon="0.8009033370763063">
        <ele>1004.4</ele>
        <time>2020-10-29T11:08:44.000Z</time>
      </trkpt>
      <trkpt lat="41.27166794613004" lon="0.8009105455130339">
        <ele>1004.6</ele>
        <time>2020-10-29T11:08:45.000Z</time>
      </trkpt>
      <trkpt lat="41.27171630971134" lon="0.8009360264986753">
        <ele>1005.4</ele>
        <time>2020-10-29T11:08:50.000Z</time>
      </trkpt>
      <trkpt lat="41.27172527834773" lon="0.8009366970509291">
        <ele>1005.6</ele>
        <time>2020-10-29T11:08:51.000Z</time>
      </trkpt>
      <trkpt lat="41.27187564969063" lon="0.8009756729006767">
        <ele>1008.8</ele>
        <time>2020-10-29T11:09:08.000Z</time>
      </trkpt>
      <trkpt lat="41.27217320725322" lon="0.801447406411171">
        <ele>1013.6</ele>
        <time>2020-10-29T11:10:18.000Z</time>
      </trkpt>
      <trkpt lat="41.2721998617053" lon="0.8014916628599167">
        <ele>1014.6</ele>
        <time>2020-10-29T11:10:22.000Z</time>
      </trkpt>
      <trkpt lat="41.272225342690945" lon="0.8015339076519012">
        <ele>1015.4</ele>
        <time>2020-10-29T11:10:25.000Z</time>
      </trkpt>
      <trkpt lat="41.27228192053735" lon="0.8016574569046497">
        <ele>1017.6</ele>
        <time>2020-10-29T11:10:36.000Z</time>
      </trkpt>
      <trkpt lat="41.272282004356384" lon="0.8016704488545656">
        <ele>1017.8</ele>
        <time>2020-10-29T11:10:37.000Z</time>
      </trkpt>
      <trkpt lat="41.272307904437184" lon="0.8017430361360312">
        <ele>1018.8</ele>
        <time>2020-10-29T11:10:43.000Z</time>
      </trkpt>
      <trkpt lat="41.27231410704553" lon="0.801754267886281">
        <ele>1019</ele>
        <time>2020-10-29T11:10:44.000Z</time>
      </trkpt>
      <trkpt lat="41.27234277315438" lon="0.8018395956605673">
        <ele>1020</ele>
        <time>2020-10-29T11:10:52.000Z</time>
      </trkpt>
      <trkpt lat="41.272348472848535" lon="0.8018490672111511">
        <ele>1020</ele>
        <time>2020-10-29T11:10:53.000Z</time>
      </trkpt>
      <trkpt lat="41.27246204763651" lon="0.8020421024411917">
        <ele>1023</ele>
        <time>2020-10-29T11:11:11.000Z</time>
      </trkpt>
      <trkpt lat="41.27247638069093" lon="0.8020864427089691">
        <ele>1023.4</ele>
        <time>2020-10-29T11:11:14.000Z</time>
      </trkpt>
      <trkpt lat="41.27248015254736" lon="0.8021031226962805">
        <ele>1023.6</ele>
        <time>2020-10-29T11:11:15.000Z</time>
      </trkpt>
      <trkpt lat="41.27250856719911" lon="0.8021812420338392">
        <ele>1024.6</ele>
        <time>2020-10-29T11:11:21.000Z</time>
      </trkpt>
      <trkpt lat="41.27251342870295" lon="0.8021915517747402">
        <ele>1024.6</ele>
        <time>2020-10-29T11:11:22.000Z</time>
      </trkpt>
      <trkpt lat="41.27253823913634" lon="0.8022436872124672">
        <ele>1024.8</ele>
        <time>2020-10-29T11:11:26.000Z</time>
      </trkpt>
      <trkpt lat="41.27254326827824" lon="0.802254332229495">
        <ele>1024.6</ele>
        <time>2020-10-29T11:11:27.000Z</time>
      </trkpt>
      <trkpt lat="41.272558607161045" lon="0.8022995945066214">
        <ele>1024</ele>
        <time>2020-10-29T11:11:30.000Z</time>
      </trkpt>
      <trkpt lat="41.27256849780679" lon="0.8023328706622124">
        <ele>1023.6</ele>
        <time>2020-10-29T11:11:32.000Z</time>
      </trkpt>
      <trkpt lat="41.272658351808786" lon="0.8025459386408329">
        <ele>1020.8</ele>
        <time>2020-10-29T11:11:49.000Z</time>
      </trkpt>
      <trkpt lat="41.272700764238834" lon="0.8026754390448332">
        <ele>1019.8</ele>
        <time>2020-10-29T11:12:01.000Z</time>
      </trkpt>
      <trkpt lat="41.27271895296872" lon="0.802726149559021">
        <ele>1019.6</ele>
        <time>2020-10-29T11:12:05.000Z</time>
      </trkpt>
      <trkpt lat="41.272725742310286" lon="0.8027377165853977">
        <ele>1019.6</ele>
        <time>2020-10-29T11:12:06.000Z</time>
      </trkpt>
      <trkpt lat="41.272751558572054" lon="0.802776524797082">
        <ele>1019.4</ele>
        <time>2020-10-29T11:12:10.000Z</time>
      </trkpt>
      <trkpt lat="41.272776955738664" lon="0.8028019219636917">
        <ele>1019.2</ele>
        <time>2020-10-29T11:12:13.000Z</time>
      </trkpt>
      <trkpt lat="41.27280411310494" lon="0.8028579968959093">
        <ele>1019</ele>
        <time>2020-10-29T11:12:20.000Z</time>
      </trkpt>
      <trkpt lat="41.273041907697916" lon="0.802691113203764">
        <ele>1023.4</ele>
        <time>2020-10-29T11:12:49.000Z</time>
      </trkpt>
      <trkpt lat="41.27311239950359" lon="0.8026495389640331">
        <ele>1025</ele>
        <time>2020-10-29T11:12:55.000Z</time>
      </trkpt>
      <trkpt lat="41.273122457787395" lon="0.8026434201747179">
        <ele>1025.2</ele>
        <time>2020-10-29T11:12:56.000Z</time>
      </trkpt>
      <trkpt lat="41.273282803595066" lon="0.8025285042822361">
        <ele>1028.8</ele>
        <time>2020-10-29T11:13:12.000Z</time>
      </trkpt>
      <trkpt lat="41.27334013581276" lon="0.8025205414742231">
        <ele>1029.6</ele>
        <time>2020-10-29T11:13:16.000Z</time>
      </trkpt>
      <trkpt lat="41.27336754463613" lon="0.8025233913213015">
        <ele>1029.8</ele>
        <time>2020-10-29T11:13:18.000Z</time>
      </trkpt>
      <trkpt lat="41.27339344471693" lon="0.8025321923196316">
        <ele>1029.8</ele>
        <time>2020-10-29T11:13:20.000Z</time>
      </trkpt>
      <trkpt lat="41.27344214357436" lon="0.8025458548218012">
        <ele>1030</ele>
        <time>2020-10-29T11:13:25.000Z</time>
      </trkpt>
      <trkpt lat="41.27347215078771" lon="0.8025440946221352">
        <ele>1030.2</ele>
        <time>2020-10-29T11:13:27.000Z</time>
      </trkpt>
      <trkpt lat="41.27355236560106" lon="0.8025586791336536">
        <ele>1029.6</ele>
        <time>2020-10-29T11:13:34.000Z</time>
      </trkpt>
      <trkpt lat="41.273566614836454" lon="0.8025617804378271">
        <ele>1029.6</ele>
        <time>2020-10-29T11:13:35.000Z</time>
      </trkpt>
      <trkpt lat="41.27373140305281" lon="0.8026799652725458">
        <ele>1028.2</ele>
        <time>2020-10-29T11:13:49.000Z</time>
      </trkpt>
      <trkpt lat="41.27375487238169" lon="0.8026927895843983">
        <ele>1028.2</ele>
        <time>2020-10-29T11:13:51.000Z</time>
      </trkpt>
      <trkpt lat="41.27377607859671" lon="0.8027094695717096">
        <ele>1028</ele>
        <time>2020-10-29T11:13:53.000Z</time>
      </trkpt>
      <trkpt lat="41.27384698949754" lon="0.8027873374521732">
        <ele>1027.4</ele>
        <time>2020-10-29T11:14:00.000Z</time>
      </trkpt>
      <trkpt lat="41.27385864034295" lon="0.8028009999543428">
        <ele>1027.2</ele>
        <time>2020-10-29T11:14:01.000Z</time>
      </trkpt>
      <trkpt lat="41.27392997033894" lon="0.8029390498995781">
        <ele>1026.4</ele>
        <time>2020-10-29T11:14:11.000Z</time>
      </trkpt>
      <trkpt lat="41.273936005309224" lon="0.8029546402394772">
        <ele>1026.4</ele>
        <time>2020-10-29T11:14:12.000Z</time>
      </trkpt>
      <trkpt lat="41.27401487901807" lon="0.8031688816845417">
        <ele>1022.6</ele>
        <time>2020-10-29T11:14:26.000Z</time>
      </trkpt>
      <trkpt lat="41.274036671966314" lon="0.8032000623643398">
        <ele>1021.8</ele>
        <time>2020-10-29T11:14:29.000Z</time>
      </trkpt>
      <trkpt lat="41.27404488623142" lon="0.8032082766294479">
        <ele>1021.4</ele>
        <time>2020-10-29T11:14:30.000Z</time>
      </trkpt>
      <trkpt lat="41.274225767701864" lon="0.8031889144331217">
        <ele>1020.8</ele>
        <time>2020-10-29T11:14:46.000Z</time>
      </trkpt>
      <trkpt lat="41.27423574216664" lon="0.8031821250915527">
        <ele>1020.8</ele>
        <time>2020-10-29T11:14:47.000Z</time>
      </trkpt>
      <trkpt lat="41.27427186816931" lon="0.803160835057497">
        <ele>1021.2</ele>
        <time>2020-10-29T11:14:51.000Z</time>
      </trkpt>
      <trkpt lat="41.2743622250855" lon="0.8031107950955629">
        <ele>1022</ele>
        <time>2020-10-29T11:15:00.000Z</time>
      </trkpt>
      <trkpt lat="41.27437127754092" lon="0.803105179220438">
        <ele>1022.2</ele>
        <time>2020-10-29T11:15:01.000Z</time>
      </trkpt>
      <trkpt lat="41.274450067430735" lon="0.8030684664845467">
        <ele>1022.6</ele>
        <time>2020-10-29T11:15:10.000Z</time>
      </trkpt>
      <trkpt lat="41.274459371343255" lon="0.803065113723278">
        <ele>1022.6</ele>
        <time>2020-10-29T11:15:11.000Z</time>
      </trkpt>
      <trkpt lat="41.27449591644108" lon="0.8030525408685207">
        <ele>1022.8</ele>
        <time>2020-10-29T11:15:15.000Z</time>
      </trkpt>
      <trkpt lat="41.274591805413365" lon="0.8030298259109259">
        <ele>1022.2</ele>
        <time>2020-10-29T11:15:27.000Z</time>
      </trkpt>
      <trkpt lat="41.2746021989733" lon="0.8030274789780378">
        <ele>1022.2</ele>
        <time>2020-10-29T11:15:28.000Z</time>
      </trkpt>
      <trkpt lat="41.274636229500175" lon="0.8030242100358009">
        <ele>1022</ele>
        <time>2020-10-29T11:15:31.000Z</time>
      </trkpt>
      <trkpt lat="41.27478685230017" lon="0.8030370343476534">
        <ele>1021</ele>
        <time>2020-10-29T11:15:46.000Z</time>
      </trkpt>
      <trkpt lat="41.27480805851519" lon="0.8030449971556664">
        <ele>1021</ele>
        <time>2020-10-29T11:15:50.000Z</time>
      </trkpt>
      <trkpt lat="41.27496303990483" lon="0.8031153213232756">
        <ele>1019.6</ele>
        <time>2020-10-29T11:16:08.000Z</time>
      </trkpt>
      <trkpt lat="41.27504685893655" lon="0.8031469210982323">
        <ele>1019</ele>
        <time>2020-10-29T11:16:29.000Z</time>
      </trkpt>
      <trkpt lat="41.275134617462754" lon="0.8031473401933908">
        <ele>1018.6</ele>
        <time>2020-10-29T11:16:36.000Z</time>
      </trkpt>
      <trkpt lat="41.27514752559364" lon="0.8031456638127565">
        <ele>1018.4</ele>
        <time>2020-10-29T11:16:37.000Z</time>
      </trkpt>
      <trkpt lat="41.27532647922635" lon="0.8030993957072496">
        <ele>1017.6</ele>
        <time>2020-10-29T11:16:53.000Z</time>
      </trkpt>
      <trkpt lat="41.27536218613386" lon="0.803084559738636">
        <ele>1017.4</ele>
        <time>2020-10-29T11:16:56.000Z</time>
      </trkpt>
      <trkpt lat="41.27537677064538" lon="0.8030848111957312">
        <ele>1017.4</ele>
        <time>2020-10-29T11:16:57.000Z</time>
      </trkpt>
      <trkpt lat="41.27547601237893" lon="0.8030470926314592">
        <ele>1017</ele>
        <time>2020-10-29T11:17:05.000Z</time>
      </trkpt>
      <trkpt lat="41.27548816613853" lon="0.8030466735363007">
        <ele>1016.8</ele>
        <time>2020-10-29T11:17:06.000Z</time>
      </trkpt>
      <trkpt lat="41.27566376700997" lon="0.8031061850488186">
        <ele>1015.8</ele>
        <time>2020-10-29T11:17:20.000Z</time>
      </trkpt>
      <trkpt lat="41.27575043588877" lon="0.8031594101339579">
        <ele>1015.8</ele>
        <time>2020-10-29T11:17:28.000Z</time>
      </trkpt>
      <trkpt lat="41.2757729832083" lon="0.8031708095222712">
        <ele>1015.4</ele>
        <time>2020-10-29T11:17:30.000Z</time>
      </trkpt>
      <trkpt lat="41.275829058140516" lon="0.8031936921179295">
        <ele>1014.8</ele>
        <time>2020-10-29T11:17:35.000Z</time>
      </trkpt>
      <trkpt lat="41.27584179863334" lon="0.803203834220767">
        <ele>1014.8</ele>
        <time>2020-10-29T11:17:36.000Z</time>
      </trkpt>
      <trkpt lat="41.275878343731165" lon="0.80325479619205">
        <ele>1015</ele>
        <time>2020-10-29T11:17:40.000Z</time>
      </trkpt>
      <trkpt lat="41.27588697709143" lon="0.8032702188938856">
        <ele>1015.2</ele>
        <time>2020-10-29T11:17:41.000Z</time>
      </trkpt>
      <trkpt lat="41.275991667062044" lon="0.8033640962094069">
        <ele>1015</ele>
        <time>2020-10-29T11:17:51.000Z</time>
      </trkpt>
      <trkpt lat="41.27600030042231" lon="0.8033707179129124">
        <ele>1015</ele>
        <time>2020-10-29T11:17:52.000Z</time>
      </trkpt>
      <trkpt lat="41.276039108633995" lon="0.8034091908484697">
        <ele>1014.8</ele>
        <time>2020-10-29T11:17:57.000Z</time>
      </trkpt>
      <trkpt lat="41.27604849636555" lon="0.803418243303895">
        <ele>1014.8</ele>
        <time>2020-10-29T11:17:58.000Z</time>
      </trkpt>
      <trkpt lat="41.27608856186271" lon="0.8034490887075663">
        <ele>1014.6</ele>
        <time>2020-10-29T11:18:02.000Z</time>
      </trkpt>
      <trkpt lat="41.27609887160361" lon="0.8034579735249281">
        <ele>1014.6</ele>
        <time>2020-10-29T11:18:03.000Z</time>
      </trkpt>
      <trkpt lat="41.276191994547844" lon="0.8035340812057257">
        <ele>1014.2</ele>
        <time>2020-10-29T11:18:14.000Z</time>
      </trkpt>
      <trkpt lat="41.27620004117489" lon="0.8035438880324364">
        <ele>1014.4</ele>
        <time>2020-10-29T11:18:15.000Z</time>
      </trkpt>
      <trkpt lat="41.276266761124134" lon="0.803594933822751">
        <ele>1014</ele>
        <time>2020-10-29T11:18:22.000Z</time>
      </trkpt>
      <trkpt lat="41.27627866342664" lon="0.803601136431098">
        <ele>1013.8</ele>
        <time>2020-10-29T11:18:23.000Z</time>
      </trkpt>
      <trkpt lat="41.276320992037654" lon="0.8036362566053867">
        <ele>1013.8</ele>
        <time>2020-10-29T11:18:27.000Z</time>
      </trkpt>
      <trkpt lat="41.27637413330376" lon="0.803698617964983">
        <ele>1014</ele>
        <time>2020-10-29T11:18:32.000Z</time>
      </trkpt>
      <trkpt lat="41.27638368867338" lon="0.8037085086107254">
        <ele>1014</ele>
        <time>2020-10-29T11:18:33.000Z</time>
      </trkpt>
      <trkpt lat="41.27643205225468" lon="0.8037925790995359">
        <ele>1014.6</ele>
        <time>2020-10-29T11:18:39.000Z</time>
      </trkpt>
      <trkpt lat="41.276447139680386" lon="0.8038166351616383">
        <ele>1014.8</ele>
        <time>2020-10-29T11:18:41.000Z</time>
      </trkpt>
      <trkpt lat="41.276532132178545" lon="0.8040336426347494">
        <ele>1018.8</ele>
        <time>2020-10-29T11:18:55.000Z</time>
      </trkpt>
      <trkpt lat="41.27657211385667" lon="0.8041223231703043">
        <ele>1020.6</ele>
        <time>2020-10-29T11:19:02.000Z</time>
      </trkpt>
      <trkpt lat="41.27658560872078" lon="0.8041547611355782">
        <ele>1021.2</ele>
        <time>2020-10-29T11:19:04.000Z</time>
      </trkpt>
      <trkpt lat="41.27660279162228" lon="0.8041868638247252">
        <ele>1021.8</ele>
        <time>2020-10-29T11:19:06.000Z</time>
      </trkpt>
      <trkpt lat="41.27664520405233" lon="0.8044121693819761">
        <ele>1026.4</ele>
        <time>2020-10-29T11:19:24.000Z</time>
      </trkpt>
      <trkpt lat="41.276760287582874" lon="0.8045975770801306">
        <ele>1029.8</ele>
        <time>2020-10-29T11:19:40.000Z</time>
      </trkpt>
      <trkpt lat="41.276799933984876" lon="0.8048098906874657">
        <ele>1033.6</ele>
        <time>2020-10-29T11:19:57.000Z</time>
      </trkpt>
      <trkpt lat="41.27680907025933" lon="0.8048782031983137">
        <ele>1034.6</ele>
        <time>2020-10-29T11:20:03.000Z</time>
      </trkpt>
      <trkpt lat="41.27679616212845" lon="0.8049372117966413">
        <ele>1035.6</ele>
        <time>2020-10-29T11:20:09.000Z</time>
      </trkpt>
      <trkpt lat="41.27678987570107" lon="0.8050129003822803">
        <ele>1036.8</ele>
        <time>2020-10-29T11:20:16.000Z</time>
      </trkpt>
      <trkpt lat="41.27688014879823" lon="0.8052190952003002">
        <ele>1038.2</ele>
        <time>2020-10-29T11:20:33.000Z</time>
      </trkpt>
      <trkpt lat="41.276930859312415" lon="0.8053373638540506">
        <ele>1038.4</ele>
        <time>2020-10-29T11:20:44.000Z</time>
      </trkpt>
      <trkpt lat="41.27698777243495" lon="0.8053607493638992">
        <ele>1039.4</ele>
        <time>2020-10-29T11:20:49.000Z</time>
      </trkpt>
      <trkpt lat="41.27700001001358" lon="0.8053698856383562">
        <ele>1039.6</ele>
        <time>2020-10-29T11:20:50.000Z</time>
      </trkpt>
      <trkpt lat="41.2771562486887" lon="0.805514557287097">
        <ele>1041.6</ele>
        <time>2020-10-29T11:21:05.000Z</time>
      </trkpt>
      <trkpt lat="41.27716303803027" lon="0.8055647648870945">
        <ele>1041.6</ele>
        <time>2020-10-29T11:21:12.000Z</time>
      </trkpt>
      <trkpt lat="41.2775344401598" lon="0.8058080915361643">
        <ele>1036.2</ele>
        <time>2020-10-29T11:23:05.000Z</time>
      </trkpt>
      <trkpt lat="41.2775500304997" lon="0.8058745600283146">
        <ele>1035.8</ele>
        <time>2020-10-29T11:23:09.000Z</time>
      </trkpt>
      <trkpt lat="41.27755472436547" lon="0.8058943413197994">
        <ele>1035.6</ele>
        <time>2020-10-29T11:23:10.000Z</time>
      </trkpt>
      <trkpt lat="41.27755363471806" lon="0.8059526793658733">
        <ele>1035.4</ele>
        <time>2020-10-29T11:23:14.000Z</time>
      </trkpt>
      <trkpt lat="41.277529913932085" lon="0.8060727082192898">
        <ele>1036</ele>
        <time>2020-10-29T11:23:25.000Z</time>
      </trkpt>
      <trkpt lat="41.2775273155421" lon="0.8062028791755438">
        <ele>1036</ele>
        <time>2020-10-29T11:23:46.000Z</time>
      </trkpt>
      <trkpt lat="41.277463613078" lon="0.8064211439341307">
        <ele>1037.2</ele>
        <time>2020-10-29T11:24:07.000Z</time>
      </trkpt>
      <trkpt lat="41.277463026344776" lon="0.806435476988554">
        <ele>1037</ele>
        <time>2020-10-29T11:24:08.000Z</time>
      </trkpt>
      <trkpt lat="41.27740007825196" lon="0.806658435612917">
        <ele>1038</ele>
        <time>2020-10-29T11:24:24.000Z</time>
      </trkpt>
      <trkpt lat="41.27731332555413" lon="0.8068679831922054">
        <ele>1041.6</ele>
        <time>2020-10-29T11:24:38.000Z</time>
      </trkpt>
      <trkpt lat="41.27731022424996" lon="0.8071123156696558">
        <ele>1041.6</ele>
        <time>2020-10-29T11:24:53.000Z</time>
      </trkpt>
      <trkpt lat="41.2773079611361" lon="0.8071278221905231">
        <ele>1041.6</ele>
        <time>2020-10-29T11:24:54.000Z</time>
      </trkpt>
      <trkpt lat="41.27730653621256" lon="0.8071426581591368">
        <ele>1041.6</ele>
        <time>2020-10-29T11:24:55.000Z</time>
      </trkpt>
      <trkpt lat="41.27732296474278" lon="0.8073323406279087">
        <ele>1041.2</ele>
        <time>2020-10-29T11:25:06.000Z</time>
      </trkpt>
      <trkpt lat="41.27733511850238" lon="0.8073632698506117">
        <ele>1040.6</ele>
        <time>2020-10-29T11:25:08.000Z</time>
      </trkpt>
      <trkpt lat="41.277336878702044" lon="0.8076066803187132">
        <ele>1041</ele>
        <time>2020-10-29T11:25:24.000Z</time>
      </trkpt>
      <trkpt lat="41.27731902524829" lon="0.8076854702085257">
        <ele>1041.6</ele>
        <time>2020-10-29T11:25:30.000Z</time>
      </trkpt>
      <trkpt lat="41.2773166783154" lon="0.8076964505016804">
        <ele>1041.8</ele>
        <time>2020-10-29T11:25:31.000Z</time>
      </trkpt>
      <trkpt lat="41.27728633582592" lon="0.8077787607908249">
        <ele>1042.6</ele>
        <time>2020-10-29T11:25:36.000Z</time>
      </trkpt>
      <trkpt lat="41.2772788759321" lon="0.8077948540449142">
        <ele>1042.6</ele>
        <time>2020-10-29T11:25:37.000Z</time>
      </trkpt>
      <trkpt lat="41.277251383289695" lon="0.808032900094986">
        <ele>1043</ele>
        <time>2020-10-29T11:25:51.000Z</time>
      </trkpt>
      <trkpt lat="41.27724979072809" lon="0.8080494962632656">
        <ele>1043.4</ele>
        <time>2020-10-29T11:25:52.000Z</time>
      </trkpt>
      <trkpt lat="41.27724811434746" lon="0.8080766536295414">
        <ele>1043.4</ele>
        <time>2020-10-29T11:25:54.000Z</time>
      </trkpt>
      <trkpt lat="41.2772424146533" lon="0.8081092592328787">
        <ele>1043.6</ele>
        <time>2020-10-29T11:25:56.000Z</time>
      </trkpt>
      <trkpt lat="41.27722028642893" lon="0.8082382567226887">
        <ele>1043.8</ele>
        <time>2020-10-29T11:26:04.000Z</time>
      </trkpt>
      <trkpt lat="41.27721986733377" lon="0.8082492370158434">
        <ele>1043.8</ele>
        <time>2020-10-29T11:26:05.000Z</time>
      </trkpt>
      <trkpt lat="41.27721458673477" lon="0.8082683477550745">
        <ele>1044</ele>
        <time>2020-10-29T11:26:07.000Z</time>
      </trkpt>
      <trkpt lat="41.27729329280555" lon="0.8083649072796106">
        <ele>1043.4</ele>
        <time>2020-10-29T11:26:19.000Z</time>
      </trkpt>
      <trkpt lat="41.27730058506131" lon="0.8083744626492262">
        <ele>1043.4</ele>
        <time>2020-10-29T11:26:20.000Z</time>
      </trkpt>
      <trkpt lat="41.27736252732575" lon="0.808479655534029">
        <ele>1042.6</ele>
        <time>2020-10-29T11:26:29.000Z</time>
      </trkpt>
      <trkpt lat="41.27736948430538" lon="0.8084890432655811">
        <ele>1042.4</ele>
        <time>2020-10-29T11:26:30.000Z</time>
      </trkpt>
      <trkpt lat="41.277382392436266" lon="0.8085115067660809">
        <ele>1042.4</ele>
        <time>2020-10-29T11:26:32.000Z</time>
      </trkpt>
      <trkpt lat="41.27743553370237" lon="0.808644276112318">
        <ele>1041.8</ele>
        <time>2020-10-29T11:26:40.000Z</time>
      </trkpt>
      <trkpt lat="41.277450704947114" lon="0.8086929749697447">
        <ele>1041.6</ele>
        <time>2020-10-29T11:26:43.000Z</time>
      </trkpt>
      <trkpt lat="41.27747752703726" lon="0.8087597787380219">
        <ele>1041.2</ele>
        <time>2020-10-29T11:26:48.000Z</time>
      </trkpt>
      <trkpt lat="41.27748389728367" lon="0.8087757043540478">
        <ele>1041.2</ele>
        <time>2020-10-29T11:26:49.000Z</time>
      </trkpt>
      <trkpt lat="41.277561681345105" lon="0.8090006746351719">
        <ele>1042.4</ele>
        <time>2020-10-29T11:27:04.000Z</time>
      </trkpt>
      <trkpt lat="41.27763384953141" lon="0.8091290853917599">
        <ele>1043.8</ele>
        <time>2020-10-29T11:27:15.000Z</time>
      </trkpt>
      <trkpt lat="41.27763812430203" lon="0.8091407362371683">
        <ele>1044</ele>
        <time>2020-10-29T11:27:16.000Z</time>
      </trkpt>
      <trkpt lat="41.277685733512044" lon="0.8092218730598688">
        <ele>1044.8</ele>
        <time>2020-10-29T11:27:22.000Z</time>
      </trkpt>
      <trkpt lat="41.27769495360553" lon="0.8092343620955944">
        <ele>1045</ele>
        <time>2020-10-29T11:27:23.000Z</time>
      </trkpt>
      <trkpt lat="41.277725379914045" lon="0.8093078713864088">
        <ele>1046</ele>
        <time>2020-10-29T11:27:27.000Z</time>
      </trkpt>
      <trkpt lat="41.2777863163501" lon="0.8095346018671989">
        <ele>1046.8</ele>
        <time>2020-10-29T11:27:40.000Z</time>
      </trkpt>
      <trkpt lat="41.27779251895845" lon="0.8095704764127731">
        <ele>1046.8</ele>
        <time>2020-10-29T11:27:42.000Z</time>
      </trkpt>
      <trkpt lat="41.277795284986496" lon="0.8095882460474968">
        <ele>1046.8</ele>
        <time>2020-10-29T11:27:43.000Z</time>
      </trkpt>
      <trkpt lat="41.27780190669" lon="0.809626467525959">
        <ele>1047</ele>
        <time>2020-10-29T11:27:45.000Z</time>
      </trkpt>
      <trkpt lat="41.27780852839351" lon="0.8098663575947285">
        <ele>1047.8</ele>
        <time>2020-10-29T11:27:59.000Z</time>
      </trkpt>
      <trkpt lat="41.27777189947665" lon="0.8100930880755186">
        <ele>1048.4</ele>
        <time>2020-10-29T11:28:13.000Z</time>
      </trkpt>
      <trkpt lat="41.27776678651571" lon="0.8101087622344494">
        <ele>1048.6</ele>
        <time>2020-10-29T11:28:14.000Z</time>
      </trkpt>
      <trkpt lat="41.277763517573476" lon="0.8101902343332767">
        <ele>1048.8</ele>
        <time>2020-10-29T11:28:19.000Z</time>
      </trkpt>
      <trkpt lat="41.277763517573476" lon="0.8102069981396198">
        <ele>1049</ele>
        <time>2020-10-29T11:28:20.000Z</time>
      </trkpt>
      <trkpt lat="41.27775044180453" lon="0.8102753944694996">
        <ele>1049.4</ele>
        <time>2020-10-29T11:28:24.000Z</time>
      </trkpt>
      <trkpt lat="41.27773300744593" lon="0.8104035537689924">
        <ele>1050.4</ele>
        <time>2020-10-29T11:28:32.000Z</time>
      </trkpt>
      <trkpt lat="41.27773141488433" lon="0.8104209043085575">
        <ele>1050.6</ele>
        <time>2020-10-29T11:28:33.000Z</time>
      </trkpt>
      <trkpt lat="41.27772253006697" lon="0.8104884624481201">
        <ele>1051</ele>
        <time>2020-10-29T11:28:37.000Z</time>
      </trkpt>
      <trkpt lat="41.27782587893307" lon="0.810616035014391">
        <ele>1050.8</ele>
        <time>2020-10-29T11:28:55.000Z</time>
      </trkpt>
      <trkpt lat="41.27787038683891" lon="0.8106043841689825">
        <ele>1050.8</ele>
        <time>2020-10-29T11:28:59.000Z</time>
      </trkpt>
      <trkpt lat="41.277881702408195" lon="0.8106016181409359">
        <ele>1050.8</ele>
        <time>2020-10-29T11:29:00.000Z</time>
      </trkpt>
      <trkpt lat="41.27806040458381" lon="0.8105918113142252">
        <ele>1050.8</ele>
        <time>2020-10-29T11:29:15.000Z</time>
      </trkpt>
      <trkpt lat="41.278241369873285" lon="0.8106334693729877">
        <ele>1049.8</ele>
        <time>2020-10-29T11:29:31.000Z</time>
      </trkpt>
      <trkpt lat="41.2782527692616" lon="0.8106372412294149">
        <ele>1049.6</ele>
        <time>2020-10-29T11:29:32.000Z</time>
      </trkpt>
      <trkpt lat="41.278309263288975" lon="0.8107023686170578">
        <ele>1049</ele>
        <time>2020-10-29T11:29:38.000Z</time>
      </trkpt>
      <trkpt lat="41.27832041122019" lon="0.8107110857963562">
        <ele>1049</ele>
        <time>2020-10-29T11:29:39.000Z</time>
      </trkpt>
      <trkpt lat="41.27837631851435" lon="0.8107754588127136">
        <ele>1048.4</ele>
        <time>2020-10-29T11:29:50.000Z</time>
      </trkpt>
      <trkpt lat="41.27840909175575" lon="0.8108218107372522">
        <ele>1048</ele>
        <time>2020-10-29T11:29:54.000Z</time>
      </trkpt>
      <trkpt lat="41.278441194444895" lon="0.8108261693269014">
        <ele>1047.6</ele>
        <time>2020-10-29T11:29:58.000Z</time>
      </trkpt>
      <trkpt lat="41.278598103672266" lon="0.8109648898243904">
        <ele>1045.8</ele>
        <time>2020-10-29T11:30:15.000Z</time>
      </trkpt>
      <trkpt lat="41.27869684249163" lon="0.8110642991960049">
        <ele>1044.8</ele>
        <time>2020-10-29T11:30:26.000Z</time>
      </trkpt>
      <trkpt lat="41.27870530821383" lon="0.8110730163753033">
        <ele>1044.8</ele>
        <time>2020-10-29T11:30:27.000Z</time>
      </trkpt>
      <trkpt lat="41.27874528989196" lon="0.8111282531172037">
        <ele>1044.4</ele>
        <time>2020-10-29T11:30:32.000Z</time>
      </trkpt>
      <trkpt lat="41.27875207923353" lon="0.8111414965242147">
        <ele>1044.2</ele>
        <time>2020-10-29T11:30:33.000Z</time>
      </trkpt>
      <trkpt lat="41.278814943507314" lon="0.8112139999866486">
        <ele>1043.6</ele>
        <time>2020-10-29T11:30:40.000Z</time>
      </trkpt>
      <trkpt lat="41.27882500179112" lon="0.8112199511379004">
        <ele>1043.4</ele>
        <time>2020-10-29T11:30:41.000Z</time>
      </trkpt>
      <trkpt lat="41.27887445501983" lon="0.8112461026757956">
        <ele>1043</ele>
        <time>2020-10-29T11:30:45.000Z</time>
      </trkpt>
      <trkpt lat="41.278886776417494" lon="0.8112513832747936">
        <ele>1042.8</ele>
        <time>2020-10-29T11:30:46.000Z</time>
      </trkpt>
      <trkpt lat="41.27890320494771" lon="0.8112679794430733">
        <ele>1042.6</ele>
        <time>2020-10-29T11:30:51.000Z</time>
      </trkpt>
      <trkpt lat="41.27886330708861" lon="0.8113034348934889">
        <ele>1043</ele>
        <time>2020-10-29T11:31:00.000Z</time>
      </trkpt>
      <trkpt lat="41.27885467372835" lon="0.8113143313676119">
        <ele>1042.8</ele>
        <time>2020-10-29T11:31:01.000Z</time>
      </trkpt>
      <trkpt lat="41.278841346502304" lon="0.8113875053822994">
        <ele>1042.2</ele>
        <time>2020-10-29T11:31:06.000Z</time>
      </trkpt>
      <trkpt lat="41.278843190521" lon="0.8114047721028328">
        <ele>1042.2</ele>
        <time>2020-10-29T11:31:07.000Z</time>
      </trkpt>
      <trkpt lat="41.278797425329685" lon="0.8115682192146778">
        <ele>1042.4</ele>
        <time>2020-10-29T11:31:16.000Z</time>
      </trkpt>
      <trkpt lat="41.27879759296775" lon="0.8115838933736086">
        <ele>1042.4</ele>
        <time>2020-10-29T11:31:17.000Z</time>
      </trkpt>
      <trkpt lat="41.278795497491956" lon="0.8116922713816166">
        <ele>1042.4</ele>
        <time>2020-10-29T11:31:23.000Z</time>
      </trkpt>
      <trkpt lat="41.27879231236875" lon="0.8117226138710976">
        <ele>1042.4</ele>
        <time>2020-10-29T11:31:25.000Z</time>
      </trkpt>
      <trkpt lat="41.27878057770431" lon="0.8117661159485579">
        <ele>1042.4</ele>
        <time>2020-10-29T11:31:28.000Z</time>
      </trkpt>
      <trkpt lat="41.27876783721149" lon="0.8118260465562344">
        <ele>1042.4</ele>
        <time>2020-10-29T11:31:32.000Z</time>
      </trkpt>
      <trkpt lat="41.27876792103052" lon="0.8118348475545645">
        <ele>1042.4</ele>
        <time>2020-10-29T11:31:33.000Z</time>
      </trkpt>
      <trkpt lat="41.278767585754395" lon="0.8118422236293554">
        <ele>1042.4</ele>
        <time>2020-10-29T11:31:36.000Z</time>
      </trkpt>
      <trkpt lat="41.278718300163746" lon="0.8119158167392015">
        <ele>1042.6</ele>
        <time>2020-10-29T11:31:53.000Z</time>
      </trkpt>
      <trkpt lat="41.278656693175435" lon="0.8121355902403593">
        <ele>1043</ele>
        <time>2020-10-29T11:32:08.000Z</time>
      </trkpt>
      <trkpt lat="41.278663482517004" lon="0.8123847842216492">
        <ele>1045.4</ele>
        <time>2020-10-29T11:32:22.000Z</time>
      </trkpt>
      <trkpt lat="41.278674798086286" lon="0.8124649990350008">
        <ele>1046.6</ele>
        <time>2020-10-29T11:32:27.000Z</time>
      </trkpt>
      <trkpt lat="41.2786827608943" lon="0.8125208225101233">
        <ele>1047.4</ele>
        <time>2020-10-29T11:32:30.000Z</time>
      </trkpt>
      <trkpt lat="41.27868913114071" lon="0.8126308768987656">
        <ele>1049</ele>
        <time>2020-10-29T11:32:36.000Z</time>
      </trkpt>
      <trkpt lat="41.27868812531233" lon="0.8126459643244743">
        <ele>1049.2</ele>
        <time>2020-10-29T11:32:37.000Z</time>
      </trkpt>
      <trkpt lat="41.27873866818845" lon="0.812848974019289">
        <ele>1051.6</ele>
        <time>2020-10-29T11:32:50.000Z</time>
      </trkpt>
      <trkpt lat="41.278743194416165" lon="0.8128712698817253">
        <ele>1051.8</ele>
        <time>2020-10-29T11:32:52.000Z</time>
      </trkpt>
      <trkpt lat="41.27882064320147" lon="0.8130950666964054">
        <ele>1053</ele>
        <time>2020-10-29T11:33:07.000Z</time>
      </trkpt>
      <trkpt lat="41.27886448055506" lon="0.81333227455616">
        <ele>1053</ele>
        <time>2020-10-29T11:33:24.000Z</time>
      </trkpt>
      <trkpt lat="41.27889817580581" lon="0.8135084621608257">
        <ele>1053</ele>
        <time>2020-10-29T11:33:35.000Z</time>
      </trkpt>
      <trkpt lat="41.27890136092901" lon="0.8135243039578199">
        <ele>1053</ele>
        <time>2020-10-29T11:33:36.000Z</time>
      </trkpt>
      <trkpt lat="41.2789053004235" lon="0.8135512098670006">
        <ele>1053</ele>
        <time>2020-10-29T11:33:38.000Z</time>
      </trkpt>
      <trkpt lat="41.27892332151532" lon="0.8135818038135767">
        <ele>1053</ele>
        <time>2020-10-29T11:33:44.000Z</time>
      </trkpt>
      <trkpt lat="41.278893398121" lon="0.813612649217248">
        <ele>1052.8</ele>
        <time>2020-10-29T11:33:48.000Z</time>
      </trkpt>
      <trkpt lat="41.27886573784053" lon="0.813676854595542">
        <ele>1052.6</ele>
        <time>2020-10-29T11:33:52.000Z</time>
      </trkpt>
      <trkpt lat="41.27886112779379" lon="0.8136929478496313">
        <ele>1052.4</ele>
        <time>2020-10-29T11:33:53.000Z</time>
      </trkpt>
      <trkpt lat="41.278819385915995" lon="0.813849437981844">
        <ele>1053</ele>
        <time>2020-10-29T11:34:03.000Z</time>
      </trkpt>
      <trkpt lat="41.27882391214371" lon="0.8138852287083864">
        <ele>1053.2</ele>
        <time>2020-10-29T11:34:05.000Z</time>
      </trkpt>
      <trkpt lat="41.2788363173604" lon="0.8139913436025381">
        <ele>1053</ele>
        <time>2020-10-29T11:34:11.000Z</time>
      </trkpt>
      <trkpt lat="41.27883187495172" lon="0.8140096161514521">
        <ele>1053</ele>
        <time>2020-10-29T11:34:12.000Z</time>
      </trkpt>
      <trkpt lat="41.27880069427192" lon="0.814229054376483">
        <ele>1052.8</ele>
        <time>2020-10-29T11:34:25.000Z</time>
      </trkpt>
      <trkpt lat="41.27879901789129" lon="0.814354196190834">
        <ele>1052.6</ele>
        <time>2020-10-29T11:34:32.000Z</time>
      </trkpt>
      <trkpt lat="41.278800358995795" lon="0.8143950160592794">
        <ele>1052.6</ele>
        <time>2020-10-29T11:34:34.000Z</time>
      </trkpt>
      <trkpt lat="41.27881921827793" lon="0.8146411087363958">
        <ele>1052.4</ele>
        <time>2020-10-29T11:34:48.000Z</time>
      </trkpt>
      <trkpt lat="41.27882014028728" lon="0.814655777066946">
        <ele>1052.4</ele>
        <time>2020-10-29T11:34:49.000Z</time>
      </trkpt>
      <trkpt lat="41.27882936038077" lon="0.8148025441914797">
        <ele>1052</ele>
        <time>2020-10-29T11:34:57.000Z</time>
      </trkpt>
      <trkpt lat="41.27883045002818" lon="0.814819810912013">
        <ele>1052</ele>
        <time>2020-10-29T11:34:58.000Z</time>
      </trkpt>
      <trkpt lat="41.27877714112401" lon="0.8150567673146725">
        <ele>1051</ele>
        <time>2020-10-29T11:35:13.000Z</time>
      </trkpt>
      <trkpt lat="41.27873355522752" lon="0.8152399118989706">
        <ele>1050.4</ele>
        <time>2020-10-29T11:35:25.000Z</time>
      </trkpt>
      <trkpt lat="41.278730956837535" lon="0.8152534905821085">
        <ele>1050.2</ele>
        <time>2020-10-29T11:35:26.000Z</time>
      </trkpt>
      <trkpt lat="41.278716288506985" lon="0.8153327833861113">
        <ele>1050.4</ele>
        <time>2020-10-29T11:35:31.000Z</time>
      </trkpt>
      <trkpt lat="41.27871176227927" lon="0.8153508882969618">
        <ele>1050.6</ele>
        <time>2020-10-29T11:35:32.000Z</time>
      </trkpt>
      <trkpt lat="41.27869592048228" lon="0.8155974000692368">
        <ele>1052.4</ele>
        <time>2020-10-29T11:35:47.000Z</time>
      </trkpt>
      <trkpt lat="41.27869198098779" lon="0.8156318496912718">
        <ele>1052.4</ele>
        <time>2020-10-29T11:35:49.000Z</time>
      </trkpt>
      <trkpt lat="41.27867697738111" lon="0.8158471807837486">
        <ele>1052.2</ele>
        <time>2020-10-29T11:36:02.000Z</time>
      </trkpt>
      <trkpt lat="41.278679659590125" lon="0.8158641960471869">
        <ele>1052</ele>
        <time>2020-10-29T11:36:03.000Z</time>
      </trkpt>
      <trkpt lat="41.2786877900362" lon="0.8160528726875782">
        <ele>1051.4</ele>
        <time>2020-10-29T11:36:15.000Z</time>
      </trkpt>
      <trkpt lat="41.27868879586458" lon="0.8160687144845724">
        <ele>1051.4</ele>
        <time>2020-10-29T11:36:16.000Z</time>
      </trkpt>
      <trkpt lat="41.27867890521884" lon="0.8162216003984213">
        <ele>1052</ele>
        <time>2020-10-29T11:36:30.000Z</time>
      </trkpt>
      <trkpt lat="41.278652753680944" lon="0.8163200039416552">
        <ele>1053.2</ele>
        <time>2020-10-29T11:36:40.000Z</time>
      </trkpt>
      <trkpt lat="41.278534987941384" lon="0.816515302285552">
        <ele>1057.4</ele>
        <time>2020-10-29T11:36:54.000Z</time>
      </trkpt>
      <trkpt lat="41.2785273604095" lon="0.8165278751403093">
        <ele>1057.6</ele>
        <time>2020-10-29T11:36:55.000Z</time>
      </trkpt>
      <trkpt lat="41.27851956523955" lon="0.8165417052805424">
        <ele>1058</ele>
        <time>2020-10-29T11:36:56.000Z</time>
      </trkpt>
      <trkpt lat="41.27850439399481" lon="0.8165683597326279">
        <ele>1058.6</ele>
        <time>2020-10-29T11:36:58.000Z</time>
      </trkpt>
      <trkpt lat="41.278397189453244" lon="0.8167554438114166">
        <ele>1061.8</ele>
        <time>2020-10-29T11:37:14.000Z</time>
      </trkpt>
      <trkpt lat="41.27839459106326" lon="0.816771537065506">
        <ele>1061.8</ele>
        <time>2020-10-29T11:37:15.000Z</time>
      </trkpt>
      <trkpt lat="41.278388891369104" lon="0.8167869597673416">
        <ele>1062</ele>
        <time>2020-10-29T11:37:16.000Z</time>
      </trkpt>
      <trkpt lat="41.27831202931702" lon="0.817012432962656">
        <ele>1063.2</ele>
        <time>2020-10-29T11:37:31.000Z</time>
      </trkpt>
      <trkpt lat="41.27827774733305" lon="0.8170913066715002">
        <ele>1063.6</ele>
        <time>2020-10-29T11:37:36.000Z</time>
      </trkpt>
      <trkpt lat="41.278271712362766" lon="0.8171085733920336">
        <ele>1063.8</ele>
        <time>2020-10-29T11:37:37.000Z</time>
      </trkpt>
      <trkpt lat="41.278274646028876" lon="0.8173452783375978">
        <ele>1065</ele>
        <time>2020-10-29T11:37:52.000Z</time>
      </trkpt>
      <trkpt lat="41.278256457298994" lon="0.8175883535295725">
        <ele>1065.6</ele>
        <time>2020-10-29T11:38:05.000Z</time>
      </trkpt>
      <trkpt lat="41.27824354916811" lon="0.81765859387815">
        <ele>1065.8</ele>
        <time>2020-10-29T11:38:09.000Z</time>
      </trkpt>
      <trkpt lat="41.27824396826327" lon="0.8176778722554445">
        <ele>1065.8</ele>
        <time>2020-10-29T11:38:10.000Z</time>
      </trkpt>
      <trkpt lat="41.278271125629544" lon="0.8178276568651199">
        <ele>1065.8</ele>
        <time>2020-10-29T11:38:19.000Z</time>
      </trkpt>
      <trkpt lat="41.27827255055308" lon="0.8178434986621141">
        <ele>1065.8</ele>
        <time>2020-10-29T11:38:20.000Z</time>
      </trkpt>
      <trkpt lat="41.27829375676811" lon="0.8179947081953287">
        <ele>1065.8</ele>
        <time>2020-10-29T11:38:30.000Z</time>
      </trkpt>
      <trkpt lat="41.27829493023455" lon="0.8180119749158621">
        <ele>1065.8</ele>
        <time>2020-10-29T11:38:31.000Z</time>
      </trkpt>
      <trkpt lat="41.27838637679815" lon="0.8182123024016619">
        <ele>1064.2</ele>
        <time>2020-10-29T11:38:45.000Z</time>
      </trkpt>
      <trkpt lat="41.27850841730833" lon="0.818393686786294">
        <ele>1062.2</ele>
        <time>2020-10-29T11:39:00.000Z</time>
      </trkpt>
      <trkpt lat="41.27858175896108" lon="0.8185284677892923">
        <ele>1061</ele>
        <time>2020-10-29T11:39:09.000Z</time>
      </trkpt>
      <trkpt lat="41.278590727597475" lon="0.818542717024684">
        <ele>1060.8</ele>
        <time>2020-10-29T11:39:10.000Z</time>
      </trkpt>
      <trkpt lat="41.27865510061383" lon="0.8187805116176605">
        <ele>1059.8</ele>
        <time>2020-10-29T11:39:24.000Z</time>
      </trkpt>
      <trkpt lat="41.27865727990866" lon="0.8188397716730833">
        <ele>1059.8</ele>
        <time>2020-10-29T11:39:28.000Z</time>
      </trkpt>
      <trkpt lat="41.27865895628929" lon="0.8188583794981241">
        <ele>1059.6</ele>
        <time>2020-10-29T11:39:29.000Z</time>
      </trkpt>
      <trkpt lat="41.27866867929697" lon="0.8190097566694021">
        <ele>1060.2</ele>
        <time>2020-10-29T11:39:38.000Z</time>
      </trkpt>
      <trkpt lat="41.278667505830526" lon="0.819028951227665">
        <ele>1060.4</ele>
        <time>2020-10-29T11:39:39.000Z</time>
      </trkpt>
      <trkpt lat="41.27862718887627" lon="0.8191824238747358">
        <ele>1061.8</ele>
        <time>2020-10-29T11:39:48.000Z</time>
      </trkpt>
      <trkpt lat="41.27862283028662" lon="0.8191986009478569">
        <ele>1062</ele>
        <time>2020-10-29T11:39:49.000Z</time>
      </trkpt>
      <trkpt lat="41.2785463873297" lon="0.8194225654006004">
        <ele>1064.6</ele>
        <time>2020-10-29T11:40:04.000Z</time>
      </trkpt>
      <trkpt lat="41.27853129990399" lon="0.8196742739528418">
        <ele>1066.8</ele>
        <time>2020-10-29T11:40:19.000Z</time>
      </trkpt>
      <trkpt lat="41.27853138372302" lon="0.819706292822957">
        <ele>1067.2</ele>
        <time>2020-10-29T11:40:21.000Z</time>
      </trkpt>
      <trkpt lat="41.27856935374439" lon="0.8199528884142637">
        <ele>1068.6</ele>
        <time>2020-10-29T11:40:37.000Z</time>
      </trkpt>
      <trkpt lat="41.27857631072402" lon="0.8199809677898884">
        <ele>1068.8</ele>
        <time>2020-10-29T11:40:39.000Z</time>
      </trkpt>
      <trkpt lat="41.27857815474272" lon="0.819996390491724">
        <ele>1068.8</ele>
        <time>2020-10-29T11:40:40.000Z</time>
      </trkpt>
      <trkpt lat="41.27859894186258" lon="0.8201254718005657">
        <ele>1069.6</ele>
        <time>2020-10-29T11:40:48.000Z</time>
      </trkpt>
      <trkpt lat="41.278603887185454" lon="0.8201432414352894">
        <ele>1069.8</ele>
        <time>2020-10-29T11:40:49.000Z</time>
      </trkpt>
      <trkpt lat="41.27868921495974" lon="0.820375420153141">
        <ele>1069</ele>
        <time>2020-10-29T11:41:03.000Z</time>
      </trkpt>
      <trkpt lat="41.2787102535367" lon="0.820424621924758">
        <ele>1068.6</ele>
        <time>2020-10-29T11:41:06.000Z</time>
      </trkpt>
      <trkpt lat="41.27872383221984" lon="0.8205265458673239">
        <ele>1068</ele>
        <time>2020-10-29T11:41:12.000Z</time>
      </trkpt>
      <trkpt lat="41.27872626297176" lon="0.8205452375113964">
        <ele>1067.8</ele>
        <time>2020-10-29T11:41:13.000Z</time>
      </trkpt>
      <trkpt lat="41.27873204648495" lon="0.8206565491855145">
        <ele>1068.8</ele>
        <time>2020-10-29T11:41:19.000Z</time>
      </trkpt>
      <trkpt lat="41.27873523160815" lon="0.8206745702773333">
        <ele>1068.8</ele>
        <time>2020-10-29T11:41:20.000Z</time>
      </trkpt>
      <trkpt lat="41.27879122272134" lon="0.8209082577377558">
        <ele>1071.2</ele>
        <time>2020-10-29T11:41:34.000Z</time>
      </trkpt>
      <trkpt lat="41.278893230482936" lon="0.8211055677384138">
        <ele>1073.2</ele>
        <time>2020-10-29T11:41:48.000Z</time>
      </trkpt>
      <trkpt lat="41.279003620147705" lon="0.8212932385504246">
        <ele>1074.8</ele>
        <time>2020-10-29T11:42:03.000Z</time>
      </trkpt>
      <trkpt lat="41.27909037284553" lon="0.82142005674541">
        <ele>1075.4</ele>
        <time>2020-10-29T11:42:14.000Z</time>
      </trkpt>
      <trkpt lat="41.27910453826189" lon="0.8214466273784637">
        <ele>1075.6</ele>
        <time>2020-10-29T11:42:16.000Z</time>
      </trkpt>
      <trkpt lat="41.27911979332566" lon="0.8214756287634373">
        <ele>1075.6</ele>
        <time>2020-10-29T11:42:18.000Z</time>
      </trkpt>
      <trkpt lat="41.27924334257841" lon="0.8215392474085093">
        <ele>1075.2</ele>
        <time>2020-10-29T11:42:30.000Z</time>
      </trkpt>
      <trkpt lat="41.27925457432866" lon="0.8215430192649364">
        <ele>1075.2</ele>
        <time>2020-10-29T11:42:31.000Z</time>
      </trkpt>
      <trkpt lat="41.27932967618108" lon="0.821572607383132">
        <ele>1075</ele>
        <time>2020-10-29T11:42:37.000Z</time>
      </trkpt>
      <trkpt lat="41.27934107556939" lon="0.8215786423534155">
        <ele>1074.8</ele>
        <time>2020-10-29T11:42:38.000Z</time>
      </trkpt>
      <trkpt lat="41.279423302039504" lon="0.8216429315507412">
        <ele>1074.8</ele>
        <time>2020-10-29T11:42:46.000Z</time>
      </trkpt>
      <trkpt lat="41.279434114694595" lon="0.8216505590826273">
        <ele>1074.8</ele>
        <time>2020-10-29T11:42:47.000Z</time>
      </trkpt>
      <trkpt lat="41.27959940582514" lon="0.8217651396989822">
        <ele>1074.4</ele>
        <time>2020-10-29T11:43:03.000Z</time>
      </trkpt>
      <trkpt lat="41.27961549907923" lon="0.8217884413897991">
        <ele>1074.4</ele>
        <time>2020-10-29T11:43:05.000Z</time>
      </trkpt>
      <trkpt lat="41.27962396480143" lon="0.8218005113303661">
        <ele>1074.6</ele>
        <time>2020-10-29T11:43:06.000Z</time>
      </trkpt>
      <trkpt lat="41.279653972014785" lon="0.8218480367213488">
        <ele>1074.6</ele>
        <time>2020-10-29T11:43:10.000Z</time>
      </trkpt>
      <trkpt lat="41.2797412276268" lon="0.8220677264034748">
        <ele>1075.4</ele>
        <time>2020-10-29T11:43:26.000Z</time>
      </trkpt>
      <trkpt lat="41.27974416129291" lon="0.8220833167433739">
        <ele>1075.4</ele>
        <time>2020-10-29T11:43:27.000Z</time>
      </trkpt>
      <trkpt lat="41.27981339581311" lon="0.8223158307373524">
        <ele>1075.6</ele>
        <time>2020-10-29T11:43:42.000Z</time>
      </trkpt>
      <trkpt lat="41.2799243722111" lon="0.8224295731633902">
        <ele>1076.4</ele>
        <time>2020-10-29T11:43:54.000Z</time>
      </trkpt>
      <trkpt lat="41.279934011399746" lon="0.8224352728575468">
        <ele>1076.6</ele>
        <time>2020-10-29T11:43:55.000Z</time>
      </trkpt>
      <trkpt lat="41.28008865751326" lon="0.8225817885249853">
        <ele>1078</ele>
        <time>2020-10-29T11:44:09.000Z</time>
      </trkpt>
      <trkpt lat="41.280220253393054" lon="0.8227411285042763">
        <ele>1078.8</ele>
        <time>2020-10-29T11:44:23.000Z</time>
      </trkpt>
      <trkpt lat="41.28022980876267" lon="0.8227553777396679">
        <ele>1079</ele>
        <time>2020-10-29T11:44:24.000Z</time>
      </trkpt>
      <trkpt lat="41.280249087139964" lon="0.8227856364101171">
        <ele>1079</ele>
        <time>2020-10-29T11:44:26.000Z</time>
      </trkpt>
      <trkpt lat="41.280383951961994" lon="0.8229520171880722">
        <ele>1079.8</ele>
        <time>2020-10-29T11:44:40.000Z</time>
      </trkpt>
      <trkpt lat="41.280393339693546" lon="0.8229664340615273">
        <ele>1080</ele>
        <time>2020-10-29T11:44:41.000Z</time>
      </trkpt>
      <trkpt lat="41.28049023449421" lon="0.8230510912835598">
        <ele>1080.8</ele>
        <time>2020-10-29T11:44:55.000Z</time>
      </trkpt>
      <trkpt lat="41.28057237714529" lon="0.8231142908334732">
        <ele>1082</ele>
        <time>2020-10-29T11:45:09.000Z</time>
      </trkpt>
      <trkpt lat="41.28074278123677" lon="0.8232246804982424">
        <ele>1081.6</ele>
        <time>2020-10-29T11:45:23.000Z</time>
      </trkpt>
      <trkpt lat="41.28076490946114" lon="0.8232318051159382">
        <ele>1081.4</ele>
        <time>2020-10-29T11:45:25.000Z</time>
      </trkpt>
      <trkpt lat="41.28077555447817" lon="0.8232339005917311">
        <ele>1081.4</ele>
        <time>2020-10-29T11:45:26.000Z</time>
      </trkpt>
      <trkpt lat="41.280899941921234" lon="0.8233014587312937">
        <ele>1080</ele>
        <time>2020-10-29T11:45:38.000Z</time>
      </trkpt>
      <trkpt lat="41.280910754576325" lon="0.823304895311594">
        <ele>1079.8</ele>
        <time>2020-10-29T11:45:39.000Z</time>
      </trkpt>
      <trkpt lat="41.28102181479335" lon="0.8233695197850466">
        <ele>1078.4</ele>
        <time>2020-10-29T11:45:49.000Z</time>
      </trkpt>
      <trkpt lat="41.28103396855295" lon="0.8233815059065819">
        <ele>1078.2</ele>
        <time>2020-10-29T11:45:50.000Z</time>
      </trkpt>
      <trkpt lat="41.28117000684142" lon="0.8235400076955557">
        <ele>1076.8</ele>
        <time>2020-10-29T11:46:04.000Z</time>
      </trkpt>
      <trkpt lat="41.28119397908449" lon="0.8235814142972231">
        <ele>1076.6</ele>
        <time>2020-10-29T11:46:07.000Z</time>
      </trkpt>
      <trkpt lat="41.28120319917798" lon="0.823593819513917">
        <ele>1076.6</ele>
        <time>2020-10-29T11:46:08.000Z</time>
      </trkpt>
      <trkpt lat="41.28126924857497" lon="0.8237375691533089">
        <ele>1076</ele>
        <time>2020-10-29T11:46:17.000Z</time>
      </trkpt>
      <trkpt lat="41.281276205554605" lon="0.8237545005977154">
        <ele>1075.8</ele>
        <time>2020-10-29T11:46:18.000Z</time>
      </trkpt>
      <trkpt lat="41.28133596852422" lon="0.8239886071532965">
        <ele>1076.2</ele>
        <time>2020-10-29T11:46:31.000Z</time>
      </trkpt>
      <trkpt lat="41.281341668218374" lon="0.8240051195025444">
        <ele>1076.2</ele>
        <time>2020-10-29T11:46:32.000Z</time>
      </trkpt>
      <trkpt lat="41.28135264851153" lon="0.8240403234958649">
        <ele>1076.6</ele>
        <time>2020-10-29T11:46:34.000Z</time>
      </trkpt>
      <trkpt lat="41.28136212006211" lon="0.8240748569369316">
        <ele>1076.8</ele>
        <time>2020-10-29T11:46:36.000Z</time>
      </trkpt>
      <trkpt lat="41.28137812949717" lon="0.82421550527215">
        <ele>1078.2</ele>
        <time>2020-10-29T11:46:44.000Z</time>
      </trkpt>
      <trkpt lat="41.28139070235193" lon="0.8243750967085361">
        <ele>1079.8</ele>
        <time>2020-10-29T11:46:53.000Z</time>
      </trkpt>
      <trkpt lat="41.28139330074191" lon="0.8243875857442617">
        <ele>1080</ele>
        <time>2020-10-29T11:46:54.000Z</time>
      </trkpt>
      <trkpt lat="41.28140394575894" lon="0.8244161680340767">
        <ele>1080.2</ele>
        <time>2020-10-29T11:46:56.000Z</time>
      </trkpt>
      <trkpt lat="41.28148231655359" lon="0.8246337622404099">
        <ele>1081.8</ele>
        <time>2020-10-29T11:47:10.000Z</time>
      </trkpt>
      <trkpt lat="41.28148768097162" lon="0.8246723189949989">
        <ele>1082.2</ele>
        <time>2020-10-29T11:47:12.000Z</time>
      </trkpt>
      <trkpt lat="41.28149111755192" lon="0.8246911782771349">
        <ele>1082.2</ele>
        <time>2020-10-29T11:47:13.000Z</time>
      </trkpt>
      <trkpt lat="41.281515592709184" lon="0.8248201757669449">
        <ele>1083.6</ele>
        <time>2020-10-29T11:47:20.000Z</time>
      </trkpt>
      <trkpt lat="41.281520118936896" lon="0.8248344250023365">
        <ele>1083.8</ele>
        <time>2020-10-29T11:47:21.000Z</time>
      </trkpt>
      <trkpt lat="41.28158080391586" lon="0.8250712975859642">
        <ele>1086</ele>
        <time>2020-10-29T11:47:36.000Z</time>
      </trkpt>
      <trkpt lat="41.28163704648614" lon="0.8253157138824463">
        <ele>1088.2</ele>
        <time>2020-10-29T11:47:51.000Z</time>
      </trkpt>
      <trkpt lat="41.281688679009676" lon="0.8254962600767612">
        <ele>1089.8</ele>
        <time>2020-10-29T11:48:03.000Z</time>
      </trkpt>
      <trkpt lat="41.28169194795191" lon="0.8255086652934551">
        <ele>1089.8</ele>
        <time>2020-10-29T11:48:04.000Z</time>
      </trkpt>
      <trkpt lat="41.28170007839799" lon="0.82555728033185">
        <ele>1090.4</ele>
        <time>2020-10-29T11:48:07.000Z</time>
      </trkpt>
      <trkpt lat="41.28173301927745" lon="0.8257406763732433">
        <ele>1092.2</ele>
        <time>2020-10-29T11:48:20.000Z</time>
      </trkpt>
      <trkpt lat="41.281735114753246" lon="0.8257547579705715">
        <ele>1092.4</ele>
        <time>2020-10-29T11:48:21.000Z</time>
      </trkpt>
      <trkpt lat="41.28177585080266" lon="0.8259954862296581">
        <ele>1094.6</ele>
        <time>2020-10-29T11:48:38.000Z</time>
      </trkpt>
      <trkpt lat="41.28175682388246" lon="0.8262443449348211">
        <ele>1096.8</ele>
        <time>2020-10-29T11:48:54.000Z</time>
      </trkpt>
      <trkpt lat="41.28175690770149" lon="0.826259097084403">
        <ele>1096.8</ele>
        <time>2020-10-29T11:48:55.000Z</time>
      </trkpt>
      <trkpt lat="41.28173980861902" lon="0.8264438342303038">
        <ele>1097</ele>
        <time>2020-10-29T11:49:06.000Z</time>
      </trkpt>
      <trkpt lat="41.28173871897161" lon="0.826460849493742">
        <ele>1096.6</ele>
        <time>2020-10-29T11:49:07.000Z</time>
      </trkpt>
      <trkpt lat="41.28173377364874" lon="0.8265706524252892">
        <ele>1094.8</ele>
        <time>2020-10-29T11:49:18.000Z</time>
      </trkpt>
      <trkpt lat="41.28169043920934" lon="0.8266310021281242">
        <ele>1093.8</ele>
        <time>2020-10-29T11:49:24.000Z</time>
      </trkpt>
      <trkpt lat="41.281673675403" lon="0.8266682177782059">
        <ele>1093.6</ele>
        <time>2020-10-29T11:49:30.000Z</time>
      </trkpt>
      <trkpt lat="41.28161600790918" lon="0.8267687167972326">
        <ele>1092.6</ele>
        <time>2020-10-29T11:49:41.000Z</time>
      </trkpt>
      <trkpt lat="41.2815700750798" lon="0.8268240373581648">
        <ele>1092.4</ele>
        <time>2020-10-29T11:49:45.000Z</time>
      </trkpt>
      <trkpt lat="41.28148768097162" lon="0.8270501811057329">
        <ele>1090</ele>
        <time>2020-10-29T11:49:59.000Z</time>
      </trkpt>
      <trkpt lat="41.281432528048754" lon="0.8271593134850264">
        <ele>1088.6</ele>
        <time>2020-10-29T11:50:06.000Z</time>
      </trkpt>
      <trkpt lat="41.28142414614558" lon="0.8271755743771791">
        <ele>1088.4</ele>
        <time>2020-10-29T11:50:07.000Z</time>
      </trkpt>
      <trkpt lat="41.281297244131565" lon="0.8273591380566359">
        <ele>1088</ele>
        <time>2020-10-29T11:50:21.000Z</time>
      </trkpt>
      <trkpt lat="41.2811884470284" lon="0.8275527600198984">
        <ele>1086.4</ele>
        <time>2020-10-29T11:50:35.000Z</time>
      </trkpt>
      <trkpt lat="41.281060539186" lon="0.827724589034915">
        <ele>1086.2</ele>
        <time>2020-10-29T11:50:48.000Z</time>
      </trkpt>
      <trkpt lat="41.280979653820395" lon="0.8278987649828196">
        <ele>1087.6</ele>
        <time>2020-10-29T11:51:00.000Z</time>
      </trkpt>
      <trkpt lat="41.280966913327575" lon="0.8279277663677931">
        <ele>1087.8</ele>
        <time>2020-10-29T11:51:02.000Z</time>
      </trkpt>
      <trkpt lat="41.28089583478868" lon="0.8280861843377352">
        <ele>1088.8</ele>
        <time>2020-10-29T11:51:12.000Z</time>
      </trkpt>
      <trkpt lat="41.28088996745646" lon="0.8281019423156977">
        <ele>1088.8</ele>
        <time>2020-10-29T11:51:13.000Z</time>
      </trkpt>
      <trkpt lat="41.28086792305112" lon="0.8282535709440708">
        <ele>1088.6</ele>
        <time>2020-10-29T11:51:22.000Z</time>
      </trkpt>
      <trkpt lat="41.280868258327246" lon="0.8282710053026676">
        <ele>1088.4</ele>
        <time>2020-10-29T11:51:23.000Z</time>
      </trkpt>
      <trkpt lat="41.28086348064244" lon="0.828396063297987">
        <ele>1088.2</ele>
        <time>2020-10-29T11:51:30.000Z</time>
      </trkpt>
      <trkpt lat="41.2808654922992" lon="0.8284300100058317">
        <ele>1088</ele>
        <time>2020-10-29T11:51:32.000Z</time>
      </trkpt>
      <trkpt lat="41.28089206293225" lon="0.8286743424832821">
        <ele>1086.6</ele>
        <time>2020-10-29T11:51:46.000Z</time>
      </trkpt>
      <trkpt lat="41.280900528654456" lon="0.8288239594548941">
        <ele>1086</ele>
        <time>2020-10-29T11:51:55.000Z</time>
      </trkpt>
      <trkpt lat="41.28090178593993" lon="0.828840471804142">
        <ele>1086</ele>
        <time>2020-10-29T11:51:56.000Z</time>
      </trkpt>
      <trkpt lat="41.28090891055763" lon="0.8289703074842691">
        <ele>1084.8</ele>
        <time>2020-10-29T11:52:03.000Z</time>
      </trkpt>
      <trkpt lat="41.28090614452958" lon="0.8290010690689087">
        <ele>1084.6</ele>
        <time>2020-10-29T11:52:05.000Z</time>
      </trkpt>
      <trkpt lat="41.28091435879469" lon="0.8290667831897736">
        <ele>1083.8</ele>
        <time>2020-10-29T11:52:09.000Z</time>
      </trkpt>
      <trkpt lat="41.28091963939369" lon="0.8291012328118086">
        <ele>1083.2</ele>
        <time>2020-10-29T11:52:11.000Z</time>
      </trkpt>
      <trkpt lat="41.280917124822736" lon="0.8291563019156456">
        <ele>1082.8</ele>
        <time>2020-10-29T11:52:14.000Z</time>
      </trkpt>
      <trkpt lat="41.28091285005212" lon="0.8293973654508591">
        <ele>1081</ele>
        <time>2020-10-29T11:52:28.000Z</time>
      </trkpt>
      <trkpt lat="41.280935648828745" lon="0.8295052405446768">
        <ele>1079.2</ele>
        <time>2020-10-29T11:52:34.000Z</time>
      </trkpt>
      <trkpt lat="41.28093799576163" lon="0.8295225072652102">
        <ele>1079</ele>
        <time>2020-10-29T11:52:35.000Z</time>
      </trkpt>
      <trkpt lat="41.28090036101639" lon="0.8297661691904068">
        <ele>1078</ele>
        <time>2020-10-29T11:52:51.000Z</time>
      </trkpt>
      <trkpt lat="41.28081461414695" lon="0.8299186360090971">
        <ele>1078.4</ele>
        <time>2020-10-29T11:53:02.000Z</time>
      </trkpt>
      <trkpt lat="41.2808084115386" lon="0.8299326337873936">
        <ele>1078.6</ele>
        <time>2020-10-29T11:53:03.000Z</time>
      </trkpt>
      <trkpt lat="41.280704475939274" lon="0.8301350567489862">
        <ele>1080</ele>
        <time>2020-10-29T11:53:17.000Z</time>
      </trkpt>
      <trkpt lat="41.28069592639804" lon="0.830146623775363">
        <ele>1080.2</ele>
        <time>2020-10-29T11:53:18.000Z</time>
      </trkpt>
      <trkpt lat="41.28068712539971" lon="0.8301588613539934">
        <ele>1080.4</ele>
        <time>2020-10-29T11:53:19.000Z</time>
      </trkpt>
      <trkpt lat="41.28057732246816" lon="0.8303498011082411">
        <ele>1079.8</ele>
        <time>2020-10-29T11:53:34.000Z</time>
      </trkpt>
      <trkpt lat="41.28056810237467" lon="0.8303626254200935">
        <ele>1079.8</ele>
        <time>2020-10-29T11:53:35.000Z</time>
      </trkpt>
      <trkpt lat="41.28055804409087" lon="0.830377796664834">
        <ele>1079.4</ele>
        <time>2020-10-29T11:53:36.000Z</time>
      </trkpt>
      <trkpt lat="41.28052409738302" lon="0.830432279035449">
        <ele>1078.6</ele>
        <time>2020-10-29T11:53:40.000Z</time>
      </trkpt>
      <trkpt lat="41.28051512874663" lon="0.8304442651569843">
        <ele>1078.6</ele>
        <time>2020-10-29T11:53:41.000Z</time>
      </trkpt>
      <trkpt lat="41.28037305548787" lon="0.8306020125746727">
        <ele>1081.6</ele>
        <time>2020-10-29T11:53:56.000Z</time>
      </trkpt>
      <trkpt lat="41.280346401035786" lon="0.830653477460146">
        <ele>1081.2</ele>
        <time>2020-10-29T11:54:00.000Z</time>
      </trkpt>
      <trkpt lat="41.28031865693629" lon="0.8306916989386082">
        <ele>1081</ele>
        <time>2020-10-29T11:54:03.000Z</time>
      </trkpt>
      <trkpt lat="41.28027389757335" lon="0.8307610172778368">
        <ele>1080.6</ele>
        <time>2020-10-29T11:54:09.000Z</time>
      </trkpt>
      <trkpt lat="41.280272640287876" lon="0.8307724166661501">
        <ele>1080.4</ele>
        <time>2020-10-29T11:54:10.000Z</time>
      </trkpt>
      <trkpt lat="41.28026199527085" lon="0.8307937067002058">
        <ele>1080.2</ele>
        <time>2020-10-29T11:54:12.000Z</time>
      </trkpt>
      <trkpt lat="41.280128387734294" lon="0.8309558127075434">
        <ele>1080.8</ele>
        <time>2020-10-29T11:54:28.000Z</time>
      </trkpt>
      <trkpt lat="41.28005797974765" lon="0.8311460819095373">
        <ele>1083.2</ele>
        <time>2020-10-29T11:54:46.000Z</time>
      </trkpt>
      <trkpt lat="41.28003333695233" lon="0.8312083594501019">
        <ele>1084</ele>
        <time>2020-10-29T11:55:05.000Z</time>
      </trkpt>
      <trkpt lat="41.279955469071865" lon="0.8314273785799742">
        <ele>1087</ele>
        <time>2020-10-29T11:55:18.000Z</time>
      </trkpt>
      <trkpt lat="41.279896376654506" lon="0.8316357526928186">
        <ele>1089.2</ele>
        <time>2020-10-29T11:55:31.000Z</time>
      </trkpt>
      <trkpt lat="41.27988967113197" lon="0.8316509239375591">
        <ele>1089.4</ele>
        <time>2020-10-29T11:55:32.000Z</time>
      </trkpt>
      <trkpt lat="41.279832841828465" lon="0.8317650854587555">
        <ele>1090.6</ele>
        <time>2020-10-29T11:55:39.000Z</time>
      </trkpt>
      <trkpt lat="41.2798242084682" lon="0.8317810110747814">
        <ele>1090.8</ele>
        <time>2020-10-29T11:55:40.000Z</time>
      </trkpt>
      <trkpt lat="41.279808869585395" lon="0.8318137004971504">
        <ele>1091.2</ele>
        <time>2020-10-29T11:55:42.000Z</time>
      </trkpt>
      <trkpt lat="41.27978229895234" lon="0.8318739663809538">
        <ele>1091.6</ele>
        <time>2020-10-29T11:55:46.000Z</time>
      </trkpt>
      <trkpt lat="41.279771737754345" lon="0.8319033030420542">
        <ele>1091.6</ele>
        <time>2020-10-29T11:55:48.000Z</time>
      </trkpt>
      <trkpt lat="41.27975773997605" lon="0.8319525048136711">
        <ele>1091.8</ele>
        <time>2020-10-29T11:55:51.000Z</time>
      </trkpt>
      <trkpt lat="41.279756650328636" lon="0.8322002738714218">
        <ele>1091.4</ele>
        <time>2020-10-29T11:56:05.000Z</time>
      </trkpt>
      <trkpt lat="41.2797652836889" lon="0.8322890382260084">
        <ele>1090.8</ele>
        <time>2020-10-29T11:56:10.000Z</time>
      </trkpt>
      <trkpt lat="41.27976913936436" lon="0.8323078975081444">
        <ele>1090.6</ele>
        <time>2020-10-29T11:56:11.000Z</time>
      </trkpt>
      <trkpt lat="41.2798794452101" lon="0.8324911259114742">
        <ele>1086.8</ele>
        <time>2020-10-29T11:56:24.000Z</time>
      </trkpt>
      <trkpt lat="41.27993660978973" lon="0.8327032718807459">
        <ele>1083.8</ele>
        <time>2020-10-29T11:56:37.000Z</time>
      </trkpt>
      <trkpt lat="41.27986192703247" lon="0.8328280784189701">
        <ele>1085.4</ele>
        <time>2020-10-29T11:56:46.000Z</time>
      </trkpt>
      <trkpt lat="41.27983409911394" lon="0.8328631985932589">
        <ele>1086</ele>
        <time>2020-10-29T11:56:49.000Z</time>
      </trkpt>
      <trkpt lat="41.27976058982313" lon="0.8329341094940901">
        <ele>1086.8</ele>
        <time>2020-10-29T11:56:55.000Z</time>
      </trkpt>
      <trkpt lat="41.27973569557071" lon="0.8329624403268099">
        <ele>1086.8</ele>
        <time>2020-10-29T11:56:57.000Z</time>
      </trkpt>
      <trkpt lat="41.27961969003081" lon="0.8331627678126097">
        <ele>1088</ele>
        <time>2020-10-29T11:57:11.000Z</time>
      </trkpt>
      <trkpt lat="41.27957065589726" lon="0.833264859393239">
        <ele>1088.4</ele>
        <time>2020-10-29T11:57:18.000Z</time>
      </trkpt>
      <trkpt lat="41.27956185489893" lon="0.8332811202853918">
        <ele>1088.6</ele>
        <time>2020-10-29T11:57:19.000Z</time>
      </trkpt>
      <trkpt lat="41.27947015687823" lon="0.8335058391094208">
        <ele>1089.4</ele>
        <time>2020-10-29T11:57:33.000Z</time>
      </trkpt>
      <trkpt lat="41.27939337864518" lon="0.8337056636810303">
        <ele>1091.6</ele>
        <time>2020-10-29T11:57:46.000Z</time>
      </trkpt>
      <trkpt lat="41.27938885241747" lon="0.8337216731160879">
        <ele>1091.8</ele>
        <time>2020-10-29T11:57:47.000Z</time>
      </trkpt>
      <trkpt lat="41.279305536299944" lon="0.833941949531436">
        <ele>1094.4</ele>
        <time>2020-10-29T11:58:02.000Z</time>
      </trkpt>
      <trkpt lat="41.279276283457875" lon="0.834098607301712">
        <ele>1094.4</ele>
        <time>2020-10-29T11:58:12.000Z</time>
      </trkpt>
      <trkpt lat="41.27927100285888" lon="0.8341163769364357">
        <ele>1094.6</ele>
        <time>2020-10-29T11:58:13.000Z</time>
      </trkpt>
      <trkpt lat="41.27921584993601" lon="0.8343465439975262">
        <ele>1094</ele>
        <time>2020-10-29T11:58:27.000Z</time>
      </trkpt>
      <trkpt lat="41.27918072976172" lon="0.8344349730759859">
        <ele>1094</ele>
        <time>2020-10-29T11:58:33.000Z</time>
      </trkpt>
      <trkpt lat="41.27917285077274" lon="0.8344501443207264">
        <ele>1094</ele>
        <time>2020-10-29T11:58:34.000Z</time>
      </trkpt>
      <trkpt lat="41.27904946915805" lon="0.8346316125243902">
        <ele>1094.4</ele>
        <time>2020-10-29T11:58:47.000Z</time>
      </trkpt>
      <trkpt lat="41.278974786400795" lon="0.8347777090966702">
        <ele>1094.2</ele>
        <time>2020-10-29T11:58:58.000Z</time>
      </trkpt>
      <trkpt lat="41.27896707504988" lon="0.834790701046586">
        <ele>1094.2</ele>
        <time>2020-10-29T11:58:59.000Z</time>
      </trkpt>
      <trkpt lat="41.27894000150263" lon="0.8348520565778017">
        <ele>1094</ele>
        <time>2020-10-29T11:59:03.000Z</time>
      </trkpt>
      <trkpt lat="41.27891820855439" lon="0.8348897751420736">
        <ele>1093.8</ele>
        <time>2020-10-29T11:59:06.000Z</time>
      </trkpt>
      <trkpt lat="41.27891108393669" lon="0.8349032700061798">
        <ele>1093.8</ele>
        <time>2020-10-29T11:59:07.000Z</time>
      </trkpt>
      <trkpt lat="41.27881770953536" lon="0.8351227082312107">
        <ele>1092.6</ele>
        <time>2020-10-29T11:59:21.000Z</time>
      </trkpt>
      <trkpt lat="41.278761718422174" lon="0.8353499416261911">
        <ele>1091</ele>
        <time>2020-10-29T11:59:35.000Z</time>
      </trkpt>
      <trkpt lat="41.278695333749056" lon="0.8355801925063133">
        <ele>1092.2</ele>
        <time>2020-10-29T11:59:50.000Z</time>
      </trkpt>
      <trkpt lat="41.278689969331026" lon="0.8356158994138241">
        <ele>1092.6</ele>
        <time>2020-10-29T11:59:52.000Z</time>
      </trkpt>
      <trkpt lat="41.27868477255106" lon="0.8356533665210009">
        <ele>1093</ele>
        <time>2020-10-29T11:59:54.000Z</time>
      </trkpt>
      <trkpt lat="41.27865074202418" lon="0.8358091861009598">
        <ele>1094.6</ele>
        <time>2020-10-29T12:00:03.000Z</time>
      </trkpt>
      <trkpt lat="41.27864705398679" lon="0.835824441164732">
        <ele>1094.6</ele>
        <time>2020-10-29T12:00:04.000Z</time>
      </trkpt>
      <trkpt lat="41.27863314002752" lon="0.8358725532889366">
        <ele>1095.2</ele>
        <time>2020-10-29T12:00:07.000Z</time>
      </trkpt>
      <trkpt lat="41.27861428074539" lon="0.8359263651072979">
        <ele>1096</ele>
        <time>2020-10-29T12:00:10.000Z</time>
      </trkpt>
      <trkpt lat="41.278593661263585" lon="0.8359739743173122">
        <ele>1096.6</ele>
        <time>2020-10-29T12:00:13.000Z</time>
      </trkpt>
      <trkpt lat="41.278566839173436" lon="0.8361663389950991">
        <ele>1096.4</ele>
        <time>2020-10-29T12:00:26.000Z</time>
      </trkpt>
      <trkpt lat="41.278567258268595" lon="0.8361809235066175">
        <ele>1096.4</ele>
        <time>2020-10-29T12:00:27.000Z</time>
      </trkpt>
      <trkpt lat="41.27864336594939" lon="0.8364040497690439">
        <ele>1094.8</ele>
        <time>2020-10-29T12:00:46.000Z</time>
      </trkpt>
      <trkpt lat="41.27872383221984" lon="0.8365764655172825">
        <ele>1094.6</ele>
        <time>2020-10-29T12:01:01.000Z</time>
      </trkpt>
      <trkpt lat="41.27873037010431" lon="0.8365905471146107">
        <ele>1094.6</ele>
        <time>2020-10-29T12:01:02.000Z</time>
      </trkpt>
      <trkpt lat="41.27878845669329" lon="0.8367357216775417">
        <ele>1094.8</ele>
        <time>2020-10-29T12:01:13.000Z</time>
      </trkpt>
      <trkpt lat="41.27879340201616" lon="0.8367518987506628">
        <ele>1094.8</ele>
        <time>2020-10-29T12:01:14.000Z</time>
      </trkpt>
      <trkpt lat="41.27881142310798" lon="0.8368020225316286">
        <ele>1094.8</ele>
        <time>2020-10-29T12:01:17.000Z</time>
      </trkpt>
      <trkpt lat="41.278835060074925" lon="0.8368474524468184">
        <ele>1094.8</ele>
        <time>2020-10-29T12:01:20.000Z</time>
      </trkpt>
      <trkpt lat="41.278849225491285" lon="0.8369243983179331">
        <ele>1094.8</ele>
        <time>2020-10-29T12:01:25.000Z</time>
      </trkpt>
      <trkpt lat="41.27885299734771" lon="0.8369395695626736">
        <ele>1095</ele>
        <time>2020-10-29T12:01:26.000Z</time>
      </trkpt>
      <trkpt lat="41.27887445501983" lon="0.8370282500982285">
        <ele>1095</ele>
        <time>2020-10-29T12:01:32.000Z</time>
      </trkpt>
      <trkpt lat="41.27887814305723" lon="0.8370471931993961">
        <ele>1095</ele>
        <time>2020-10-29T12:01:33.000Z</time>
      </trkpt>
      <trkpt lat="41.27892944030464" lon="0.8371832314878702">
        <ele>1095.2</ele>
        <time>2020-10-29T12:01:42.000Z</time>
      </trkpt>
      <trkpt lat="41.27893539145589" lon="0.8371951337903738">
        <ele>1095.2</ele>
        <time>2020-10-29T12:01:43.000Z</time>
      </trkpt>
      <trkpt lat="41.27895450219512" lon="0.8372411504387856">
        <ele>1094.8</ele>
        <time>2020-10-29T12:01:46.000Z</time>
      </trkpt>
      <trkpt lat="41.278967913240194" lon="0.837295213714242">
        <ele>1094.4</ele>
        <time>2020-10-29T12:01:52.000Z</time>
      </trkpt>
      <trkpt lat="41.27898333594203" lon="0.837353216484189">
        <ele>1093.6</ele>
        <time>2020-10-29T12:01:56.000Z</time>
      </trkpt>
      <trkpt lat="41.27904502674937" lon="0.8374515362083912">
        <ele>1091.8</ele>
        <time>2020-10-29T12:02:03.000Z</time>
      </trkpt>
      <trkpt lat="41.279083751142025" lon="0.837516663596034">
        <ele>1090.6</ele>
        <time>2020-10-29T12:02:07.000Z</time>
      </trkpt>
      <trkpt lat="41.27911929041147" lon="0.8376366924494505">
        <ele>1089</ele>
        <time>2020-10-29T12:02:14.000Z</time>
      </trkpt>
      <trkpt lat="41.27912708558142" lon="0.8376531209796667">
        <ele>1088.8</ele>
        <time>2020-10-29T12:02:15.000Z</time>
      </trkpt>
      <trkpt lat="41.2791851721704" lon="0.8377355150878429">
        <ele>1087.2</ele>
        <time>2020-10-29T12:02:21.000Z</time>
      </trkpt>
      <trkpt lat="41.27919933758676" lon="0.837764935567975">
        <ele>1086.8</ele>
        <time>2020-10-29T12:02:23.000Z</time>
      </trkpt>
      <trkpt lat="41.279266057536006" lon="0.8379977848380804">
        <ele>1083.8</ele>
        <time>2020-10-29T12:02:36.000Z</time>
      </trkpt>
      <trkpt lat="41.279281647875905" lon="0.8382411953061819">
        <ele>1082.8</ele>
        <time>2020-10-29T12:02:50.000Z</time>
      </trkpt>
      <trkpt lat="41.27931366674602" lon="0.838483851402998">
        <ele>1082</ele>
        <time>2020-10-29T12:03:03.000Z</time>
      </trkpt>
      <trkpt lat="41.27930536866188" lon="0.8385209832340479">
        <ele>1082</ele>
        <time>2020-10-29T12:03:05.000Z</time>
      </trkpt>
      <trkpt lat="41.279299249872565" lon="0.8385908044874668">
        <ele>1081.8</ele>
        <time>2020-10-29T12:03:09.000Z</time>
      </trkpt>
      <trkpt lat="41.27929002977908" lon="0.8388365618884563">
        <ele>1081.4</ele>
        <time>2020-10-29T12:03:23.000Z</time>
      </trkpt>
      <trkpt lat="41.27928231842816" lon="0.8388718497008085">
        <ele>1081.4</ele>
        <time>2020-10-29T12:03:25.000Z</time>
      </trkpt>
      <trkpt lat="41.27926823683083" lon="0.8389203809201717">
        <ele>1081.6</ele>
        <time>2020-10-29T12:03:28.000Z</time>
      </trkpt>
      <trkpt lat="41.2792541552335" lon="0.8389498014003038">
        <ele>1081.8</ele>
        <time>2020-10-29T12:03:35.000Z</time>
      </trkpt>
      <trkpt lat="41.279239654541016" lon="0.8390324469655752">
        <ele>1082.2</ele>
        <time>2020-10-29T12:03:55.000Z</time>
      </trkpt>
      <trkpt lat="41.27923739142716" lon="0.8392738457769156">
        <ele>1082.6</ele>
        <time>2020-10-29T12:04:08.000Z</time>
      </trkpt>
      <trkpt lat="41.27923806197941" lon="0.8392921183258295">
        <ele>1082.6</ele>
        <time>2020-10-29T12:04:09.000Z</time>
      </trkpt>
      <trkpt lat="41.27923688851297" lon="0.8393288310617208">
        <ele>1082.6</ele>
        <time>2020-10-29T12:04:11.000Z</time>
      </trkpt>
      <trkpt lat="41.279228841885924" lon="0.839403597638011">
        <ele>1082.8</ele>
        <time>2020-10-29T12:04:15.000Z</time>
      </trkpt>
      <trkpt lat="41.27922808751464" lon="0.8394216187298298">
        <ele>1082.8</ele>
        <time>2020-10-29T12:04:16.000Z</time>
      </trkpt>
      <trkpt lat="41.27922439947724" lon="0.839489595964551">
        <ele>1083</ele>
        <time>2020-10-29T12:04:20.000Z</time>
      </trkpt>
      <trkpt lat="41.27922406420112" lon="0.839505773037672">
        <ele>1083</ele>
        <time>2020-10-29T12:04:21.000Z</time>
      </trkpt>
      <trkpt lat="41.27921928651631" lon="0.8395752590149641">
        <ele>1083.2</ele>
        <time>2020-10-29T12:04:25.000Z</time>
      </trkpt>
      <trkpt lat="41.279197661206126" lon="0.8397325873374939">
        <ele>1083.6</ele>
        <time>2020-10-29T12:04:34.000Z</time>
      </trkpt>
      <trkpt lat="41.279196152463555" lon="0.8397471718490124">
        <ele>1083.8</ele>
        <time>2020-10-29T12:04:35.000Z</time>
      </trkpt>
      <trkpt lat="41.27918944694102" lon="0.8397997263818979">
        <ele>1084</ele>
        <time>2020-10-29T12:04:38.000Z</time>
      </trkpt>
      <trkpt lat="41.27917888574302" lon="0.8398537058383226">
        <ele>1084.4</ele>
        <time>2020-10-29T12:04:41.000Z</time>
      </trkpt>
      <trkpt lat="41.27913731150329" lon="0.8399638440459967">
        <ele>1085.6</ele>
        <time>2020-10-29T12:04:48.000Z</time>
      </trkpt>
      <trkpt lat="41.27913328818977" lon="0.8399777580052614">
        <ele>1085.6</ele>
        <time>2020-10-29T12:04:49.000Z</time>
      </trkpt>
      <trkpt lat="41.279125744476914" lon="0.840009693056345">
        <ele>1086</ele>
        <time>2020-10-29T12:04:51.000Z</time>
      </trkpt>
      <trkpt lat="41.27911660820246" lon="0.8400445617735386">
        <ele>1086.4</ele>
        <time>2020-10-29T12:04:53.000Z</time>
      </trkpt>
      <trkpt lat="41.279092552140355" lon="0.8401551190763712">
        <ele>1087.4</ele>
        <time>2020-10-29T12:05:00.000Z</time>
      </trkpt>
      <trkpt lat="41.27908693626523" lon="0.8401695359498262">
        <ele>1087.6</ele>
        <time>2020-10-29T12:05:01.000Z</time>
      </trkpt>
      <trkpt lat="41.27904737368226" lon="0.8404053188860416">
        <ele>1089.6</ele>
        <time>2020-10-29T12:05:14.000Z</time>
      </trkpt>
      <trkpt lat="41.27907017245889" lon="0.8406569436192513">
        <ele>1091.6</ele>
        <time>2020-10-29T12:05:28.000Z</time>
      </trkpt>
      <trkpt lat="41.27906640060246" lon="0.840796921402216">
        <ele>1092</ele>
        <time>2020-10-29T12:05:36.000Z</time>
      </trkpt>
      <trkpt lat="41.279071513563395" lon="0.8408112544566393">
        <ele>1092</ele>
        <time>2020-10-29T12:05:37.000Z</time>
      </trkpt>
      <trkpt lat="41.27912297844887" lon="0.8410416729748249">
        <ele>1092.4</ele>
        <time>2020-10-29T12:05:51.000Z</time>
      </trkpt>
      <trkpt lat="41.27916203811765" lon="0.8411930501461029">
        <ele>1092.6</ele>
        <time>2020-10-29T12:06:00.000Z</time>
      </trkpt>
      <trkpt lat="41.27916689962149" lon="0.8412087243050337">
        <ele>1092.6</ele>
        <time>2020-10-29T12:06:01.000Z</time>
      </trkpt>
      <trkpt lat="41.279253736138344" lon="0.8413651306182146">
        <ele>1092.6</ele>
        <time>2020-10-29T12:06:14.000Z</time>
      </trkpt>
      <trkpt lat="41.27926002256572" lon="0.8413751889020205">
        <ele>1092.6</ele>
        <time>2020-10-29T12:06:15.000Z</time>
      </trkpt>
      <trkpt lat="41.27929547801614" lon="0.8414700720459223">
        <ele>1092.6</ele>
        <time>2020-10-29T12:06:21.000Z</time>
      </trkpt>
      <trkpt lat="41.27930335700512" lon="0.8414843212813139">
        <ele>1092.8</ele>
        <time>2020-10-29T12:06:22.000Z</time>
      </trkpt>
      <trkpt lat="41.27938700839877" lon="0.841656569391489">
        <ele>1093</ele>
        <time>2020-10-29T12:06:34.000Z</time>
      </trkpt>
      <trkpt lat="41.27939463593066" lon="0.8416753448545933">
        <ele>1093</ele>
        <time>2020-10-29T12:06:35.000Z</time>
      </trkpt>
      <trkpt lat="41.27942212857306" lon="0.8418034203350544">
        <ele>1093.2</ele>
        <time>2020-10-29T12:06:42.000Z</time>
      </trkpt>
      <trkpt lat="41.27942958846688" lon="0.8418183401226997">
        <ele>1093.4</ele>
        <time>2020-10-29T12:06:43.000Z</time>
      </trkpt>
      <trkpt lat="41.27944543026388" lon="0.841842396184802">
        <ele>1093.4</ele>
        <time>2020-10-29T12:06:45.000Z</time>
      </trkpt>
      <trkpt lat="41.27957350574434" lon="0.8420245349407196">
        <ele>1093</ele>
        <time>2020-10-29T12:07:01.000Z</time>
      </trkpt>
      <trkpt lat="41.279584066942334" lon="0.8420361019670963">
        <ele>1093</ele>
        <time>2020-10-29T12:07:02.000Z</time>
      </trkpt>
      <trkpt lat="41.279591945931315" lon="0.8420463278889656">
        <ele>1093</ele>
        <time>2020-10-29T12:07:03.000Z</time>
      </trkpt>
      <trkpt lat="41.27963997423649" lon="0.8420754130929708">
        <ele>1093</ele>
        <time>2020-10-29T12:07:07.000Z</time>
      </trkpt>
      <trkpt lat="41.27965514548123" lon="0.8420817833393812">
        <ele>1093.2</ele>
        <time>2020-10-29T12:07:08.000Z</time>
      </trkpt>
      <trkpt lat="41.27968213520944" lon="0.8420955296605825">
        <ele>1093</ele>
        <time>2020-10-29T12:07:10.000Z</time>
      </trkpt>
      <trkpt lat="41.27972119487822" lon="0.8421126287430525">
        <ele>1093</ele>
        <time>2020-10-29T12:07:14.000Z</time>
      </trkpt>
      <trkpt lat="41.27988179214299" lon="0.8422454819083214">
        <ele>1093.2</ele>
        <time>2020-10-29T12:07:30.000Z</time>
      </trkpt>
      <trkpt lat="41.27998908050358" lon="0.8423459809273481">
        <ele>1094</ele>
        <time>2020-10-29T12:07:41.000Z</time>
      </trkpt>
      <trkpt lat="41.28000106662512" lon="0.8423549495637417">
        <ele>1094</ele>
        <time>2020-10-29T12:07:42.000Z</time>
      </trkpt>
      <trkpt lat="41.28005286678672" lon="0.842391075566411">
        <ele>1094.2</ele>
        <time>2020-10-29T12:07:47.000Z</time>
      </trkpt>
      <trkpt lat="41.280063427984715" lon="0.8423963561654091">
        <ele>1094.2</ele>
        <time>2020-10-29T12:07:48.000Z</time>
      </trkpt>
      <trkpt lat="41.28024070523679" lon="0.8424928318709135">
        <ele>1095</ele>
        <time>2020-10-29T12:08:03.000Z</time>
      </trkpt>
      <trkpt lat="41.28039836883545" lon="0.8426114358007908">
        <ele>1095.8</ele>
        <time>2020-10-29T12:08:18.000Z</time>
      </trkpt>
      <trkpt lat="41.28044983372092" lon="0.8426917344331741">
        <ele>1096.2</ele>
        <time>2020-10-29T12:08:24.000Z</time>
      </trkpt>
      <trkpt lat="41.280458802357316" lon="0.8427008707076311">
        <ele>1096.4</ele>
        <time>2020-10-29T12:08:25.000Z</time>
      </trkpt>
      <trkpt lat="41.28059182316065" lon="0.8428167086094618">
        <ele>1097</ele>
        <time>2020-10-29T12:08:38.000Z</time>
      </trkpt>
      <trkpt lat="41.28060590475798" lon="0.8428214024752378">
        <ele>1097</ele>
        <time>2020-10-29T12:08:39.000Z</time>
      </trkpt>
      <trkpt lat="41.280649742111564" lon="0.8428559359163046">
        <ele>1097.2</ele>
        <time>2020-10-29T12:08:43.000Z</time>
      </trkpt>
      <trkpt lat="41.28067069686949" lon="0.842869346961379">
        <ele>1097</ele>
        <time>2020-10-29T12:08:45.000Z</time>
      </trkpt>
      <trkpt lat="41.280729454010725" lon="0.8429193031042814">
        <ele>1096.6</ele>
        <time>2020-10-29T12:08:51.000Z</time>
      </trkpt>
      <trkpt lat="41.280740182846785" lon="0.8429289422929287">
        <ele>1096.6</ele>
        <time>2020-10-29T12:08:52.000Z</time>
      </trkpt>
      <trkpt lat="41.28086800687015" lon="0.8430954907089472">
        <ele>1096.4</ele>
        <time>2020-10-29T12:09:08.000Z</time>
      </trkpt>
      <trkpt lat="41.280949814245105" lon="0.8433118276298046">
        <ele>1098.4</ele>
        <time>2020-10-29T12:09:23.000Z</time>
      </trkpt>
      <trkpt lat="41.28095777705312" lon="0.8433453552424908">
        <ele>1098.8</ele>
        <time>2020-10-29T12:09:25.000Z</time>
      </trkpt>
      <trkpt lat="41.280961045995355" lon="0.8433627057820559">
        <ele>1098.8</ele>
        <time>2020-10-29T12:09:26.000Z</time>
      </trkpt>
      <trkpt lat="41.280947886407375" lon="0.8435676433146">
        <ele>1099.6</ele>
        <time>2020-10-29T12:09:38.000Z</time>
      </trkpt>
      <trkpt lat="41.280946880578995" lon="0.8435837365686893">
        <ele>1099.6</ele>
        <time>2020-10-29T12:09:39.000Z</time>
      </trkpt>
      <trkpt lat="41.280936570838094" lon="0.8436818048357964">
        <ele>1099.8</ele>
        <time>2020-10-29T12:09:45.000Z</time>
      </trkpt>
      <trkpt lat="41.280935648828745" lon="0.8436983171850443">
        <ele>1100</ele>
        <time>2020-10-29T12:09:46.000Z</time>
      </trkpt>
      <trkpt lat="41.280939588323236" lon="0.843763779848814">
        <ele>1100</ele>
        <time>2020-10-29T12:09:50.000Z</time>
      </trkpt>
      <trkpt lat="41.28093967214227" lon="0.8437800407409668">
        <ele>1100.2</ele>
        <time>2020-10-29T12:09:51.000Z</time>
      </trkpt>
      <trkpt lat="41.28091595135629" lon="0.8440209366381168">
        <ele>1100.4</ele>
        <time>2020-10-29T12:10:08.000Z</time>
      </trkpt>
      <trkpt lat="41.28091771155596" lon="0.8440616726875305">
        <ele>1100.6</ele>
        <time>2020-10-29T12:10:11.000Z</time>
      </trkpt>
      <trkpt lat="41.28091779537499" lon="0.8440770115703344">
        <ele>1100.6</ele>
        <time>2020-10-29T12:10:12.000Z</time>
      </trkpt>
      <trkpt lat="41.2809260096401" lon="0.8443133812397718">
        <ele>1102</ele>
        <time>2020-10-29T12:10:29.000Z</time>
      </trkpt>
      <trkpt lat="41.28093883395195" lon="0.8444282133132219">
        <ele>1103</ele>
        <time>2020-10-29T12:10:37.000Z</time>
      </trkpt>
      <trkpt lat="41.28094377927482" lon="0.8444425463676453">
        <ele>1103</ele>
        <time>2020-10-29T12:10:38.000Z</time>
      </trkpt>
      <trkpt lat="41.28101594746113" lon="0.8446354139596224">
        <ele>1104.4</ele>
        <time>2020-10-29T12:10:52.000Z</time>
      </trkpt>
      <trkpt lat="41.281018713489175" lon="0.8446511719375849">
        <ele>1104.6</ele>
        <time>2020-10-29T12:10:53.000Z</time>
      </trkpt>
      <trkpt lat="41.281038243323565" lon="0.8447104319930077">
        <ele>1105</ele>
        <time>2020-10-29T12:10:57.000Z</time>
      </trkpt>
      <trkpt lat="41.28103556111455" lon="0.8449496515095234">
        <ele>1103</ele>
        <time>2020-10-29T12:11:14.000Z</time>
      </trkpt>
      <trkpt lat="41.28103153780103" lon="0.8449830953031778">
        <ele>1102.6</ele>
        <time>2020-10-29T12:11:16.000Z</time>
      </trkpt>
      <trkpt lat="41.28102567046881" lon="0.8450175449252129">
        <ele>1102.4</ele>
        <time>2020-10-29T12:11:18.000Z</time>
      </trkpt>
      <trkpt lat="41.28099884837866" lon="0.8452611230313778">
        <ele>1101</ele>
        <time>2020-10-29T12:11:34.000Z</time>
      </trkpt>
      <trkpt lat="41.28099264577031" lon="0.8452907111495733">
        <ele>1101</ele>
        <time>2020-10-29T12:11:36.000Z</time>
      </trkpt>
      <trkpt lat="41.28098879009485" lon="0.8453063014894724">
        <ele>1101</ele>
        <time>2020-10-29T12:11:37.000Z</time>
      </trkpt>
      <trkpt lat="41.28097982145846" lon="0.8453778829425573">
        <ele>1100.6</ele>
        <time>2020-10-29T12:11:42.000Z</time>
      </trkpt>
      <trkpt lat="41.280977725982666" lon="0.8453916292637587">
        <ele>1100.6</ele>
        <time>2020-10-29T12:11:43.000Z</time>
      </trkpt>
      <trkpt lat="41.281047128140926" lon="0.8455863408744335">
        <ele>1099.2</ele>
        <time>2020-10-29T12:11:57.000Z</time>
      </trkpt>
      <trkpt lat="41.28105458803475" lon="0.8456012606620789">
        <ele>1099.2</ele>
        <time>2020-10-29T12:11:58.000Z</time>
      </trkpt>
      <trkpt lat="41.28108350560069" lon="0.8456856664270163">
        <ele>1099.2</ele>
        <time>2020-10-29T12:12:04.000Z</time>
      </trkpt>
      <trkpt lat="41.28108819946647" lon="0.8456971496343613">
        <ele>1099.2</ele>
        <time>2020-10-29T12:12:05.000Z</time>
      </trkpt>
      <trkpt lat="41.281181406229734" lon="0.8459140732884407">
        <ele>1099</ele>
        <time>2020-10-29T12:12:21.000Z</time>
      </trkpt>
      <trkpt lat="41.281284503638744" lon="0.8461175858974457">
        <ele>1098.8</ele>
        <time>2020-10-29T12:12:36.000Z</time>
      </trkpt>
      <trkpt lat="41.281324820593" lon="0.8462123852223158">
        <ele>1098.8</ele>
        <time>2020-10-29T12:12:43.000Z</time>
      </trkpt>
      <trkpt lat="41.28134485334158" lon="0.8462557196617126">
        <ele>1098.8</ele>
        <time>2020-10-29T12:12:46.000Z</time>
      </trkpt>
      <trkpt lat="41.28145968541503" lon="0.8464543707668781">
        <ele>1098.6</ele>
        <time>2020-10-29T12:12:59.000Z</time>
      </trkpt>
      <trkpt lat="41.28151676617563" lon="0.8465723879635334">
        <ele>1099.4</ele>
        <time>2020-10-29T12:13:07.000Z</time>
      </trkpt>
      <trkpt lat="41.28152464516461" lon="0.8465898223221302">
        <ele>1099.4</ele>
        <time>2020-10-29T12:13:08.000Z</time>
      </trkpt>
      <trkpt lat="41.281553311273456" lon="0.8466369286179543">
        <ele>1099.8</ele>
        <time>2020-10-29T12:13:11.000Z</time>
      </trkpt>
      <trkpt lat="41.281591868028045" lon="0.8467225078493357">
        <ele>1100.2</ele>
        <time>2020-10-29T12:13:17.000Z</time>
      </trkpt>
      <trkpt lat="41.281596226617694" lon="0.846738601103425">
        <ele>1100.4</ele>
        <time>2020-10-29T12:13:18.000Z</time>
      </trkpt>
      <trkpt lat="41.28166554495692" lon="0.8469762280583382">
        <ele>1102.2</ele>
        <time>2020-10-29T12:13:32.000Z</time>
      </trkpt>
      <trkpt lat="41.281666131690145" lon="0.8469956740736961">
        <ele>1102.4</ele>
        <time>2020-10-29T12:13:33.000Z</time>
      </trkpt>
      <trkpt lat="41.28166722133756" lon="0.8470130246132612">
        <ele>1102.6</ele>
        <time>2020-10-29T12:13:34.000Z</time>
      </trkpt>
      <trkpt lat="41.281690523028374" lon="0.8471040520817041">
        <ele>1103.2</ele>
        <time>2020-10-29T12:13:39.000Z</time>
      </trkpt>
      <trkpt lat="41.28169488161802" lon="0.8471206482499838">
        <ele>1103.4</ele>
        <time>2020-10-29T12:13:40.000Z</time>
      </trkpt>
      <trkpt lat="41.28176864236593" lon="0.8473427686840296">
        <ele>1105.2</ele>
        <time>2020-10-29T12:13:54.000Z</time>
      </trkpt>
      <trkpt lat="41.28178381361067" lon="0.8474120870232582">
        <ele>1106</ele>
        <time>2020-10-29T12:13:58.000Z</time>
      </trkpt>
      <trkpt lat="41.28178725019097" lon="0.8474296890199184">
        <ele>1106.2</ele>
        <time>2020-10-29T12:13:59.000Z</time>
      </trkpt>
      <trkpt lat="41.281811222434044" lon="0.8475020248442888">
        <ele>1106.8</ele>
        <time>2020-10-29T12:14:04.000Z</time>
      </trkpt>
      <trkpt lat="41.28181675449014" lon="0.8475130889564753">
        <ele>1107</ele>
        <time>2020-10-29T12:14:05.000Z</time>
      </trkpt>
      <trkpt lat="41.281911972910166" lon="0.8477060403674841">
        <ele>1108.6</ele>
        <time>2020-10-29T12:14:20.000Z</time>
      </trkpt>
      <trkpt lat="41.28191809169948" lon="0.8477174397557974">
        <ele>1108.6</ele>
        <time>2020-10-29T12:14:21.000Z</time>
      </trkpt>
      <trkpt lat="41.28199034370482" lon="0.8479370456188917">
        <ele>1110.6</ele>
        <time>2020-10-29T12:14:37.000Z</time>
      </trkpt>
      <trkpt lat="41.28200886771083" lon="0.8480976428836584">
        <ele>1111.8</ele>
        <time>2020-10-29T12:14:47.000Z</time>
      </trkpt>
      <trkpt lat="41.28201096318662" lon="0.8481120597571135">
        <ele>1111.8</ele>
        <time>2020-10-29T12:14:48.000Z</time>
      </trkpt>
      <trkpt lat="41.28201775252819" lon="0.8481564000248909">
        <ele>1111.8</ele>
        <time>2020-10-29T12:14:51.000Z</time>
      </trkpt>
      <trkpt lat="41.282023368403316" lon="0.8483976311981678">
        <ele>1112</ele>
        <time>2020-10-29T12:15:06.000Z</time>
      </trkpt>
      <trkpt lat="41.28196628764272" lon="0.8486341685056686">
        <ele>1112.8</ele>
        <time>2020-10-29T12:15:21.000Z</time>
      </trkpt>
      <trkpt lat="41.28191515803337" lon="0.848860228434205">
        <ele>1114</ele>
        <time>2020-10-29T12:15:35.000Z</time>
      </trkpt>
      <trkpt lat="41.28190526738763" lon="0.848888223990798">
        <ele>1114.2</ele>
        <time>2020-10-29T12:15:37.000Z</time>
      </trkpt>
      <trkpt lat="41.281900154426694" lon="0.8489011321216822">
        <ele>1114.2</ele>
        <time>2020-10-29T12:15:38.000Z</time>
      </trkpt>
      <trkpt lat="41.28186679445207" lon="0.8491364121437073">
        <ele>1111.6</ele>
        <time>2020-10-29T12:15:52.000Z</time>
      </trkpt>
      <trkpt lat="41.28183494322002" lon="0.8493359014391899">
        <ele>1110.6</ele>
        <time>2020-10-29T12:16:03.000Z</time>
      </trkpt>
      <trkpt lat="41.281831841915846" lon="0.8493518270552158">
        <ele>1110.6</ele>
        <time>2020-10-29T12:16:04.000Z</time>
      </trkpt>
      <trkpt lat="41.281760009005666" lon="0.8495752885937691">
        <ele>1112.4</ele>
        <time>2020-10-29T12:16:18.000Z</time>
      </trkpt>
      <trkpt lat="41.28173712641001" lon="0.8496485464274883">
        <ele>1113</ele>
        <time>2020-10-29T12:16:22.000Z</time>
      </trkpt>
      <trkpt lat="41.28173285163939" lon="0.8496649749577045">
        <ele>1113.2</ele>
        <time>2020-10-29T12:16:23.000Z</time>
      </trkpt>
      <trkpt lat="41.28171131014824" lon="0.8497273363173008">
        <ele>1113.6</ele>
        <time>2020-10-29T12:16:27.000Z</time>
      </trkpt>
      <trkpt lat="41.28170200623572" lon="0.8497419208288193">
        <ele>1114</ele>
        <time>2020-10-29T12:16:28.000Z</time>
      </trkpt>
      <trkpt lat="41.281644590198994" lon="0.8498787973076105">
        <ele>1116.4</ele>
        <time>2020-10-29T12:16:36.000Z</time>
      </trkpt>
      <trkpt lat="41.281640231609344" lon="0.8498906157910824">
        <ele>1116.6</ele>
        <time>2020-10-29T12:16:37.000Z</time>
      </trkpt>
      <trkpt lat="41.281603099778295" lon="0.8499843254685402">
        <ele>1117.6</ele>
        <time>2020-10-29T12:16:43.000Z</time>
      </trkpt>
      <trkpt lat="41.281592370942235" lon="0.8500168472528458">
        <ele>1117.8</ele>
        <time>2020-10-29T12:16:45.000Z</time>
      </trkpt>
      <trkpt lat="41.28157175146043" lon="0.8500834833830595">
        <ele>1118.4</ele>
        <time>2020-10-29T12:16:54.000Z</time>
      </trkpt>
      <trkpt lat="41.28155188634992" lon="0.8501644525676966">
        <ele>1119.2</ele>
        <time>2020-10-29T12:17:04.000Z</time>
      </trkpt>
      <trkpt lat="41.28151165321469" lon="0.8503974694758654">
        <ele>1120.6</ele>
        <time>2020-10-29T12:17:18.000Z</time>
      </trkpt>
      <trkpt lat="41.28151156939566" lon="0.8504120539873838">
        <ele>1120.6</ele>
        <time>2020-10-29T12:17:19.000Z</time>
      </trkpt>
      <trkpt lat="41.28151098266244" lon="0.8504304941743612">
        <ele>1120.8</ele>
        <time>2020-10-29T12:17:20.000Z</time>
      </trkpt>
      <trkpt lat="41.281505366787314" lon="0.8505106251686811">
        <ele>1121.2</ele>
        <time>2020-10-29T12:17:25.000Z</time>
      </trkpt>
      <trkpt lat="41.28150159493089" lon="0.8505281433463097">
        <ele>1121.2</ele>
        <time>2020-10-29T12:17:26.000Z</time>
      </trkpt>
      <trkpt lat="41.28144392743707" lon="0.8506902493536472">
        <ele>1120</ele>
        <time>2020-10-29T12:17:36.000Z</time>
      </trkpt>
      <trkpt lat="41.2814371380955" lon="0.8507073484361172">
        <ele>1119.8</ele>
        <time>2020-10-29T12:17:37.000Z</time>
      </trkpt>
      <trkpt lat="41.281416937708855" lon="0.8507351763546467">
        <ele>1119.2</ele>
        <time>2020-10-29T12:17:40.000Z</time>
      </trkpt>
      <trkpt lat="41.281416937708855" lon="0.8507334161549807">
        <ele>1119.2</ele>
        <time>2020-10-29T12:17:43.000Z</time>
      </trkpt>
      <trkpt lat="41.281370082870126" lon="0.85076954215765">
        <ele>1118.6</ele>
        <time>2020-10-29T12:17:51.000Z</time>
      </trkpt>
      <trkpt lat="41.28123722970486" lon="0.8509355038404465">
        <ele>1115.4</ele>
        <time>2020-10-29T12:18:05.000Z</time>
      </trkpt>
      <trkpt lat="41.28122868016362" lon="0.8509505074471235">
        <ele>1115.2</ele>
        <time>2020-10-29T12:18:06.000Z</time>
      </trkpt>
      <trkpt lat="41.2812193762511" lon="0.8509652595967054">
        <ele>1115</ele>
        <time>2020-10-29T12:18:07.000Z</time>
      </trkpt>
      <trkpt lat="41.281089624390006" lon="0.8511391840875149">
        <ele>1114</ele>
        <time>2020-10-29T12:18:21.000Z</time>
      </trkpt>
      <trkpt lat="41.281027095392346" lon="0.8512210752815008">
        <ele>1115.2</ele>
        <time>2020-10-29T12:18:28.000Z</time>
      </trkpt>
      <trkpt lat="41.281016785651445" lon="0.8512307982891798">
        <ele>1115.4</ele>
        <time>2020-10-29T12:18:29.000Z</time>
      </trkpt>
      <trkpt lat="41.2809413485229" lon="0.8513515815138817">
        <ele>1116.8</ele>
        <time>2020-10-29T12:18:40.000Z</time>
      </trkpt>
      <trkpt lat="41.28093623556197" lon="0.8513654116541147">
        <ele>1116.8</ele>
        <time>2020-10-29T12:18:41.000Z</time>
      </trkpt>
      <trkpt lat="41.280874628573656" lon="0.8514843508601189">
        <ele>1115.8</ele>
        <time>2020-10-29T12:18:50.000Z</time>
      </trkpt>
      <trkpt lat="41.28086809068918" lon="0.8514982648193836">
        <ele>1115.6</ele>
        <time>2020-10-29T12:18:51.000Z</time>
      </trkpt>
      <trkpt lat="41.280822828412056" lon="0.8515993505716324">
        <ele>1114.6</ele>
        <time>2020-10-29T12:19:01.000Z</time>
      </trkpt>
      <trkpt lat="41.28078309819102" lon="0.8516908809542656">
        <ele>1116</ele>
        <time>2020-10-29T12:19:27.000Z</time>
      </trkpt>
      <trkpt lat="41.28073649480939" lon="0.8518166095018387">
        <ele>1117.8</ele>
        <time>2020-10-29T12:19:35.000Z</time>
      </trkpt>
      <trkpt lat="41.28073062747717" lon="0.851832702755928">
        <ele>1118</ele>
        <time>2020-10-29T12:19:36.000Z</time>
      </trkpt>
      <trkpt lat="41.28072006627917" lon="0.8518681582063437">
        <ele>1118.4</ele>
        <time>2020-10-29T12:19:38.000Z</time>
      </trkpt>
      <trkpt lat="41.280688885599375" lon="0.8519559167325497">
        <ele>1119.6</ele>
        <time>2020-10-29T12:19:43.000Z</time>
      </trkpt>
      <trkpt lat="41.28068218007684" lon="0.8519736863672733">
        <ele>1119.8</ele>
        <time>2020-10-29T12:19:44.000Z</time>
      </trkpt>
      <trkpt lat="41.28066323697567" lon="0.8520383108407259">
        <ele>1120.6</ele>
        <time>2020-10-29T12:19:48.000Z</time>
      </trkpt>
      <trkpt lat="41.28061193972826" lon="0.8522434998303652">
        <ele>1121.8</ele>
        <time>2020-10-29T12:20:02.000Z</time>
      </trkpt>
      <trkpt lat="41.28060657531023" lon="0.8522793743759394">
        <ele>1121.6</ele>
        <time>2020-10-29T12:20:04.000Z</time>
      </trkpt>
      <trkpt lat="41.28057564608753" lon="0.8524215314537287">
        <ele>1120.6</ele>
        <time>2020-10-29T12:20:13.000Z</time>
      </trkpt>
      <trkpt lat="41.28057170659304" lon="0.8524359483271837">
        <ele>1120.4</ele>
        <time>2020-10-29T12:20:14.000Z</time>
      </trkpt>
      <trkpt lat="41.280511105433106" lon="0.8525565639138222">
        <ele>1119.6</ele>
        <time>2020-10-29T12:20:27.000Z</time>
      </trkpt>
      <trkpt lat="41.28047028556466" lon="0.8525249641388655">
        <ele>1119.8</ele>
        <time>2020-10-29T12:20:46.000Z</time>
      </trkpt>
      <trkpt lat="41.28045746125281" lon="0.8525181747972965">
        <ele>1119.8</ele>
        <time>2020-10-29T12:20:47.000Z</time>
      </trkpt>
      <trkpt lat="41.28043357282877" lon="0.8525031711906195">
        <ele>1120</ele>
        <time>2020-10-29T12:20:49.000Z</time>
      </trkpt>
      <trkpt lat="41.28027884289622" lon="0.8523812144994736">
        <ele>1120.8</ele>
        <time>2020-10-29T12:21:05.000Z</time>
      </trkpt>
      <trkpt lat="41.28016811795533" lon="0.8522813860327005">
        <ele>1121.6</ele>
        <time>2020-10-29T12:21:20.000Z</time>
      </trkpt>
      <trkpt lat="41.280024871230125" lon="0.8521020133048296">
        <ele>1121.6</ele>
        <time>2020-10-29T12:22:07.000Z</time>
      </trkpt>
      <trkpt lat="41.28001347184181" lon="0.8520945534110069">
        <ele>1121.6</ele>
        <time>2020-10-29T12:22:08.000Z</time>
      </trkpt>
      <trkpt lat="41.27998908050358" lon="0.8520672284066677">
        <ele>1121.4</ele>
        <time>2020-10-29T12:22:11.000Z</time>
      </trkpt>
      <trkpt lat="41.2798812892288" lon="0.8518750313669443">
        <ele>1120.8</ele>
        <time>2020-10-29T12:22:26.000Z</time>
      </trkpt>
      <trkpt lat="41.27987248823047" lon="0.8518594410270452">
        <ele>1120.6</ele>
        <time>2020-10-29T12:22:27.000Z</time>
      </trkpt>
      <trkpt lat="41.27985748462379" lon="0.8518289308995008">
        <ele>1120.6</ele>
        <time>2020-10-29T12:22:29.000Z</time>
      </trkpt>
      <trkpt lat="41.27982269972563" lon="0.8517562597990036">
        <ele>1120.4</ele>
        <time>2020-10-29T12:22:34.000Z</time>
      </trkpt>
      <trkpt lat="41.279814736917615" lon="0.85174142383039">
        <ele>1120.2</ele>
        <time>2020-10-29T12:22:35.000Z</time>
      </trkpt>
      <trkpt lat="41.279743909835815" lon="0.8516127616167068">
        <ele>1119.4</ele>
        <time>2020-10-29T12:22:44.000Z</time>
      </trkpt>
      <trkpt lat="41.279734605923295" lon="0.8516007754951715">
        <ele>1119.4</ele>
        <time>2020-10-29T12:22:45.000Z</time>
      </trkpt>
      <trkpt lat="41.279715076088905" lon="0.8515770547091961">
        <ele>1119.2</ele>
        <time>2020-10-29T12:22:47.000Z</time>
      </trkpt>
      <trkpt lat="41.27969822846353" lon="0.851551741361618">
        <ele>1119</ele>
        <time>2020-10-29T12:22:49.000Z</time>
      </trkpt>
      <trkpt lat="41.27968020737171" lon="0.8515275176614523">
        <ele>1118.8</ele>
        <time>2020-10-29T12:22:51.000Z</time>
      </trkpt>
      <trkpt lat="41.27960275858641" lon="0.8514276053756475">
        <ele>1118</ele>
        <time>2020-10-29T12:23:00.000Z</time>
      </trkpt>
      <trkpt lat="41.279593370854855" lon="0.8514163736253977">
        <ele>1117.8</ele>
        <time>2020-10-29T12:23:01.000Z</time>
      </trkpt>
      <trkpt lat="41.27945188432932" lon="0.8512751385569572">
        <ele>1117.8</ele>
        <time>2020-10-29T12:23:16.000Z</time>
      </trkpt>
      <trkpt lat="41.279440904036164" lon="0.8512667566537857">
        <ele>1117.8</ele>
        <time>2020-10-29T12:23:17.000Z</time>
      </trkpt>
      <trkpt lat="41.27937728539109" lon="0.8512160461395979">
        <ele>1117.8</ele>
        <time>2020-10-29T12:23:23.000Z</time>
      </trkpt>
      <trkpt lat="41.27936731092632" lon="0.8512058202177286">
        <ele>1117.8</ele>
        <time>2020-10-29T12:23:24.000Z</time>
      </trkpt>
      <trkpt lat="41.27935012802482" lon="0.8511843625456095">
        <ele>1117.8</ele>
        <time>2020-10-29T12:23:26.000Z</time>
      </trkpt>
      <trkpt lat="41.27930914051831" lon="0.8511411119252443">
        <ele>1117.8</ele>
        <time>2020-10-29T12:23:30.000Z</time>
      </trkpt>
      <trkpt lat="41.2792990822345" lon="0.8511305507272482">
        <ele>1117.8</ele>
        <time>2020-10-29T12:23:31.000Z</time>
      </trkpt>
      <trkpt lat="41.27925264649093" lon="0.8510701172053814">
        <ele>1118</ele>
        <time>2020-10-29T12:23:36.000Z</time>
      </trkpt>
      <trkpt lat="41.27924367785454" lon="0.851057879626751">
        <ele>1118</ele>
        <time>2020-10-29T12:23:37.000Z</time>
      </trkpt>
      <trkpt lat="41.27910663373768" lon="0.8508964441716671">
        <ele>1118.4</ele>
        <time>2020-10-29T12:23:51.000Z</time>
      </trkpt>
      <trkpt lat="41.27905961126089" lon="0.8508412912487984">
        <ele>1118.6</ele>
        <time>2020-10-29T12:23:56.000Z</time>
      </trkpt>
      <trkpt lat="41.279051564633846" lon="0.8508310653269291">
        <ele>1118.6</ele>
        <time>2020-10-29T12:23:57.000Z</time>
      </trkpt>
      <trkpt lat="41.27902868203819" lon="0.8507966157048941">
        <ele>1118.6</ele>
        <time>2020-10-29T12:24:00.000Z</time>
      </trkpt>
      <trkpt lat="41.278964057564735" lon="0.8506803587079048">
        <ele>1119.2</ele>
        <time>2020-10-29T12:24:08.000Z</time>
      </trkpt>
      <trkpt lat="41.278957184404135" lon="0.8506665285676718">
        <ele>1119.2</ele>
        <time>2020-10-29T12:24:09.000Z</time>
      </trkpt>
      <trkpt lat="41.27891946583986" lon="0.8505714777857065">
        <ele>1119.6</ele>
        <time>2020-10-29T12:24:15.000Z</time>
      </trkpt>
      <trkpt lat="41.278911754488945" lon="0.8505570609122515">
        <ele>1119.6</ele>
        <time>2020-10-29T12:24:16.000Z</time>
      </trkpt>
      <trkpt lat="41.27879767678678" lon="0.8503703959286213">
        <ele>1119</ele>
        <time>2020-10-29T12:24:30.000Z</time>
      </trkpt>
      <trkpt lat="41.27872517332435" lon="0.850345166400075">
        <ele>1118.6</ele>
        <time>2020-10-29T12:24:36.000Z</time>
      </trkpt>
      <trkpt lat="41.278710924088955" lon="0.8503480162471533">
        <ele>1118.4</ele>
        <time>2020-10-29T12:24:37.000Z</time>
      </trkpt>
      <trkpt lat="41.27856792882085" lon="0.8503238763660192">
        <ele>1117.6</ele>
        <time>2020-10-29T12:24:49.000Z</time>
      </trkpt>
      <trkpt lat="41.278555104508996" lon="0.8503207750618458">
        <ele>1117.6</ele>
        <time>2020-10-29T12:24:50.000Z</time>
      </trkpt>
      <trkpt lat="41.2783872988075" lon="0.8503295760601759">
        <ele>1116.6</ele>
        <time>2020-10-29T12:25:04.000Z</time>
      </trkpt>
      <trkpt lat="41.278379084542394" lon="0.850328067317605">
        <ele>1116.4</ele>
        <time>2020-10-29T12:25:05.000Z</time>
      </trkpt>
      <trkpt lat="41.278193509206176" lon="0.8503543864935637">
        <ele>1115.4</ele>
        <time>2020-10-29T12:25:22.000Z</time>
      </trkpt>
      <trkpt lat="41.27818294800818" lon="0.8503556437790394">
        <ele>1115.4</ele>
        <time>2020-10-29T12:25:23.000Z</time>
      </trkpt>
      <trkpt lat="41.27813257277012" lon="0.850365785881877">
        <ele>1115</ele>
        <time>2020-10-29T12:25:27.000Z</time>
      </trkpt>
      <trkpt lat="41.27811840735376" lon="0.8503680489957333">
        <ele>1115</ele>
        <time>2020-10-29T12:25:28.000Z</time>
      </trkpt>
      <trkpt lat="41.27806912176311" lon="0.8503641933202744">
        <ele>1114.6</ele>
        <time>2020-10-29T12:25:32.000Z</time>
      </trkpt>
      <trkpt lat="41.27803090028465" lon="0.850357823073864">
        <ele>1114.4</ele>
        <time>2020-10-29T12:25:35.000Z</time>
      </trkpt>
      <trkpt lat="41.27798790112138" lon="0.8503335155546665">
        <ele>1114.2</ele>
        <time>2020-10-29T12:25:38.000Z</time>
      </trkpt>
      <trkpt lat="41.27781003713608" lon="0.8502772729843855">
        <ele>1113</ele>
        <time>2020-10-29T12:25:52.000Z</time>
      </trkpt>
      <trkpt lat="41.27779888920486" lon="0.8502548094838858">
        <ele>1113</ele>
        <time>2020-10-29T12:26:10.000Z</time>
      </trkpt>
      <trkpt lat="41.27770995721221" lon="0.8504330087453127">
        <ele>1112.4</ele>
        <time>2020-10-29T12:26:22.000Z</time>
      </trkpt>
      <trkpt lat="41.277702832594514" lon="0.8504511974751949">
        <ele>1112.4</ele>
        <time>2020-10-29T12:26:23.000Z</time>
      </trkpt>
      <trkpt lat="41.27767525613308" lon="0.8505009859800339">
        <ele>1112.2</ele>
        <time>2020-10-29T12:26:26.000Z</time>
      </trkpt>
      <trkpt lat="41.277599735185504" lon="0.8505925163626671">
        <ele>1111.4</ele>
        <time>2020-10-29T12:26:32.000Z</time>
      </trkpt>
      <trkpt lat="41.277590934187174" lon="0.8506077714264393">
        <ele>1111.2</ele>
        <time>2020-10-29T12:26:33.000Z</time>
      </trkpt>
      <trkpt lat="41.2775360327214" lon="0.850680023431778">
        <ele>1110.2</ele>
        <time>2020-10-29T12:26:38.000Z</time>
      </trkpt>
      <trkpt lat="41.27736143767834" lon="0.850725956261158">
        <ele>1108.8</ele>
        <time>2020-10-29T12:26:52.000Z</time>
      </trkpt>
      <trkpt lat="41.277310056611896" lon="0.8507252018898726">
        <ele>1108.6</ele>
        <time>2020-10-29T12:27:00.000Z</time>
      </trkpt>
      <trkpt lat="41.277170749381185" lon="0.8506899140775204">
        <ele>1107.6</ele>
        <time>2020-10-29T12:27:28.000Z</time>
      </trkpt>
      <trkpt lat="41.27698584459722" lon="0.8507458213716745">
        <ele>1105</ele>
        <time>2020-10-29T12:27:42.000Z</time>
      </trkpt>
      <trkpt lat="41.27680890262127" lon="0.8507402893155813">
        <ele>1103.2</ele>
        <time>2020-10-29T12:27:57.000Z</time>
      </trkpt>
      <trkpt lat="41.27679901197553" lon="0.8507480844855309">
        <ele>1103</ele>
        <time>2020-10-29T12:27:58.000Z</time>
      </trkpt>
      <trkpt lat="41.27678878605366" lon="0.8507545385509729">
        <ele>1102.8</ele>
        <time>2020-10-29T12:27:59.000Z</time>
      </trkpt>
      <trkpt lat="41.276737907901406" lon="0.8507537841796875">
        <ele>1102.4</ele>
        <time>2020-10-29T12:28:03.000Z</time>
      </trkpt>
      <trkpt lat="41.27655719406903" lon="0.8507956936955452">
        <ele>1099.6</ele>
        <time>2020-10-29T12:28:16.000Z</time>
      </trkpt>
      <trkpt lat="41.27648343332112" lon="0.8508088532835245">
        <ele>1098.6</ele>
        <time>2020-10-29T12:28:22.000Z</time>
      </trkpt>
      <trkpt lat="41.27647161483765" lon="0.8508126251399517">
        <ele>1098.4</ele>
        <time>2020-10-29T12:28:23.000Z</time>
      </trkpt>
      <trkpt lat="41.27645082771778" lon="0.8508183248341084">
        <ele>1098</ele>
        <time>2020-10-29T12:28:25.000Z</time>
      </trkpt>
      <trkpt lat="41.27644328400493" lon="0.8508126251399517">
        <ele>1097.8</ele>
        <time>2020-10-29T12:28:30.000Z</time>
      </trkpt>
      <trkpt lat="41.27571112476289" lon="0.8516305312514305">
        <ele>1075.2</ele>
        <time>2020-10-29T12:51:15.000Z</time>
      </trkpt>
      <trkpt lat="41.275555472821" lon="0.8516472950577736">
        <ele>1073.6</ele>
        <time>2020-10-29T12:51:27.000Z</time>
      </trkpt>
      <trkpt lat="41.27539470791817" lon="0.8516778890043497">
        <ele>1071</ele>
        <time>2020-10-29T12:51:39.000Z</time>
      </trkpt>
      <trkpt lat="41.275248527526855" lon="0.8516566827893257">
        <ele>1068.8</ele>
        <time>2020-10-29T12:51:53.000Z</time>
      </trkpt>
      <trkpt lat="41.2752359546721" lon="0.8516612928360701">
        <ele>1068.6</ele>
        <time>2020-10-29T12:51:54.000Z</time>
      </trkpt>
      <trkpt lat="41.27506102435291" lon="0.8517157752066851">
        <ele>1066.6</ele>
        <time>2020-10-29T12:52:10.000Z</time>
      </trkpt>
      <trkpt lat="41.27489506267011" lon="0.8518242370337248">
        <ele>1067.8</ele>
        <time>2020-10-29T12:52:26.000Z</time>
      </trkpt>
      <trkpt lat="41.27474259585142" lon="0.8519705850630999">
        <ele>1067</ele>
        <time>2020-10-29T12:52:42.000Z</time>
      </trkpt>
      <trkpt lat="41.27467939630151" lon="0.8519915398210287">
        <ele>1064.2</ele>
        <time>2020-10-29T12:52:50.000Z</time>
      </trkpt>
      <trkpt lat="41.274530282244086" lon="0.8518794737756252">
        <ele>1055.4</ele>
        <time>2020-10-29T12:54:43.000Z</time>
      </trkpt>
      <trkpt lat="41.27452022396028" lon="0.8518778812140226">
        <ele>1054.8</ele>
        <time>2020-10-29T12:54:46.000Z</time>
      </trkpt>
      <trkpt lat="41.27446155063808" lon="0.8519432600587606">
        <ele>1053.6</ele>
        <time>2020-10-29T12:57:11.000Z</time>
      </trkpt>
      <trkpt lat="41.274417294189334" lon="0.8520870935171843">
        <ele>1056.6</ele>
        <time>2020-10-29T12:57:22.000Z</time>
      </trkpt>
      <trkpt lat="41.274407152086496" lon="0.852111903950572">
        <ele>1057</ele>
        <time>2020-10-29T12:57:27.000Z</time>
      </trkpt>
      <trkpt lat="41.27453422173858" lon="0.851766737177968">
        <ele>1054</ele>
        <time>2020-10-29T12:58:52.000Z</time>
      </trkpt>
      <trkpt lat="41.274533635005355" lon="0.8517306111752987">
        <ele>1053.6</ele>
        <time>2020-10-29T12:59:01.000Z</time>
      </trkpt>
      <trkpt lat="41.27453053370118" lon="0.8517683297395706">
        <ele>1054</ele>
        <time>2020-10-29T12:59:04.000Z</time>
      </trkpt>
      <trkpt lat="41.274519050493836" lon="0.8517997618764639">
        <ele>1053.8</ele>
        <time>2020-10-29T12:59:13.000Z</time>
      </trkpt>
      <trkpt lat="41.27457738853991" lon="0.8518167771399021">
        <ele>1056.8</ele>
        <time>2020-10-29T12:59:25.000Z</time>
      </trkpt>
      <trkpt lat="41.27457872964442" lon="0.8518298529088497">
        <ele>1057</ele>
        <time>2020-10-29T12:59:30.000Z</time>
      </trkpt>
      <trkpt lat="41.27449817955494" lon="0.8520900271832943">
        <ele>1059.2</ele>
        <time>2020-10-29T12:59:37.000Z</time>
      </trkpt>
      <trkpt lat="41.274498347193" lon="0.8521185256540775">
        <ele>1060.2</ele>
        <time>2020-10-29T12:59:44.000Z</time>
      </trkpt>
      <trkpt lat="41.27442726865411" lon="0.8521202020347118">
        <ele>1057.8</ele>
        <time>2020-10-29T12:59:53.000Z</time>
      </trkpt>
      <trkpt lat="41.27443757839501" lon="0.8520027715712786">
        <ele>1054.8</ele>
        <time>2020-10-29T13:08:12.000Z</time>
      </trkpt>
      <trkpt lat="41.274407152086496" lon="0.8519728481769562">
        <ele>1052.8</ele>
        <time>2020-10-29T13:08:16.000Z</time>
      </trkpt>
      <trkpt lat="41.274395333603024" lon="0.8519575092941523">
        <ele>1052</ele>
        <time>2020-10-29T13:08:20.000Z</time>
      </trkpt>
      <trkpt lat="41.274291314184666" lon="0.8520916197448969">
        <ele>1052.6</ele>
        <time>2020-10-29T13:09:16.000Z</time>
      </trkpt>
      <trkpt lat="41.274307910352945" lon="0.852099247276783">
        <ele>1053.4</ele>
        <time>2020-10-29T13:09:19.000Z</time>
      </trkpt>
      <trkpt lat="41.274361219257116" lon="0.8520542364567518">
        <ele>1053.8</ele>
        <time>2020-10-29T13:09:25.000Z</time>
      </trkpt>
      <trkpt lat="41.2743878737092" lon="0.8520482853055">
        <ele>1054.4</ele>
        <time>2020-10-29T13:09:33.000Z</time>
      </trkpt>
      <trkpt lat="41.27442492172122" lon="0.851968489587307">
        <ele>1053.2</ele>
        <time>2020-10-29T13:12:06.000Z</time>
      </trkpt>
      <trkpt lat="41.274433052167296" lon="0.8519573416560888">
        <ele>1053.2</ele>
        <time>2020-10-29T13:12:08.000Z</time>
      </trkpt>
      <trkpt lat="41.274437410756946" lon="0.8519602753221989">
        <ele>1053.4</ele>
        <time>2020-10-29T13:12:11.000Z</time>
      </trkpt>
      <trkpt lat="41.27428184263408" lon="0.8518257457762957">
        <ele>1044.4</ele>
        <time>2020-10-29T13:14:32.000Z</time>
      </trkpt>
      <trkpt lat="41.27417245879769" lon="0.8518579322844744">
        <ele>1041.8</ele>
        <time>2020-10-29T13:14:37.000Z</time>
      </trkpt>
      <trkpt lat="41.274132896214724" lon="0.8518863469362259">
        <ele>1041.4</ele>
        <time>2020-10-29T13:14:38.000Z</time>
      </trkpt>
      <trkpt lat="41.27400574274361" lon="0.8520081359893084">
        <ele>1040.8</ele>
        <time>2020-10-29T13:14:42.000Z</time>
      </trkpt>
      <trkpt lat="41.273995181545615" lon="0.852012662217021">
        <ele>1040.6</ele>
        <time>2020-10-29T13:14:43.000Z</time>
      </trkpt>
      <trkpt lat="41.2737422157079" lon="0.8521804679185152">
        <ele>1024.2</ele>
        <time>2020-10-29T13:14:59.000Z</time>
      </trkpt>
      <trkpt lat="41.2736954446882" lon="0.852161692455411">
        <ele>1019.8</ele>
        <time>2020-10-29T13:15:04.000Z</time>
      </trkpt>
      <trkpt lat="41.27367775887251" lon="0.8521627821028233">
        <ele>1017.8</ele>
        <time>2020-10-29T13:15:05.000Z</time>
      </trkpt>
      <trkpt lat="41.27367055043578" lon="0.8521800488233566">
        <ele>1016.8</ele>
        <time>2020-10-29T13:15:18.000Z</time>
      </trkpt>
      <trkpt lat="41.27364247106016" lon="0.8521932922303677">
        <ele>1013.6</ele>
        <time>2020-10-29T13:15:33.000Z</time>
      </trkpt>
      <trkpt lat="41.273696618154645" lon="0.8521296735852957">
        <ele>1020.6</ele>
        <time>2020-10-29T13:15:39.000Z</time>
      </trkpt>
      <trkpt lat="41.273710280656815" lon="0.8521138317883015">
        <ele>1022.2</ele>
        <time>2020-10-29T13:15:40.000Z</time>
      </trkpt>
      <trkpt lat="41.273702485486865" lon="0.8521258179098368">
        <ele>1021.2</ele>
        <time>2020-10-29T13:15:42.000Z</time>
      </trkpt>
      <trkpt lat="41.273710280656815" lon="0.8521103952080011">
        <ele>1022.4</ele>
        <time>2020-10-29T13:15:44.000Z</time>
      </trkpt>
      <trkpt lat="41.273708352819085" lon="0.8520976547151804">
        <ele>1022.4</ele>
        <time>2020-10-29T13:15:48.000Z</time>
      </trkpt>
      <trkpt lat="41.2736679520458" lon="0.8521373849362135">
        <ele>1017.4</ele>
        <time>2020-10-29T13:15:54.000Z</time>
      </trkpt>
      <trkpt lat="41.27363249659538" lon="0.8521040249615908">
        <ele>1014.4</ele>
        <time>2020-10-29T13:16:02.000Z</time>
      </trkpt>
      <trkpt lat="41.27371966838837" lon="0.8518119994550943">
        <ele>1020.8</ele>
        <time>2020-10-29T13:16:27.000Z</time>
      </trkpt>
      <trkpt lat="41.27359930425882" lon="0.8518770430237055">
        <ele>1015.6</ele>
        <time>2020-10-29T13:16:46.000Z</time>
      </trkpt>
      <trkpt lat="41.27355814911425" lon="0.8518658112734556">
        <ele>1011.6</ele>
        <time>2020-10-29T13:16:51.000Z</time>
      </trkpt>
      <trkpt lat="41.273551024496555" lon="0.8518594410270452">
        <ele>1011</ele>
        <time>2020-10-29T13:16:52.000Z</time>
      </trkpt>
      <trkpt lat="41.273527974262834" lon="0.8518333733081818">
        <ele>1009.2</ele>
        <time>2020-10-29T13:16:56.000Z</time>
      </trkpt>
      <trkpt lat="41.27350819297135" lon="0.8518017735332251">
        <ele>1007.8</ele>
        <time>2020-10-29T13:17:00.000Z</time>
      </trkpt>
      <trkpt lat="41.27348723821342" lon="0.8517902065068483">
        <ele>1005.8</ele>
        <time>2020-10-29T13:17:03.000Z</time>
      </trkpt>
      <trkpt lat="41.27345580607653" lon="0.8517871052026749">
        <ele>1002.6</ele>
        <time>2020-10-29T13:17:12.000Z</time>
      </trkpt>
      <trkpt lat="41.27355353906751" lon="0.8516612090170383">
        <ele>1007.4</ele>
        <time>2020-10-29T13:17:16.000Z</time>
      </trkpt>
      <trkpt lat="41.273684380576015" lon="0.8513615559786558">
        <ele>1005.6</ele>
        <time>2020-10-29T13:17:32.000Z</time>
      </trkpt>
      <trkpt lat="41.27360793761909" lon="0.8514040522277355">
        <ele>1002.6</ele>
        <time>2020-10-29T13:17:41.000Z</time>
      </trkpt>
      <trkpt lat="41.27357357181609" lon="0.8514658268541098">
        <ele>1002.6</ele>
        <time>2020-10-29T13:17:46.000Z</time>
      </trkpt>
      <trkpt lat="41.273556388914585" lon="0.8514729514718056">
        <ele>1002</ele>
        <time>2020-10-29T13:17:51.000Z</time>
      </trkpt>
      <trkpt lat="41.27356217242777" lon="0.851379157975316">
        <ele>999.6</ele>
        <time>2020-10-29T13:17:59.000Z</time>
      </trkpt>
      <trkpt lat="41.27352143637836" lon="0.8513245079666376">
        <ele>996</ele>
        <time>2020-10-29T13:18:08.000Z</time>
      </trkpt>
      <trkpt lat="41.27350081689656" lon="0.8513214066624641">
        <ele>994.8</ele>
        <time>2020-10-29T13:18:15.000Z</time>
      </trkpt>
      <trkpt lat="41.27355814911425" lon="0.8511391002684832">
        <ele>993</ele>
        <time>2020-10-29T13:18:28.000Z</time>
      </trkpt>
      <trkpt lat="41.27358145080507" lon="0.8510860428214073">
        <ele>992.8</ele>
        <time>2020-10-29T13:18:34.000Z</time>
      </trkpt>
      <trkpt lat="41.27352889627218" lon="0.8511883858591318">
        <ele>992.8</ele>
        <time>2020-10-29T13:18:46.000Z</time>
      </trkpt>
      <trkpt lat="41.27343107946217" lon="0.8514115959405899">
        <ele>993.6</ele>
        <time>2020-10-29T13:18:49.000Z</time>
      </trkpt>
      <trkpt lat="41.27337198704481" lon="0.8516018651425838">
        <ele>996.2</ele>
        <time>2020-10-29T13:19:04.000Z</time>
      </trkpt>
      <trkpt lat="41.2733796145767" lon="0.8516190480440855">
        <ele>997</ele>
        <time>2020-10-29T13:19:17.000Z</time>
      </trkpt>
      <trkpt lat="41.27332949079573" lon="0.8515188843011856">
        <ele>991.4</ele>
        <time>2020-10-29T13:19:30.000Z</time>
      </trkpt>
      <trkpt lat="41.27331314608455" lon="0.8514032978564501">
        <ele>987</ele>
        <time>2020-10-29T13:19:42.000Z</time>
      </trkpt>
      <trkpt lat="41.273304764181376" lon="0.851383013650775">
        <ele>986</ele>
        <time>2020-10-29T13:19:47.000Z</time>
      </trkpt>
      <trkpt lat="41.273454800248146" lon="0.8509673550724983">
        <ele>983</ele>
        <time>2020-10-29T13:19:51.000Z</time>
      </trkpt>
      <trkpt lat="41.27351422794163" lon="0.8508138824254274">
        <ele>991.8</ele>
        <time>2020-10-29T13:19:55.000Z</time>
      </trkpt>
      <trkpt lat="41.27357231453061" lon="0.8506911713629961">
        <ele>1005.4</ele>
        <time>2020-10-29T13:19:59.000Z</time>
      </trkpt>
      <trkpt lat="41.273598466068506" lon="0.8506441488862038">
        <ele>1011</ele>
        <time>2020-10-29T13:20:00.000Z</time>
      </trkpt>
      <trkpt lat="41.27363886684179" lon="0.8505956176668406">
        <ele>1018.6</ele>
        <time>2020-10-29T13:20:04.000Z</time>
      </trkpt>
      <trkpt lat="41.27364884130657" lon="0.8505850564688444">
        <ele>1020.4</ele>
        <time>2020-10-29T13:20:08.000Z</time>
      </trkpt>
      <trkpt lat="41.27368262037635" lon="0.8505221083760262">
        <ele>1027.8</ele>
        <time>2020-10-29T13:20:15.000Z</time>
      </trkpt>
      <trkpt lat="41.273696618154645" lon="0.8504857309162617">
        <ele>1031.2</ele>
        <time>2020-10-29T13:20:17.000Z</time>
      </trkpt>
      <trkpt lat="41.27372092567384" lon="0.8504444919526577">
        <ele>1036.2</ele>
        <time>2020-10-29T13:20:20.000Z</time>
      </trkpt>
      <trkpt lat="41.27374967560172" lon="0.8503886684775352">
        <ele>1042.4</ele>
        <time>2020-10-29T13:20:26.000Z</time>
      </trkpt>
      <trkpt lat="41.273760991171" lon="0.8503727428615093">
        <ele>1044.6</ele>
        <time>2020-10-29T13:20:29.000Z</time>
      </trkpt>
      <trkpt lat="41.27374531701207" lon="0.8503281511366367">
        <ele>1044.2</ele>
        <time>2020-10-29T13:20:35.000Z</time>
      </trkpt>
      <trkpt lat="41.27371581271291" lon="0.8503125607967377">
        <ele>1041.6</ele>
        <time>2020-10-29T13:20:40.000Z</time>
      </trkpt>
      <trkpt lat="41.27368471585214" lon="0.8502683881670237">
        <ele>1039.2</ele>
        <time>2020-10-29T13:20:48.000Z</time>
      </trkpt>
      <trkpt lat="41.273694606497884" lon="0.8501758519560099">
        <ele>1041.8</ele>
        <time>2020-10-29T13:21:20.000Z</time>
      </trkpt>
      <trkpt lat="41.27371899783611" lon="0.8501512929797173">
        <ele>1044.8</ele>
        <time>2020-10-29T13:21:26.000Z</time>
      </trkpt>
      <trkpt lat="41.273643393069506" lon="0.8501682244241238">
        <ele>1036.8</ele>
        <time>2020-10-29T13:21:31.000Z</time>
      </trkpt>
      <trkpt lat="41.27373090013862" lon="0.8502009976655245">
        <ele>1045</ele>
        <time>2020-10-29T13:21:49.000Z</time>
      </trkpt>
      <trkpt lat="41.2737454008311" lon="0.8502216171473265">
        <ele>1046.2</ele>
        <time>2020-10-29T13:21:54.000Z</time>
      </trkpt>
      <trkpt lat="41.27358094789088" lon="0.8502916898578405">
        <ele>1025.2</ele>
        <time>2020-10-29T13:22:58.000Z</time>
      </trkpt>
      <trkpt lat="41.273506013676524" lon="0.8503219485282898">
        <ele>1014.2</ele>
        <time>2020-10-29T13:23:01.000Z</time>
      </trkpt>
      <trkpt lat="41.27347852103412" lon="0.8502442482858896">
        <ele>1014.2</ele>
        <time>2020-10-29T13:23:06.000Z</time>
      </trkpt>
      <trkpt lat="41.273481119424105" lon="0.8502170909196138">
        <ele>1015.8</ele>
        <time>2020-10-29T13:23:07.000Z</time>
      </trkpt>
      <trkpt lat="41.273517832159996" lon="0.8500723354518414">
        <ele>1026</ele>
        <time>2020-10-29T13:23:15.000Z</time>
      </trkpt>
      <trkpt lat="41.27352294512093" lon="0.8500564098358154">
        <ele>1026.8</ele>
        <time>2020-10-29T13:23:16.000Z</time>
      </trkpt>
      <trkpt lat="41.273609111085534" lon="0.8497949782758951">
        <ele>1040.2</ele>
        <time>2020-10-29T13:23:24.000Z</time>
      </trkpt>
      <trkpt lat="41.27362411469221" lon="0.8497482072561979">
        <ele>1042.4</ele>
        <time>2020-10-29T13:23:25.000Z</time>
      </trkpt>
      <trkpt lat="41.273638447746634" lon="0.8496367279440165">
        <ele>1042.8</ele>
        <time>2020-10-29T13:23:30.000Z</time>
      </trkpt>
      <trkpt lat="41.27364783547819" lon="0.8496126718819141">
        <ele>1043.4</ele>
        <time>2020-10-29T13:23:31.000Z</time>
      </trkpt>
      <trkpt lat="41.273676585406065" lon="0.8494304493069649">
        <ele>1043.4</ele>
        <time>2020-10-29T13:23:45.000Z</time>
      </trkpt>
      <trkpt lat="41.273675076663494" lon="0.8494048845022917">
        <ele>1043</ele>
        <time>2020-10-29T13:23:48.000Z</time>
      </trkpt>
      <trkpt lat="41.27368312329054" lon="0.8493772242218256">
        <ele>1043.6</ele>
        <time>2020-10-29T13:23:50.000Z</time>
      </trkpt>
      <trkpt lat="41.2736972887069" lon="0.8493243344128132">
        <ele>1044.8</ele>
        <time>2020-10-29T13:23:54.000Z</time>
      </trkpt>
      <trkpt lat="41.27369293011725" lon="0.8493148628622293">
        <ele>1044.2</ele>
        <time>2020-10-29T13:23:55.000Z</time>
      </trkpt>
      <trkpt lat="41.27369971945882" lon="0.8492693491280079">
        <ele>1044.8</ele>
        <time>2020-10-29T13:23:58.000Z</time>
      </trkpt>
      <trkpt lat="41.273756716400385" lon="0.8492183033376932">
        <ele>1050.6</ele>
        <time>2020-10-29T13:24:09.000Z</time>
      </trkpt>
      <trkpt lat="41.27385319210589" lon="0.8493066485971212">
        <ele>1062</ele>
        <time>2020-10-29T13:24:57.000Z</time>
      </trkpt>
      <trkpt lat="41.27387951128185" lon="0.8493053913116455">
        <ele>1064.8</ele>
        <time>2020-10-29T13:25:00.000Z</time>
      </trkpt>
      <trkpt lat="41.273917900398374" lon="0.8492733724415302">
        <ele>1068.8</ele>
        <time>2020-10-29T13:25:06.000Z</time>
      </trkpt>
      <trkpt lat="41.273924773558974" lon="0.8492465503513813">
        <ele>1069.4</ele>
        <time>2020-10-29T13:25:11.000Z</time>
      </trkpt>
      <trkpt lat="41.27392033115029" lon="0.8492442034184933">
        <ele>1068.8</ele>
        <time>2020-10-29T13:25:13.000Z</time>
      </trkpt>
      <trkpt lat="41.2738992087543" lon="0.8492355700582266">
        <ele>1066.4</ele>
        <time>2020-10-29T13:25:18.000Z</time>
      </trkpt>
      <trkpt lat="41.273934077471495" lon="0.8492784854024649">
        <ele>1070.6</ele>
        <time>2020-10-29T13:25:56.000Z</time>
      </trkpt>
      <trkpt lat="41.27395939081907" lon="0.8492737077176571">
        <ele>1073.4</ele>
        <time>2020-10-29T13:25:59.000Z</time>
      </trkpt>
      <trkpt lat="41.27405108883977" lon="0.8493105880916119">
        <ele>1075.8</ele>
        <time>2020-10-29T13:26:10.000Z</time>
      </trkpt>
      <trkpt lat="41.274082688614726" lon="0.8493024576455355">
        <ele>1076.2</ele>
        <time>2020-10-29T13:26:16.000Z</time>
      </trkpt>
      <trkpt lat="41.2740080896765" lon="0.8492803294211626">
        <ele>1074.6</ele>
        <time>2020-10-29T13:26:41.000Z</time>
      </trkpt>
      <trkpt lat="41.273906249552965" lon="0.8492261823266745">
        <ele>1067.2</ele>
        <time>2020-10-29T13:26:48.000Z</time>
      </trkpt>
      <trkpt lat="41.27392762340605" lon="0.8492385875433683">
        <ele>1069.6</ele>
        <time>2020-10-29T13:26:50.000Z</time>
      </trkpt>
      <trkpt lat="41.27399107441306" lon="0.8492721989750862">
        <ele>1074.2</ele>
        <time>2020-10-29T13:26:57.000Z</time>
      </trkpt>
      <trkpt lat="41.274244794622064" lon="0.8490324765443802">
        <ele>1079.2</ele>
        <time>2020-10-29T13:29:33.000Z</time>
      </trkpt>
      <trkpt lat="41.274243369698524" lon="0.8491209894418716">
        <ele>1078.6</ele>
        <time>2020-10-29T13:29:44.000Z</time>
      </trkpt>
      <trkpt lat="41.27426088787615" lon="0.849111769348383">
        <ele>1079.2</ele>
        <time>2020-10-29T13:29:45.000Z</time>
      </trkpt>
      <trkpt lat="41.27429014071822" lon="0.8490863721817732">
        <ele>1080.2</ele>
        <time>2020-10-29T13:29:49.000Z</time>
      </trkpt>
      <trkpt lat="41.274292320013046" lon="0.849070530384779">
        <ele>1080.4</ele>
        <time>2020-10-29T13:29:52.000Z</time>
      </trkpt>
      <trkpt lat="41.27428368665278" lon="0.8490800019353628">
        <ele>1080.2</ele>
        <time>2020-10-29T13:29:57.000Z</time>
      </trkpt>
      <trkpt lat="41.27428385429084" lon="0.8490878809243441">
        <ele>1080</ele>
        <time>2020-10-29T13:30:00.000Z</time>
      </trkpt>
      <trkpt lat="41.274185702204704" lon="0.8492794074118137">
        <ele>1078</ele>
        <time>2020-10-29T13:30:14.000Z</time>
      </trkpt>
      <trkpt lat="41.274132477119565" lon="0.8493588678538799">
        <ele>1077.6</ele>
        <time>2020-10-29T13:30:24.000Z</time>
      </trkpt>
      <trkpt lat="41.274120239540935" lon="0.8493856061249971">
        <ele>1077.6</ele>
        <time>2020-10-29T13:30:27.000Z</time>
      </trkpt>
      <trkpt lat="41.27409073524177" lon="0.8494011964648962">
        <ele>1077.2</ele>
        <time>2020-10-29T13:30:32.000Z</time>
      </trkpt>
      <trkpt lat="41.27400892786682" lon="0.8493257593363523">
        <ele>1075</ele>
        <time>2020-10-29T13:30:36.000Z</time>
      </trkpt>
      <trkpt lat="41.27400616183877" lon="0.849333219230175">
        <ele>1075</ele>
        <time>2020-10-29T13:30:37.000Z</time>
      </trkpt>
      <trkpt lat="41.274000043049455" lon="0.8493247535079718">
        <ele>1074.8</ele>
        <time>2020-10-29T13:30:39.000Z</time>
      </trkpt>
      <trkpt lat="41.273955116048455" lon="0.849333219230175">
        <ele>1073.4</ele>
        <time>2020-10-29T13:30:45.000Z</time>
      </trkpt>
      <trkpt lat="41.27393047325313" lon="0.8493457920849323">
        <ele>1070.8</ele>
        <time>2020-10-29T13:30:49.000Z</time>
      </trkpt>
      <trkpt lat="41.27393139526248" lon="0.8493669982999563">
        <ele>1071</ele>
        <time>2020-10-29T13:30:54.000Z</time>
      </trkpt>
      <trkpt lat="41.27389526925981" lon="0.8493893779814243">
        <ele>1067.2</ele>
        <time>2020-10-29T13:31:01.000Z</time>
      </trkpt>
      <trkpt lat="41.273956624791026" lon="0.8495238237082958">
        <ele>1074.8</ele>
        <time>2020-10-29T13:31:13.000Z</time>
      </trkpt>
      <trkpt lat="41.2739166431129" lon="0.8488880563527346">
        <ele>1066</ele>
        <time>2020-10-29T13:34:17.000Z</time>
      </trkpt>
      <trkpt lat="41.27384606748819" lon="0.8489211648702621">
        <ele>1058.4</ele>
        <time>2020-10-29T13:34:40.000Z</time>
      </trkpt>
      <trkpt lat="41.27382595092058" lon="0.8489340730011463">
        <ele>1056.2</ele>
        <time>2020-10-29T13:34:42.000Z</time>
      </trkpt>
      <trkpt lat="41.27371530979872" lon="0.848982185125351">
        <ele>1044.4</ele>
        <time>2020-10-29T13:34:49.000Z</time>
      </trkpt>
      <trkpt lat="41.273678513243794" lon="0.8489715401083231">
        <ele>1040.2</ele>
        <time>2020-10-29T13:34:55.000Z</time>
      </trkpt>
      <trkpt lat="41.27368303947151" lon="0.8489551953971386">
        <ele>1040.6</ele>
        <time>2020-10-29T13:34:58.000Z</time>
      </trkpt>
      <trkpt lat="41.27368471585214" lon="0.8489958476275206">
        <ele>1041</ele>
        <time>2020-10-29T13:35:02.000Z</time>
      </trkpt>
      <trkpt lat="41.273663425818086" lon="0.8490781579166651">
        <ele>1039.4</ele>
        <time>2020-10-29T13:35:06.000Z</time>
      </trkpt>
      <trkpt lat="41.27365428954363" lon="0.8490944188088179">
        <ele>1038.4</ele>
        <time>2020-10-29T13:35:07.000Z</time>
      </trkpt>
      <trkpt lat="41.27363123930991" lon="0.8491515833884478">
        <ele>1036.2</ele>
        <time>2020-10-29T13:35:11.000Z</time>
      </trkpt>
      <trkpt lat="41.2736159004271" lon="0.849199527874589">
        <ele>1035</ele>
        <time>2020-10-29T13:35:21.000Z</time>
      </trkpt>
      <trkpt lat="41.27345756627619" lon="0.8485271316021681">
        <ele>1017.8</ele>
        <time>2020-10-29T13:43:37.000Z</time>
      </trkpt>
      <trkpt lat="41.27345941029489" lon="0.8484899159520864">
        <ele>1018.4</ele>
        <time>2020-10-29T13:43:40.000Z</time>
      </trkpt>
      <trkpt lat="41.27348195761442" lon="0.8484281413257122">
        <ele>1021.2</ele>
        <time>2020-10-29T13:43:45.000Z</time>
      </trkpt>
      <trkpt lat="41.27348765730858" lon="0.8484185859560966">
        <ele>1022</ele>
        <time>2020-10-29T13:43:46.000Z</time>
      </trkpt>
      <trkpt lat="41.27349469810724" lon="0.8483967930078506">
        <ele>1022.8</ele>
        <time>2020-10-29T13:43:48.000Z</time>
      </trkpt>
      <trkpt lat="41.273504588752985" lon="0.8483802806586027">
        <ele>1024</ele>
        <time>2020-10-29T13:43:54.000Z</time>
      </trkpt>
      <trkpt lat="41.27347835339606" lon="0.8483097050338984">
        <ele>1021.6</ele>
        <time>2020-10-29T13:45:35.000Z</time>
      </trkpt>
      <trkpt lat="41.27346267923713" lon="0.848279194906354">
        <ele>1020</ele>
        <time>2020-10-29T13:45:37.000Z</time>
      </trkpt>
      <trkpt lat="41.273452369496226" lon="0.8482466731220484">
        <ele>1019.2</ele>
        <time>2020-10-29T13:45:43.000Z</time>
      </trkpt>
      <trkpt lat="41.27354985103011" lon="0.8481557294726372">
        <ele>1030.4</ele>
        <time>2020-10-29T13:47:11.000Z</time>
      </trkpt>
      <trkpt lat="41.27352738752961" lon="0.8481512870639563">
        <ele>1028</ele>
        <time>2020-10-29T13:47:14.000Z</time>
      </trkpt>
      <trkpt lat="41.27350986935198" lon="0.8481576573103666">
        <ele>1026</ele>
        <time>2020-10-29T13:47:19.000Z</time>
      </trkpt>
      <trkpt lat="41.27348438836634" lon="0.8490634057670832">
        <ele>1019.4</ele>
        <time>2020-10-29T13:49:09.000Z</time>
      </trkpt>
      <trkpt lat="41.27350400201976" lon="0.8490577898919582">
        <ele>1021.6</ele>
        <time>2020-10-29T13:49:12.000Z</time>
      </trkpt>
      <trkpt lat="41.27347642555833" lon="0.8490025531500578">
        <ele>1018.2</ele>
        <time>2020-10-29T13:49:16.000Z</time>
      </trkpt>
      <trkpt lat="41.27347877249122" lon="0.8489786647260189">
        <ele>1018.2</ele>
        <time>2020-10-29T13:49:18.000Z</time>
      </trkpt>
      <trkpt lat="41.27348623238504" lon="0.8489623200148344">
        <ele>1019</ele>
        <time>2020-10-29T13:49:20.000Z</time>
      </trkpt>
      <trkpt lat="41.273504588752985" lon="0.8489490766078234">
        <ele>1020.8</ele>
        <time>2020-10-29T13:49:23.000Z</time>
      </trkpt>
      <trkpt lat="41.27349461428821" lon="0.8488731365650892">
        <ele>1019.4</ele>
        <time>2020-10-29T13:49:30.000Z</time>
      </trkpt>
      <trkpt lat="41.27348564565182" lon="0.848855534568429">
        <ele>1018.6</ele>
        <time>2020-10-29T13:49:32.000Z</time>
      </trkpt>
      <trkpt lat="41.27347365953028" lon="0.8488286286592484">
        <ele>1017.4</ele>
        <time>2020-10-29T13:49:36.000Z</time>
      </trkpt>
      <trkpt lat="41.27347349189222" lon="0.8487965259701014">
        <ele>1017.6</ele>
        <time>2020-10-29T13:49:39.000Z</time>
      </trkpt>
      <trkpt lat="41.27348774112761" lon="0.8486463222652674">
        <ele>1020.4</ele>
        <time>2020-10-29T13:49:51.000Z</time>
      </trkpt>
      <trkpt lat="41.27350190654397" lon="0.8486504293978214">
        <ele>1021.8</ele>
        <time>2020-10-29T13:49:52.000Z</time>
      </trkpt>
      <trkpt lat="41.27350919879973" lon="0.8486062567681074">
        <ele>1023</ele>
        <time>2020-10-29T13:49:59.000Z</time>
      </trkpt>
      <trkpt lat="41.27350484021008" lon="0.8485052548348904">
        <ele>1023.2</ele>
        <time>2020-10-29T13:50:07.000Z</time>
      </trkpt>
      <trkpt lat="41.27350626513362" lon="0.8484801929444075">
        <ele>1023.6</ele>
        <time>2020-10-29T13:50:12.000Z</time>
      </trkpt>
      <trkpt lat="41.27349838614464" lon="0.8485594857484102">
        <ele>1022.2</ele>
        <time>2020-10-29T13:50:18.000Z</time>
      </trkpt>
      <trkpt lat="41.273480700328946" lon="0.8486303128302097">
        <ele>1019.6</ele>
        <time>2020-10-29T13:50:29.000Z</time>
      </trkpt>
      <trkpt lat="41.27340274862945" lon="0.8485731482505798">
        <ele>1011.4</ele>
        <time>2020-10-29T13:51:03.000Z</time>
      </trkpt>
      <trkpt lat="41.27340333536267" lon="0.8485050871968269">
        <ele>1012</ele>
        <time>2020-10-29T13:51:08.000Z</time>
      </trkpt>
      <trkpt lat="41.27341842278838" lon="0.848448509350419">
        <ele>1014.2</ele>
        <time>2020-10-29T13:51:16.000Z</time>
      </trkpt>
      <trkpt lat="41.273326724767685" lon="0.8479433320462704">
        <ele>1007.2</ele>
        <time>2020-10-29T13:54:08.000Z</time>
      </trkpt>
      <trkpt lat="41.27335539087653" lon="0.8478417433798313">
        <ele>1011</ele>
        <time>2020-10-29T13:54:18.000Z</time>
      </trkpt>
      <trkpt lat="41.27331876195967" lon="0.8477612771093845">
        <ele>1007.4</ele>
        <time>2020-10-29T13:54:26.000Z</time>
      </trkpt>
      <trkpt lat="41.27330794930458" lon="0.8477398194372654">
        <ele>1006.4</ele>
        <time>2020-10-29T13:54:30.000Z</time>
      </trkpt>
      <trkpt lat="41.27331096678972" lon="0.8474456984549761">
        <ele>1008.6</ele>
        <time>2020-10-29T13:54:56.000Z</time>
      </trkpt>
      <trkpt lat="41.27330987714231" lon="0.8474137634038925">
        <ele>1008.6</ele>
        <time>2020-10-29T13:54:58.000Z</time>
      </trkpt>
      <trkpt lat="41.27330945804715" lon="0.8473521564155817">
        <ele>1008.6</ele>
        <time>2020-10-29T13:55:03.000Z</time>
      </trkpt>
      <trkpt lat="41.27331390045583" lon="0.847296416759491">
        <ele>1009</ele>
        <time>2020-10-29T13:55:09.000Z</time>
      </trkpt>
      <trkpt lat="41.27329554408789" lon="0.8472103346139193">
        <ele>1007.8</ele>
        <time>2020-10-29T13:55:17.000Z</time>
      </trkpt>
      <trkpt lat="41.273289592936635" lon="0.8471911400556564">
        <ele>1008.2</ele>
        <time>2020-10-29T13:55:20.000Z</time>
      </trkpt>
      <trkpt lat="41.27329671755433" lon="0.8471848536282778">
        <ele>1009.2</ele>
        <time>2020-10-29T13:55:23.000Z</time>
      </trkpt>
      <trkpt lat="41.27305733039975" lon="0.8468301314860582">
        <ele>998.6</ele>
        <time>2020-10-29T13:56:34.000Z</time>
      </trkpt>
      <trkpt lat="41.27305154688656" lon="0.8467775769531727">
        <ele>1000.4</ele>
        <time>2020-10-29T13:56:38.000Z</time>
      </trkpt>
      <trkpt lat="41.27304785884917" lon="0.8467668481171131">
        <ele>1000.4</ele>
        <time>2020-10-29T13:56:39.000Z</time>
      </trkpt>
      <trkpt lat="41.27299471758306" lon="0.8467071689665318">
        <ele>995.8</ele>
        <time>2020-10-29T13:56:47.000Z</time>
      </trkpt>
      <trkpt lat="41.27299572341144" lon="0.8466793410480022">
        <ele>997.2</ele>
        <time>2020-10-29T13:56:53.000Z</time>
      </trkpt>
      <trkpt lat="41.272961189970374" lon="0.846614046022296">
        <ele>995.6</ele>
        <time>2020-10-29T13:57:02.000Z</time>
      </trkpt>
      <trkpt lat="41.27296160906553" lon="0.84659812040627">
        <ele>996.4</ele>
        <time>2020-10-29T13:57:03.000Z</time>
      </trkpt>
      <trkpt lat="41.272964123636484" lon="0.8465620782226324">
        <ele>998.4</ele>
        <time>2020-10-29T13:57:05.000Z</time>
      </trkpt>
      <trkpt lat="41.2729562446475" lon="0.8464918378740549">
        <ele>1000.6</ele>
        <time>2020-10-29T13:57:09.000Z</time>
      </trkpt>
      <trkpt lat="41.27294568344951" lon="0.8464366011321545">
        <ele>1001.8</ele>
        <time>2020-10-29T13:57:15.000Z</time>
      </trkpt>
      <trkpt lat="41.27291735261679" lon="0.8464368525892496">
        <ele>997.8</ele>
        <time>2020-10-29T13:57:25.000Z</time>
      </trkpt>
      <trkpt lat="41.27291542477906" lon="0.8464382775127888">
        <ele>997.6</ele>
        <time>2020-10-29T13:57:28.000Z</time>
      </trkpt>
      <trkpt lat="41.27165989950299" lon="0.8466391917318106">
        <ele>870.2</ele>
        <time>2020-10-29T14:03:38.000Z</time>
      </trkpt>
      <trkpt lat="41.271590162068605" lon="0.8465985395014286">
        <ele>867.6</ele>
        <time>2020-10-29T14:03:46.000Z</time>
      </trkpt>
      <trkpt lat="41.27155311405659" lon="0.846550427377224">
        <ele>866.6</ele>
        <time>2020-10-29T14:03:52.000Z</time>
      </trkpt>
      <trkpt lat="41.27152947708964" lon="0.8465276286005974">
        <ele>865.8</ele>
        <time>2020-10-29T14:03:55.000Z</time>
      </trkpt>
      <trkpt lat="41.271522268652916" lon="0.8465059194713831">
        <ele>865.6</ele>
        <time>2020-10-29T14:03:59.000Z</time>
      </trkpt>
      <trkpt lat="41.27125605940819" lon="0.8462439849972725">
        <ele>856.6</ele>
        <time>2020-10-29T14:05:24.000Z</time>
      </trkpt>
      <trkpt lat="41.27124750986695" lon="0.8462295681238174">
        <ele>856.4</ele>
        <time>2020-10-29T14:05:25.000Z</time>
      </trkpt>
      <trkpt lat="41.27120736055076" lon="0.8461677934974432">
        <ele>855</ele>
        <time>2020-10-29T14:05:32.000Z</time>
      </trkpt>
      <trkpt lat="41.27118255011737" lon="0.8461208548396826">
        <ele>854.2</ele>
        <time>2020-10-29T14:05:38.000Z</time>
      </trkpt>
      <trkpt lat="41.27116955816746" lon="0.846108365803957">
        <ele>853.8</ele>
        <time>2020-10-29T14:05:42.000Z</time>
      </trkpt>
      <trkpt lat="41.27089002169669" lon="0.846064779907465">
        <ele>843.6</ele>
        <time>2020-10-29T14:06:50.000Z</time>
      </trkpt>
      <trkpt lat="41.27076446078718" lon="0.8459047693759203">
        <ele>839.2</ele>
        <time>2020-10-29T14:07:05.000Z</time>
      </trkpt>
      <trkpt lat="41.27068701200187" lon="0.8458361215889454">
        <ele>836.6</ele>
        <time>2020-10-29T14:07:13.000Z</time>
      </trkpt>
      <trkpt lat="41.27067628316581" lon="0.8458355348557234">
        <ele>836.2</ele>
        <time>2020-10-29T14:07:14.000Z</time>
      </trkpt>
      <trkpt lat="41.27063512802124" lon="0.8458549808710814">
        <ele>834.6</ele>
        <time>2020-10-29T14:07:17.000Z</time>
      </trkpt>
      <trkpt lat="41.27047939226031" lon="0.8458976447582245">
        <ele>831</ele>
        <time>2020-10-29T14:07:30.000Z</time>
      </trkpt>
      <trkpt lat="41.27046857960522" lon="0.8458906877785921">
        <ele>830.8</ele>
        <time>2020-10-29T14:07:31.000Z</time>
      </trkpt>
      <trkpt lat="41.27028820104897" lon="0.845857160165906">
        <ele>827</ele>
        <time>2020-10-29T14:07:45.000Z</time>
      </trkpt>
      <trkpt lat="41.27016649581492" lon="0.8456830680370331">
        <ele>824.8</ele>
        <time>2020-10-29T14:08:00.000Z</time>
      </trkpt>
      <trkpt lat="41.27007303759456" lon="0.84558030590415">
        <ele>823</ele>
        <time>2020-10-29T14:08:11.000Z</time>
      </trkpt>
      <trkpt lat="41.27005845308304" lon="0.8455534838140011">
        <ele>822.8</ele>
        <time>2020-10-29T14:08:13.000Z</time>
      </trkpt>
      <trkpt lat="41.270039845258" lon="0.8455319423228502">
        <ele>822.6</ele>
        <time>2020-10-29T14:08:16.000Z</time>
      </trkpt>
      <trkpt lat="41.27002324908972" lon="0.8455196209251881">
        <ele>822.6</ele>
        <time>2020-10-29T14:08:18.000Z</time>
      </trkpt>
      <trkpt lat="41.26994965597987" lon="0.8454435132443905">
        <ele>822.2</ele>
        <time>2020-10-29T14:08:28.000Z</time>
      </trkpt>
      <trkpt lat="41.269942447543144" lon="0.845438065007329">
        <ele>822</ele>
        <time>2020-10-29T14:08:29.000Z</time>
      </trkpt>
      <trkpt lat="41.269792998209596" lon="0.8454579301178455">
        <ele>818.4</ele>
        <time>2020-10-29T14:08:41.000Z</time>
      </trkpt>
      <trkpt lat="41.26977480947971" lon="0.8454762026667595">
        <ele>817.8</ele>
        <time>2020-10-29T14:08:43.000Z</time>
      </trkpt>
      <trkpt lat="41.26965335570276" lon="0.845334380865097">
        <ele>816.8</ele>
        <time>2020-10-29T14:08:58.000Z</time>
      </trkpt>
      <trkpt lat="41.26956174150109" lon="0.8453648909926414">
        <ele>813.6</ele>
        <time>2020-10-29T14:09:10.000Z</time>
      </trkpt>
      <trkpt lat="41.26949904486537" lon="0.8454512245953083">
        <ele>810</ele>
        <time>2020-10-29T14:09:44.000Z</time>
      </trkpt>
      <trkpt lat="41.26949057914317" lon="0.8454494643956423">
        <ele>809.8</ele>
        <time>2020-10-29T14:09:45.000Z</time>
      </trkpt>
      <trkpt lat="41.26946442760527" lon="0.8454395737498999">
        <ele>809</ele>
        <time>2020-10-29T14:09:49.000Z</time>
      </trkpt>
      <trkpt lat="41.26944690942764" lon="0.8454510569572449">
        <ele>808.4</ele>
        <time>2020-10-29T14:09:51.000Z</time>
      </trkpt>
      <trkpt lat="41.26940810121596" lon="0.8454656414687634">
        <ele>806.8</ele>
        <time>2020-10-29T14:09:54.000Z</time>
      </trkpt>
      <trkpt lat="41.26932025887072" lon="0.8455834910273552">
        <ele>802</ele>
        <time>2020-10-29T14:10:01.000Z</time>
      </trkpt>
      <trkpt lat="41.26930844038725" lon="0.8455869276076555">
        <ele>801.6</ele>
        <time>2020-10-29T14:10:02.000Z</time>
      </trkpt>
      <trkpt lat="41.26913543790579" lon="0.8454724308103323">
        <ele>798.2</ele>
        <time>2020-10-29T14:10:12.000Z</time>
      </trkpt>
      <trkpt lat="41.26897090114653" lon="0.8453472889959812">
        <ele>795.6</ele>
        <time>2020-10-29T14:10:25.000Z</time>
      </trkpt>
      <trkpt lat="41.26881642267108" lon="0.8452229853719473">
        <ele>793.2</ele>
        <time>2020-10-29T14:10:36.000Z</time>
      </trkpt>
      <trkpt lat="41.268726233392954" lon="0.845106728374958">
        <ele>792.8</ele>
        <time>2020-10-29T14:10:45.000Z</time>
      </trkpt>
      <trkpt lat="41.26871491782367" lon="0.8450953289866447">
        <ele>792.8</ele>
        <time>2020-10-29T14:10:46.000Z</time>
      </trkpt>
      <trkpt lat="41.26866512931883" lon="0.8450210653245449">
        <ele>792.6</ele>
        <time>2020-10-29T14:10:51.000Z</time>
      </trkpt>
      <trkpt lat="41.26865238882601" lon="0.8450089953839779">
        <ele>792.6</ele>
        <time>2020-10-29T14:10:52.000Z</time>
      </trkpt>
      <trkpt lat="41.26852288842201" lon="0.8448320534080267">
        <ele>792.2</ele>
        <time>2020-10-29T14:11:05.000Z</time>
      </trkpt>
      <trkpt lat="41.268463963642716" lon="0.8447605557739735">
        <ele>791.8</ele>
        <time>2020-10-29T14:11:10.000Z</time>
      </trkpt>
      <trkpt lat="41.268450217321515" lon="0.8447460550814867">
        <ele>791.6</ele>
        <time>2020-10-29T14:11:11.000Z</time>
      </trkpt>
      <trkpt lat="41.26837318763137" lon="0.8445251081138849">
        <ele>791</ele>
        <time>2020-10-29T14:11:22.000Z</time>
      </trkpt>
      <trkpt lat="41.26830177381635" lon="0.8442971203476191">
        <ele>790.4</ele>
        <time>2020-10-29T14:11:34.000Z</time>
      </trkpt>
      <trkpt lat="41.26822113990784" lon="0.8440880756825209">
        <ele>789.4</ele>
        <time>2020-10-29T14:11:47.000Z</time>
      </trkpt>
      <trkpt lat="41.268219128251076" lon="0.8440672885626554">
        <ele>789.6</ele>
        <time>2020-10-29T14:11:48.000Z</time>
      </trkpt>
      <trkpt lat="41.26821510493755" lon="0.8440275583416224">
        <ele>789.8</ele>
        <time>2020-10-29T14:11:50.000Z</time>
      </trkpt>
      <trkpt lat="41.26821594312787" lon="0.8439325913786888">
        <ele>790.6</ele>
        <time>2020-10-29T14:11:55.000Z</time>
      </trkpt>
      <trkpt lat="41.26821636222303" lon="0.8439118042588234">
        <ele>790.8</ele>
        <time>2020-10-29T14:11:56.000Z</time>
      </trkpt>
      <trkpt lat="41.268220553174615" lon="0.8436647895723581">
        <ele>790.2</ele>
        <time>2020-10-29T14:12:08.000Z</time>
      </trkpt>
      <trkpt lat="41.268224995583296" lon="0.8436460141092539">
        <ele>790.4</ele>
        <time>2020-10-29T14:12:09.000Z</time>
      </trkpt>
      <trkpt lat="41.26824234612286" lon="0.8435392286628485">
        <ele>790.6</ele>
        <time>2020-10-29T14:12:16.000Z</time>
      </trkpt>
      <trkpt lat="41.26824569888413" lon="0.8435259852558374">
        <ele>790.6</ele>
        <time>2020-10-29T14:12:17.000Z</time>
      </trkpt>
      <trkpt lat="41.268285010010004" lon="0.8434107340872288">
        <ele>791.6</ele>
        <time>2020-10-29T14:12:23.000Z</time>
      </trkpt>
      <trkpt lat="41.26829205080867" lon="0.8433904498815536">
        <ele>791.8</ele>
        <time>2020-10-29T14:12:24.000Z</time>
      </trkpt>
      <trkpt lat="41.26834695227444" lon="0.8432701695710421">
        <ele>793.2</ele>
        <time>2020-10-29T14:12:35.000Z</time>
      </trkpt>
      <trkpt lat="41.2683645542711" lon="0.8431511465460062">
        <ele>794.8</ele>
        <time>2020-10-29T14:13:29.000Z</time>
      </trkpt>
      <trkpt lat="41.26827956177294" lon="0.8429654873907566">
        <ele>793.4</ele>
        <time>2020-10-29T14:13:41.000Z</time>
      </trkpt>
      <trkpt lat="41.26826690509915" lon="0.8429528307169676">
        <ele>793.2</ele>
        <time>2020-10-29T14:13:42.000Z</time>
      </trkpt>
      <trkpt lat="41.26808350905776" lon="0.8428942412137985">
        <ele>786.4</ele>
        <time>2020-10-29T14:13:55.000Z</time>
      </trkpt>
      <trkpt lat="41.2680450361222" lon="0.8428880386054516">
        <ele>784.8</ele>
        <time>2020-10-29T14:13:57.000Z</time>
      </trkpt>
      <trkpt lat="41.26803698949516" lon="0.8428892120718956">
        <ele>784.6</ele>
        <time>2020-10-29T14:13:58.000Z</time>
      </trkpt>
      <trkpt lat="41.26791654154658" lon="0.8429075684398413">
        <ele>779.4</ele>
        <time>2020-10-29T14:14:09.000Z</time>
      </trkpt>
      <trkpt lat="41.26790472306311" lon="0.8429091610014439">
        <ele>779</ele>
        <time>2020-10-29T14:14:10.000Z</time>
      </trkpt>
      <trkpt lat="41.26780757680535" lon="0.8430138509720564">
        <ele>773.8</ele>
        <time>2020-10-29T14:14:19.000Z</time>
      </trkpt>
      <trkpt lat="41.26779927872121" lon="0.8430346380919218">
        <ele>773.2</ele>
        <time>2020-10-29T14:14:20.000Z</time>
      </trkpt>
      <trkpt lat="41.26777622848749" lon="0.8431645575910807">
        <ele>772.2</ele>
        <time>2020-10-29T14:14:27.000Z</time>
      </trkpt>
      <trkpt lat="41.267773965373635" lon="0.8431852608919144">
        <ele>772.2</ele>
        <time>2020-10-29T14:14:28.000Z</time>
      </trkpt>
      <trkpt lat="41.267745550721884" lon="0.8434269111603498">
        <ele>772</ele>
        <time>2020-10-29T14:14:39.000Z</time>
      </trkpt>
      <trkpt lat="41.26774353906512" lon="0.8434493746608496">
        <ele>772.2</ele>
        <time>2020-10-29T14:14:40.000Z</time>
      </trkpt>
      <trkpt lat="41.26760305836797" lon="0.8434429205954075">
        <ele>766.2</ele>
        <time>2020-10-29T14:14:50.000Z</time>
      </trkpt>
      <trkpt lat="41.26753633841872" lon="0.8432187885046005">
        <ele>763.6</ele>
        <time>2020-10-29T14:15:02.000Z</time>
      </trkpt>
      <trkpt lat="41.26750926487148" lon="0.8431134279817343">
        <ele>762.2</ele>
        <time>2020-10-29T14:15:07.000Z</time>
      </trkpt>
      <trkpt lat="41.267503313720226" lon="0.8430925570428371">
        <ele>761.8</ele>
        <time>2020-10-29T14:15:08.000Z</time>
      </trkpt>
      <trkpt lat="41.26748973503709" lon="0.843060789629817">
        <ele>761.2</ele>
        <time>2020-10-29T14:15:10.000Z</time>
      </trkpt>
      <trkpt lat="41.26743843778968" lon="0.8429640624672174">
        <ele>760.8</ele>
        <time>2020-10-29T14:15:16.000Z</time>
      </trkpt>
      <trkpt lat="41.26742720603943" lon="0.8429486397653818">
        <ele>760.6</ele>
        <time>2020-10-29T14:15:17.000Z</time>
      </trkpt>
      <trkpt lat="41.267338609322906" lon="0.8428897988051176">
        <ele>758.2</ele>
        <time>2020-10-29T14:15:24.000Z</time>
      </trkpt>
      <trkpt lat="41.26732653938234" lon="0.8428815845400095">
        <ele>758</ele>
        <time>2020-10-29T14:15:25.000Z</time>
      </trkpt>
      <trkpt lat="41.2671731505543" lon="0.8427487313747406">
        <ele>755.8</ele>
        <time>2020-10-29T14:15:38.000Z</time>
      </trkpt>
      <trkpt lat="41.26704281195998" lon="0.842571035027504">
        <ele>755.2</ele>
        <time>2020-10-29T14:15:52.000Z</time>
      </trkpt>
      <trkpt lat="41.26702085137367" lon="0.842544799670577">
        <ele>755</ele>
        <time>2020-10-29T14:15:54.000Z</time>
      </trkpt>
      <trkpt lat="41.26700844615698" lon="0.8425323106348515">
        <ele>755</ele>
        <time>2020-10-29T14:15:55.000Z</time>
      </trkpt>
      <trkpt lat="41.266863690689206" lon="0.8423950988799334">
        <ele>753.4</ele>
        <time>2020-10-29T14:16:07.000Z</time>
      </trkpt>
      <trkpt lat="41.26681365072727" lon="0.8423765748739243">
        <ele>752.4</ele>
        <time>2020-10-29T14:16:10.000Z</time>
      </trkpt>
      <trkpt lat="41.26678045839071" lon="0.8423655107617378">
        <ele>751.8</ele>
        <time>2020-10-29T14:16:12.000Z</time>
      </trkpt>
      <trkpt lat="41.26674030907452" lon="0.8423484116792679">
        <ele>751</ele>
        <time>2020-10-29T14:16:15.000Z</time>
      </trkpt>
      <trkpt lat="41.26666679978371" lon="0.8423252776265144">
        <ele>749.6</ele>
        <time>2020-10-29T14:16:20.000Z</time>
      </trkpt>
      <trkpt lat="41.26664928160608" lon="0.8423225115984678">
        <ele>749.2</ele>
        <time>2020-10-29T14:16:21.000Z</time>
      </trkpt>
      <trkpt lat="41.26660477370024" lon="0.8422933425754309">
        <ele>748.6</ele>
        <time>2020-10-29T14:16:25.000Z</time>
      </trkpt>
      <trkpt lat="41.266596307978034" lon="0.842284457758069">
        <ele>748.4</ele>
        <time>2020-10-29T14:16:26.000Z</time>
      </trkpt>
      <trkpt lat="41.26652313396335" lon="0.8422787580639124">
        <ele>746.6</ele>
        <time>2020-10-29T14:16:36.000Z</time>
      </trkpt>
    </trkseg>
  </trk>
</gpx>
